GFSSGP_prec_cthk_000.txt.gz
RH
41 40 59 72 74 66 81 78 71 74 78 78 77 77 83 85 83 81 83 86 83 82 79 77 83 81 79 75 71 63 57 52 48 45 42 42 40 37 38 38 39 39 42 43 45 50 56 54 59
46 45 49 58 57 62 67 69 71 73 74 76 76 76 80 84 85 79 80 80 79 76 74 73 74 76 72 66 63 58 53 52 49 44 42 41 41 42 43 40 43 45 45 46 46 48 53 57 58
45 44 52 42 41 57 65 69 70 69 66 71 74 76 79 86 82 78 77 75 73 70 69 62 65 67 65 64 55 55 54 51 46 45 43 43 44 46 48 49 50 50 49 49 50 49 50 55 59
50 48 43 36 31 38 56 63 62 64 65 70 71 72 76 76 75 75 73 72 69 63 65 60 61 62 62 59 55 53 50 47 46 45 44 44 43 46 48 50 52 52 53 53 53 53 51 52 57
51 46 40 34 31 32 40 53 59 61 61 65 68 66 72 70 68 67 66 63 61 56 60 62 61 59 59 55 51 48 46 45 45 45 44 44 48 53 56 60 57 56 57 57 57 56 57 53 57
54 47 43 38 31 30 33 42 50 53 56 58 62 65 68 64 61 60 59 58 60 57 61 58 57 57 55 53 50 47 47 47 47 47 50 52 53 57 59 59 63 63 62 62 67 62 61 52 52
53 49 47 46 36 34 30 31 39 40 51 54 54 58 63 60 59 58 58 59 59 57 57 58 55 49 48 49 49 50 51 51 51 53 53 55 57 61 62 66 62 62 67 73 72 70 68 64 58
51 48 45 50 50 34 27 29 31 34 40 41 51 56 58 57 58 58 58 57 57 56 55 55 55 52 50 47 50 52 52 52 53 54 57 58 60 61 58 64 63 59 66 74 73 63 61 68 67
45 50 45 46 52 39 34 29 27 30 34 38 42 47 54 56 55 56 57 57 55 53 54 55 54 54 54 52 49 48 50 50 52 54 53 56 67 66 64 56 57 59 59 67 64 62 62 60 63
44 51 46 42 48 43 39 36 27 28 32 37 41 43 47 51 52 53 51 50 51 53 51 52 55 57 55 55 53 52 52 52 52 51 54 58 61 60 57 55 54 55 52 53 50 47 49 57 59
39 51 44 42 41 44 39 40 34 29 32 33 35 40 42 47 48 48 48 49 49 50 51 54 51 50 51 55 54 51 51 51 49 50 51 56 55 57 58 56 53 50 48 54 49 46 45 41 39
37 36 37 41 38 42 42 37 37 28 28 31 32 33 39 42 43 44 46 47 49 50 51 48 48 47 50 52 52 50 50 52 53 52 47 54 55 56 55 57 54 49 52 50 47 48 43 41 38
34 33 34 33 34 37 40 36 34 29 27 29 33 33 35 39 39 41 43 44 45 46 47 48 46 43 43 44 49 50 51 50 51 50 49 51 54 64 57 60 56 50 48 48 45 43 42 42 41
32 30 32 28 25 28 32 32 31 29 28 29 31 32 33 36 37 39 40 41 42 44 44 45 42 42 46 45 48 47 48 50 50 51 46 43 50 67 61 57 52 47 47 44 41 39 39 40 38
34 30 34 30 27 27 31 35 32 30 30 29 31 32 32 33 35 36 37 38 39 39 40 38 40 40 44 43 46 44 47 46 47 47 44 44 54 58 54 58 51 52 48 39 38 39 38 35 31
32 33 35 31 32 29 36 40 37 34 27 31 29 29 30 29 33 35 36 37 36 36 34 35 40 42 36 41 40 43 47 46 45 46 53 55 54 50 50 53 53 52 47 44 43 40 32 31 34
33 35 35 35 32 36 39 47 43 42 37 27 30 29 29 31 30 31 32 33 33 35 34 34 36 36 34 41 43 40 43 48 54 46 49 47 46 47 47 48 49 49 50 54 50 42 28 26 27
34 33 35 34 32 37 39 46 43 45 42 33 28 30 28 26 27 29 30 30 33 34 32 33 32 32 36 42 49 50 49 46 43 39 42 42 51 47 48 47 42 40 45 44 38 26 26 26 26
31 36 36 36 43 44 45 44 43 45 44 37 30 29 29 24 25 27 29 30 31 32 33 32 31 32 40 48 43 40 43 42 41 37 45 41 40 39 39 40 37 35 37 26 23 22 26 25 32
31 33 34 35 44 44 45 44 42 45 46 45 40 36 29 30 30 28 28 28 29 32 32 33 31 33 37 39 38 39 43 39 40 37 41 37 37 32 31 34 34 29 26 26 20 21 27 29 28
27 32 35 40 41 43 46 44 41 42 47 46 47 44 38 36 34 33 28 28 29 30 31 28 28 30 35 37 42 37 39 35 37 35 34 30 28 30 29 27 25 24 20 24 24 26 26 30 33
25 25 35 39 45 44 41 42 38 41 42 43 43 45 42 45 44 42 39 31 29 28 29 27 28 28 33 35 34 32 33 34 35 37 37 32 28 30 28 25 26 20 23 23 23 21 24 24 34
22 27 29 35 41 45 48 47 39 39 38 39 39 41 42 40 44 43 41 35 34 32 30 24 25 26 29 31 29 31 31 37 35 34 35 33 34 30 28 28 24 20 19 25 22 22 23 29 29
23 30 32 33 36 40 40 44 34 35 32 33 36 39 40 41 42 46 41 35 39 40 36 25 23 23 26 28 29 31 33 34 37 38 37 36 38 34 33 32 27 23 26 26 24 20 23 23 27
24 29 33 36 35 36 38 41 31 31 30 26 29 33 38 42 43 45 43 36 34 39 39 31 26 22 25 27 31 32 33 34 38 42 40 42 42 42 40 36 35 35 35 35 27 22 25 25 29
22 24 30 34 30 31 35 37 27 25 27 25 27 28 36 40 37 36 37 39 34 33 34 37 31 25 25 28 31 34 34 36 40 47 49 49 50 50 52 46 49 48 44 38 32 28 30 33 31
22 25 26 28 27 26 23 30 23 25 27 25 25 27 31 35 36 36 38 35 34 29 31 34 33 29 30 32 33 34 35 37 48 51 53 54 52 52 50 51 54 61 60 46 37 33 32 30 29
20 22 28 28 33 31 28 28 30 25 24 24 25 25 27 31 33 35 36 36 33 29 29 33 31 29 30 31 32 32 34 38 46 47 50 51 57 53 55 53 58 57 65 61 52 45 37 28 27
14 24 26 29 28 29 31 27 26 23 25 27 26 25 26 27 30 33 35 36 35 32 31 37 32 31 29 30 32 33 40 44 45 49 54 54 52 51 49 50 53 65 56 61 60 52 47 40 30
15 20 27 29 31 30 27 23 23 25 21 20 24 25 25 24 26 29 34 38 37 35 34 33 31 33 35 36 36 40 46 49 50 51 54 54 53 54 52 59 56 50 60 62 64 61 55 49 44

GFSSGP_prec_cthk_003.txt.gz
RH
43 59 72 85 95 79 71 70 69 73 74 71 72 86 83 77 87 86 84 83 85 86 84 82 80 77 70 66 66 65 58 51 46 43 40 39 39 37 36 37 37 38 41 43 48 51 50 51 62
43 56 73 77 70 85 80 70 73 72 67 70 72 80 78 86 79 78 82 81 80 79 79 76 77 76 74 68 64 60 53 47 43 41 40 39 39 39 37 38 39 39 43 45 46 50 51 51 59
48 60 78 64 53 67 69 71 66 65 69 72 72 78 79 80 78 77 76 75 78 75 76 74 73 71 67 61 57 55 51 45 43 44 43 43 43 45 45 45 46 44 46 48 48 48 49 52 57
50 65 61 40 38 54 67 64 61 61 65 68 71 74 77 74 75 72 70 72 70 70 72 67 68 66 57 55 53 52 48 45 45 45 44 43 42 44 44 47 47 48 49 53 54 52 50 53 58
59 65 57 34 32 44 56 57 59 65 64 66 69 70 70 73 73 70 67 67 66 62 62 59 60 58 55 51 49 46 44 45 44 44 43 42 46 50 53 54 53 56 58 62 63 58 56 50 57
71 55 50 35 30 36 46 52 55 59 60 63 67 66 67 66 67 65 66 61 61 60 59 55 54 54 51 49 46 44 43 44 46 47 47 46 48 53 55 56 59 63 67 71 68 64 59 52 55
69 63 49 36 33 32 39 44 53 53 57 60 64 66 62 60 60 61 57 59 59 56 57 55 53 50 47 45 45 45 46 47 46 47 48 49 51 56 57 60 54 60 71 75 73 65 66 64 60
61 50 38 47 41 27 28 42 36 46 57 56 61 61 58 59 58 57 58 57 57 53 55 56 50 49 48 46 48 49 48 47 47 48 49 51 56 57 55 62 58 57 60 69 68 62 60 63 66
46 52 39 42 53 38 27 35 34 40 37 47 56 56 59 56 58 56 56 56 53 53 49 54 53 52 50 51 48 48 46 46 47 46 49 53 67 66 60 57 52 56 56 57 53 48 50 57 64
50 60 46 38 51 43 37 35 30 35 35 40 45 55 55 56 55 54 52 50 51 54 58 51 55 51 48 54 47 49 48 49 49 52 51 53 61 59 55 54 49 48 49 46 45 41 41 47 51
43 60 48 42 43 51 37 39 37 41 34 39 42 45 48 51 52 52 49 49 48 52 53 52 54 52 49 54 51 51 52 54 53 51 52 54 60 64 62 56 59 51 48 62 51 52 57 46 45
37 48 46 45 36 50 43 43 39 31 42 34 40 40 42 48 48 49 48 47 50 52 51 48 51 46 48 50 52 52 54 54 54 50 50 51 51 55 55 64 62 56 68 52 57 52 47 47 45
31 38 38 37 37 45 49 43 37 35 26 30 35 33 37 42 44 46 47 46 48 51 50 46 47 43 45 48 48 51 51 49 54 53 50 51 63 63 65 55 51 52 51 58 50 50 47 45 47
34 35 34 36 38 36 47 41 40 35 25 28 30 30 32 35 38 40 42 45 46 44 43 44 47 44 41 48 47 49 51 51 47 51 50 45 53 66 59 61 55 54 49 53 47 46 41 43 41
33 32 34 29 34 32 36 36 32 39 32 26 29 29 30 33 34 36 38 39 40 41 43 44 42 42 40 44 43 42 49 46 48 48 46 43 52 50 49 59 56 55 48 45 44 50 43 36 32
30 30 32 35 31 32 33 36 28 33 34 33 28 30 28 29 31 33 35 36 38 38 35 35 40 39 40 45 44 43 46 50 47 47 52 51 48 49 48 50 56 53 49 56 51 47 49 38 31
32 30 31 42 30 38 31 53 40 34 33 35 29 29 30 28 30 32 34 35 35 33 32 33 36 42 37 37 40 38 41 50 58 58 57 58 46 50 49 49 51 52 51 50 45 44 41 30 29
32 31 31 39 37 40 28 55 50 39 40 30 33 32 28 27 27 28 31 33 35 35 32 34 35 35 34 36 51 48 49 50 48 48 51 46 53 49 49 52 52 46 49 43 53 43 24 21 32
29 30 28 31 35 30 40 43 43 41 38 35 33 30 28 26 26 28 31 32 33 33 31 34 34 33 31 37 46 46 47 47 43 42 48 45 42 41 44 46 45 47 45 44 32 25 25 33 36
28 28 31 32 33 37 37 44 42 47 39 37 34 32 29 29 27 29 28 30 32 29 29 30 30 30 27 36 37 41 43 43 45 45 42 44 44 43 39 38 41 39 44 32 26 21 21 34 36
27 28 28 29 34 49 39 47 41 44 45 41 39 36 31 35 37 34 28 29 31 30 27 29 28 29 30 34 44 45 47 40 48 46 46 37 32 33 32 36 34 39 27 26 27 24 22 29 37
25 28 30 29 40 47 35 37 43 35 42 41 42 41 40 38 39 38 38 32 31 30 28 29 28 28 30 33 38 41 47 41 40 41 40 38 39 33 36 37 38 33 26 28 24 26 21 22 34
20 25 29 30 32 44 36 34 36 39 38 42 37 40 39 40 41 43 45 39 35 33 32 28 29 29 29 29 38 39 40 42 43 42 40 39 41 38 39 39 39 33 26 32 25 25 21 32 29
19 25 28 27 30 32 35 38 35 43 38 39 41 36 40 41 41 44 48 49 41 42 41 34 30 27 27 29 32 34 41 36 42 39 45 44 41 43 42 44 45 39 34 35 36 31 29 28 30
20 25 28 29 28 28 29 36 45 36 32 37 34 40 40 35 37 41 45 45 46 41 43 43 38 27 25 28 28 29 33 36 40 47 47 48 44 51 51 49 52 51 44 47 44 36 36 33 34
15 19 24 31 29 27 27 30 29 34 32 30 34 31 37 43 35 37 39 42 45 41 39 36 37 34 29 27 28 34 33 37 41 45 53 51 53 54 52 57 57 50 52 55 56 48 38 39 35
13 17 21 24 25 25 24 25 29 35 35 31 31 29 30 40 35 37 36 38 40 38 32 33 37 33 30 31 32 34 40 39 43 48 48 56 52 54 51 52 49 53 56 55 56 57 55 43 35
10 14 21 24 28 27 23 23 25 28 28 28 30 29 32 37 34 36 34 36 39 39 33 31 32 32 30 34 35 37 41 44 44 50 51 52 58 52 52 51 52 54 58 61 51 57 61 59 50
10 10 20 23 23 24 26 24 21 27 34 29 29 27 29 36 35 34 34 34 39 40 37 32 35 35 31 30 35 36 40 42 43 43 46 48 50 49 46 42 49 49 64 72 67 60 61 69 63
14 12 15 24 27 23 23 22 24 24 26 28 28 28 31 34 32 30 33 35 36 37 38 37 33 34 30 32 33 36 38 42 43 45 45 46 44 47 46 47 51 55 56 62 60 62 60 66 64

GFSSGP_prec_cthk_006.txt.gz
RH
61 72 85 84 86 82 82 72 75 84 75 74 74 76 80 82 80 85 88 87 86 85 81 75 71 70 65 61 57 51 45 44 43 40 38 37 34 33 35 36 37 40 42 44 47 46 46 53 62
59 76 91 93 88 85 81 74 74 70 72 68 77 75 77 83 76 75 83 82 80 78 74 70 65 60 58 59 57 51 44 43 40 38 37 36 36 35 38 40 41 43 44 44 46 47 46 51 59
60 77 79 87 72 81 86 87 71 64 74 82 74 82 75 76 74 72 74 74 72 71 69 68 67 64 59 58 54 49 44 42 40 40 40 39 41 43 44 46 45 44 45 46 45 46 48 51 57
65 82 87 78 55 73 69 67 61 60 68 65 69 77 77 73 71 68 72 75 75 74 70 69 67 63 56 55 53 49 44 42 42 42 40 39 41 44 46 47 49 50 54 56 53 51 48 52 54
76 75 69 53 46 62 58 57 64 62 66 63 63 67 70 73 69 68 68 66 65 71 66 66 61 56 54 52 49 48 45 43 43 41 40 42 47 50 52 52 56 58 62 63 59 55 50 51 58
92 77 65 38 34 41 50 50 58 69 60 70 63 66 73 69 66 64 62 61 64 60 60 59 58 54 52 48 45 45 44 45 45 46 45 44 47 52 54 55 57 65 70 70 64 61 60 54 58
63 66 51 46 35 35 39 47 60 49 56 66 62 68 72 65 62 60 58 62 61 57 54 53 52 50 47 45 45 44 45 46 45 45 45 46 50 55 54 52 53 58 68 70 64 58 63 62 60
55 63 58 52 39 33 30 45 57 45 70 59 64 59 62 60 57 57 56 56 62 56 52 52 49 46 44 44 44 44 43 42 43 44 46 49 53 56 55 55 53 54 56 60 57 55 57 64 67
56 52 54 53 44 37 29 34 42 53 48 55 74 57 57 57 55 60 57 56 55 53 49 50 49 46 48 44 44 42 41 41 41 42 44 50 58 57 58 57 53 53 48 44 42 39 44 49 56
52 53 54 58 43 44 34 34 31 35 39 54 50 56 54 61 55 56 52 51 59 50 51 56 55 46 45 48 44 41 39 39 40 40 41 48 76 58 57 59 54 51 48 51 44 40 45 44 43
46 52 49 46 41 48 45 35 30 38 36 42 54 53 52 58 51 49 49 47 48 53 52 51 47 45 50 49 42 40 42 44 42 44 44 46 56 69 71 73 66 72 62 81 45 44 57 45 44
40 40 43 51 41 46 41 40 36 38 47 38 44 44 48 54 55 49 47 45 51 50 46 51 45 43 48 43 42 42 47 45 48 45 42 45 53 53 87 84 68 64 61 54 55 42 46 45 41
33 40 42 39 35 40 47 40 39 37 45 38 38 40 43 49 51 46 42 44 47 45 49 42 42 41 45 45 44 48 51 49 53 47 42 47 52 55 72 55 58 52 54 46 45 44 43 39 38
31 32 34 33 34 32 48 44 36 36 35 37 33 34 36 42 43 43 40 43 46 44 44 40 38 38 43 41 41 46 42 53 43 51 43 41 49 52 68 55 50 47 46 42 44 40 45 41 40
31 31 31 30 31 38 39 48 34 35 30 36 31 31 32 37 40 40 40 42 44 43 42 41 41 36 34 36 37 35 45 40 41 40 45 42 45 40 45 50 47 49 45 47 49 51 45 53 39
26 29 31 31 34 31 29 45 26 37 32 33 33 29 31 31 35 35 36 37 38 38 37 37 38 34 32 37 40 35 34 44 41 38 50 55 42 39 43 43 54 68 51 49 58 47 43 45 33
25 29 29 30 38 36 25 50 49 43 35 32 36 31 28 30 33 31 31 32 33 34 33 31 32 36 31 33 35 36 35 45 54 52 47 73 75 51 44 45 48 58 45 42 48 51 51 32 21
24 29 28 28 31 33 37 41 43 44 46 37 33 33 29 28 25 26 28 30 32 32 29 28 28 33 32 31 37 44 39 48 47 51 59 51 48 44 55 49 48 42 41 49 46 49 30 19 26
24 29 26 30 39 38 41 49 41 46 46 39 33 33 32 30 27 28 28 29 31 32 30 28 28 30 32 32 35 41 46 44 42 36 39 45 47 41 46 42 49 45 36 43 40 26 15 26 29
23 29 28 29 34 42 38 44 38 53 48 39 32 29 30 28 29 28 28 28 29 29 26 26 27 29 30 30 34 35 34 35 37 41 42 35 45 35 41 34 38 43 47 37 27 22 16 29 31
21 27 28 28 33 35 34 36 42 51 45 39 32 31 27 27 28 30 28 26 27 27 24 24 25 27 27 28 31 37 52 49 52 42 45 36 39 31 41 37 35 35 39 28 24 23 18 27 32
21 22 26 27 34 37 35 37 42 44 50 39 30 31 31 28 31 33 33 32 29 28 23 24 25 26 26 28 34 31 34 42 43 38 42 31 30 30 29 27 33 37 28 26 25 21 19 22 35
19 23 24 26 30 40 43 42 42 41 47 48 39 30 32 34 33 34 36 37 34 30 26 23 24 26 25 25 30 39 43 38 34 31 33 36 34 31 36 34 35 31 28 31 33 31 23 26 30
17 24 23 24 27 33 35 41 31 43 35 41 48 47 35 33 35 36 38 41 42 38 40 32 28 26 27 26 30 35 44 38 40 43 37 34 33 35 33 37 40 41 37 40 41 41 37 35 30
13 21 25 25 26 27 28 39 33 38 41 35 43 52 47 33 37 36 37 38 42 46 43 43 39 34 27 27 28 29 35 31 38 40 36 37 35 35 42 46 50 56 52 54 52 53 55 48 41
11 17 21 28 26 26 23 26 30 38 39 38 43 50 45 39 41 38 37 35 39 44 46 44 40 36 36 32 28 30 30 30 31 34 32 37 40 47 54 55 53 56 53 51 53 56 55 50 56
10 14 14 22 22 24 23 23 23 24 34 35 37 38 36 40 46 41 39 34 39 41 43 39 36 37 35 34 32 31 31 31 28 32 35 43 49 53 54 51 49 49 53 52 56 59 62 63 56
8 11 15 19 26 26 22 23 26 25 27 37 37 34 33 30 37 43 38 34 37 39 43 40 38 35 37 32 29 35 33 33 29 29 39 44 53 53 52 53 49 50 49 49 51 54 55 58 59
12 10 12 16 18 23 25 24 23 24 26 28 31 28 30 28 36 40 35 32 35 39 41 41 39 38 38 36 29 30 31 28 28 32 39 41 49 54 54 51 47 47 48 49 49 48 48 50 52
13 10 9 14 19 18 21 22 21 23 25 28 29 27 23 21 31 36 37 31 31 35 39 40 41 39 38 37 29 26 24 25 28 33 35 40 47 49 51 53 50 47 49 48 50 51 51 52 51

GFSSGP_prec_cthk_009.txt.gz
RH
70 78 81 84 84 87 85 83 79 76 74 69 71 74 79 80 77 87 85 79 80 82 78 74 71 65 58 56 51 47 43 40 38 36 35 32 32 34 33 34 36 39 42 45 43 43 48 55 58
71 79 84 79 80 87 91 78 71 73 74 72 71 73 76 80 76 80 79 75 73 70 67 66 63 58 55 50 45 40 39 37 35 35 34 33 34 36 38 39 40 42 42 45 44 44 47 53 57
76 90 90 94 80 77 84 75 70 71 68 70 69 70 73 74 76 75 72 70 67 64 63 60 56 55 54 47 41 38 37 36 37 37 37 38 39 42 44 44 43 46 48 46 46 47 48 48 55
80 96 79 90 64 61 64 75 84 71 68 69 72 71 71 71 68 68 69 67 64 62 60 59 55 53 51 47 42 38 38 38 38 38 38 40 44 47 49 52 53 57 57 55 52 46 48 54 56
83 79 80 84 61 57 53 65 87 71 71 67 65 72 69 70 66 67 65 67 63 63 63 62 56 52 50 47 43 39 38 38 40 41 43 45 48 51 53 57 61 64 67 60 58 53 50 56 59
63 69 79 63 60 55 64 57 60 64 61 62 63 64 67 66 67 66 63 64 62 61 60 56 55 51 49 45 43 40 41 43 46 47 47 46 50 54 56 57 64 71 75 70 61 62 58 54 55
62 67 67 53 53 51 46 51 74 66 51 58 56 62 67 64 63 59 58 58 58 56 56 53 49 49 46 43 42 44 45 46 48 47 46 48 55 56 53 55 58 63 67 65 59 58 65 64 64
61 67 64 55 55 44 47 48 49 65 59 60 58 56 56 58 58 55 56 57 52 52 52 49 46 43 42 43 43 44 43 45 47 47 48 52 56 58 62 54 54 54 53 52 48 52 58 62 63
54 65 75 59 49 44 50 50 57 54 58 56 62 57 49 48 50 50 53 53 52 48 47 46 43 41 41 41 40 40 40 42 42 43 48 54 53 53 61 59 53 48 43 42 39 38 42 41 43
48 60 61 56 49 46 47 49 43 47 49 53 58 58 57 51 51 50 49 53 52 45 46 46 42 41 40 39 38 38 38 38 38 38 43 55 55 59 64 60 60 59 48 50 47 47 58 49 41
50 53 52 50 47 47 46 45 36 37 48 46 40 48 52 47 50 48 48 43 42 47 45 45 40 42 41 39 39 39 38 39 39 39 46 42 66 68 64 62 60 73 64 58 59 59 41 43 41
47 47 46 50 47 45 46 45 40 34 41 47 46 39 45 49 43 41 42 43 43 41 43 47 41 41 42 42 41 39 40 42 43 44 42 45 60 63 66 60 64 58 53 47 59 45 41 39 38
40 40 42 45 50 43 45 47 47 40 39 44 46 44 44 45 43 41 35 38 39 41 46 45 42 40 42 39 39 39 41 41 45 49 50 44 46 63 60 58 56 50 49 48 46 45 44 40 38
32 35 36 38 43 40 41 47 49 46 41 39 37 38 44 43 44 42 36 36 43 41 38 40 42 37 36 39 39 43 45 50 45 55 51 51 46 42 66 60 53 50 44 54 44 47 46 41 38
30 34 33 34 34 37 45 53 50 47 34 36 35 33 38 46 42 40 35 37 38 39 37 38 35 34 35 36 35 35 42 40 44 40 47 50 50 47 45 49 52 65 51 46 45 47 41 38 36
28 29 32 33 30 33 37 43 51 42 36 34 37 29 33 38 42 39 36 37 38 36 35 34 34 31 30 33 33 34 34 33 36 39 37 41 43 42 43 51 51 58 56 44 42 40 42 39 31
26 26 27 30 32 36 37 38 39 49 47 36 33 29 29 36 38 40 36 39 35 33 32 29 29 27 26 28 30 31 32 39 41 46 42 56 63 58 51 47 50 48 46 43 45 41 42 35 17
24 22 25 30 31 34 40 38 36 41 39 40 30 30 26 30 31 30 30 32 31 31 31 27 25 24 29 29 30 35 38 40 38 40 41 53 52 46 44 48 47 48 46 40 37 34 27 16 22
23 22 25 28 30 36 41 42 43 40 38 36 30 33 28 23 25 30 29 29 30 30 28 26 26 23 28 27 27 34 35 38 41 37 37 35 42 45 38 40 40 42 42 35 34 29 17 22 25
22 21 25 28 31 35 42 42 41 39 32 33 32 32 28 26 24 24 27 27 27 26 25 26 25 26 27 28 28 32 29 32 33 34 31 35 34 37 34 33 33 34 36 33 29 22 17 24 27
23 20 25 30 35 36 45 49 44 44 43 48 40 38 30 22 24 23 22 24 24 24 22 23 23 24 25 27 28 32 34 39 39 35 32 46 37 36 32 35 30 30 32 34 32 24 21 25 30
21 21 24 30 33 39 41 49 52 48 50 53 49 46 32 25 22 26 26 25 23 22 20 21 22 23 24 26 26 29 29 31 36 41 31 40 31 29 27 26 28 32 34 38 34 36 32 34 38
15 22 25 28 30 36 38 46 41 49 49 44 49 50 39 31 28 26 27 28 28 28 23 20 20 22 22 25 25 27 31 31 35 36 31 29 30 33 31 27 37 42 46 45 44 47 44 47 47
12 18 22 26 28 32 35 38 44 48 49 50 48 50 46 41 34 30 32 34 37 36 35 30 24 24 23 23 23 23 27 31 33 33 31 32 33 34 32 39 44 46 48 47 48 51 50 52 53
10 15 21 27 30 30 29 36 38 35 41 39 42 50 47 47 41 35 36 37 35 36 40 38 34 29 30 26 23 22 26 29 25 25 27 31 33 40 42 42 43 47 54 47 46 49 50 50 56
11 12 17 25 25 25 23 29 28 29 32 35 42 50 47 51 44 43 39 38 36 37 39 42 41 37 34 33 30 26 23 23 25 29 32 34 39 45 47 46 47 49 51 43 43 45 46 44 47
10 11 12 17 22 25 20 22 23 25 27 33 38 44 41 43 47 52 44 44 38 34 37 41 40 36 34 32 29 30 29 26 30 27 33 37 44 45 45 47 49 52 50 48 44 48 53 52 46
10 10 14 14 19 22 18 22 21 26 27 30 33 37 38 38 44 46 49 45 35 32 35 38 37 35 34 35 29 25 23 32 33 28 33 39 44 45 47 48 47 50 51 51 47 50 56 56 53
12 11 12 13 14 19 25 19 19 24 26 31 31 30 33 32 31 36 41 41 33 33 35 36 37 37 37 34 30 24 23 29 31 28 33 40 43 47 48 47 47 49 53 49 46 47 55 53 54
13 12 11 14 15 18 18 16 15 21 24 27 27 29 30 30 33 35 39 42 34 33 33 34 35 37 37 34 32 23 23 25 26 29 32 34 39 43 45 49 49 52 52 48 47 49 53 52 54

GFSSGP_prec_cthk_012.txt.gz
RH
80 84 85 91 92 92 85 83 80 75 72 75 74 75 82 81 75 79 78 80 82 84 83 82 76 69 62 56 48 42 40 38 36 35 32 33 33 34 35 38 40 42 44 42 43 48 55 58 63
83 91 90 80 89 88 85 80 75 76 76 74 75 77 77 78 77 73 72 73 76 74 72 70 66 59 53 46 42 39 37 36 36 33 32 34 38 40 40 41 41 42 45 47 46 48 50 55 61
83 87 87 91 85 86 80 74 73 71 75 72 73 76 75 76 72 67 67 68 68 66 66 62 57 53 48 42 39 38 36 37 36 36 38 40 42 43 46 46 50 50 48 48 48 49 50 57 60
72 77 81 90 76 77 80 78 73 68 70 70 73 75 73 74 71 66 64 61 61 61 58 54 51 49 41 39 39 38 39 38 37 37 40 42 46 47 51 55 58 60 57 52 48 51 57 59 60
74 80 80 81 69 71 73 66 68 74 70 68 68 73 72 72 68 65 60 57 58 58 57 52 50 47 42 39 38 39 39 39 40 42 43 46 48 52 57 61 67 70 64 60 57 54 56 57 60
74 77 80 74 69 67 68 60 72 67 61 63 69 68 69 66 65 62 60 58 56 55 55 50 49 49 46 41 39 40 41 42 44 45 45 48 52 54 58 60 68 70 66 61 62 62 57 58 60
70 68 66 66 70 70 66 60 67 68 56 60 61 64 65 65 62 57 59 60 59 58 54 51 49 50 46 44 42 42 42 45 46 46 46 51 53 55 56 56 55 58 57 55 59 60 62 65 67
70 63 56 59 62 62 64 63 56 49 57 54 53 57 59 59 58 56 57 58 56 54 52 49 49 47 45 45 44 42 44 46 46 47 46 50 54 57 53 47 47 47 46 46 45 45 44 47 51
71 63 55 54 54 60 66 59 55 46 50 50 54 48 49 50 51 51 53 54 50 51 49 46 46 44 44 44 44 42 41 42 43 44 45 53 58 56 55 51 44 42 41 40 41 42 46 39 44
67 61 57 53 53 57 56 55 50 46 42 40 50 49 48 47 47 48 48 47 45 45 46 45 43 42 41 41 39 36 35 34 36 40 49 59 58 57 59 54 54 53 48 52 52 50 44 38 38
48 52 53 55 51 53 50 54 53 47 42 33 36 41 48 46 47 48 45 41 39 39 44 40 40 40 39 37 35 33 34 32 33 37 51 61 64 61 64 58 61 59 52 49 51 45 40 36 33
47 46 50 55 51 53 54 48 57 42 36 39 32 32 43 42 44 42 41 41 39 37 39 39 40 39 37 37 36 34 35 34 34 36 45 54 57 57 60 54 52 46 45 45 44 44 42 37 37
41 44 46 49 51 50 51 49 47 49 39 44 41 37 38 40 40 38 36 36 36 37 40 38 36 38 37 38 39 34 37 41 45 43 46 45 53 54 57 51 46 42 41 38 42 44 44 40 35
39 38 39 41 49 50 50 51 42 54 42 44 42 31 35 42 39 39 35 34 37 36 37 38 36 34 37 38 38 37 40 39 39 45 47 46 43 49 52 53 49 47 47 45 48 44 45 42 42
34 34 32 35 37 45 51 46 45 49 43 46 40 36 31 37 41 37 32 31 34 34 33 36 35 36 37 36 37 39 37 42 39 42 40 53 38 42 44 47 48 53 63 53 43 44 44 44 41
31 31 29 30 33 42 47 47 48 46 52 57 43 37 27 32 37 37 33 31 33 33 35 35 36 37 34 32 33 37 38 34 37 34 36 40 38 43 46 44 47 48 46 49 46 45 41 42 38
30 28 27 28 32 43 39 46 48 47 47 52 54 41 27 28 35 35 33 32 32 32 36 36 35 34 31 31 33 34 38 42 40 40 39 42 54 57 56 48 49 50 49 47 43 40 35 34 26
29 28 27 29 30 35 39 40 45 51 50 48 49 45 36 23 25 30 32 32 31 30 33 33 33 31 30 31 34 34 37 45 40 36 38 42 54 50 46 43 44 43 43 40 36 39 32 21 22
29 28 27 28 31 34 36 39 43 48 51 52 47 42 34 28 21 26 30 32 30 31 31 30 29 28 29 28 31 34 38 37 38 38 35 37 43 51 48 45 38 39 36 33 31 33 25 22 28
25 26 25 27 29 32 43 40 43 46 47 46 44 46 34 32 22 22 27 28 27 27 29 29 27 27 27 26 28 29 29 29 29 32 33 35 39 38 39 36 32 32 32 31 33 37 27 30 30
20 23 24 25 29 34 41 46 46 46 49 48 47 43 33 31 29 20 23 25 25 24 24 24 24 25 25 26 28 31 33 29 32 34 34 32 35 38 35 33 32 28 32 38 41 41 36 41 42
17 19 24 29 30 38 47 52 50 50 48 48 46 41 34 31 31 25 21 20 22 20 21 23 23 23 23 23 24 25 28 33 33 33 38 34 46 37 32 30 29 36 40 48 50 48 47 49 53
12 21 25 30 31 35 35 46 43 47 47 47 45 43 47 31 31 32 27 28 27 24 24 23 23 22 22 22 22 22 25 24 25 33 36 35 38 32 31 33 38 42 47 45 44 44 44 47 58
10 17 25 29 32 37 34 37 41 44 42 43 44 41 44 44 37 37 32 34 36 34 32 30 26 25 24 23 22 20 20 23 28 31 36 36 31 31 31 38 38 45 50 46 43 43 45 42 55
11 13 21 26 32 31 30 35 31 35 35 39 42 41 42 46 44 43 39 37 37 35 36 37 38 37 30 28 24 20 18 20 25 30 32 30 28 33 37 42 44 44 45 44 44 46 50 47 46
12 12 14 22 26 27 27 31 24 26 31 37 37 40 41 41 43 44 42 36 37 37 38 38 40 40 39 32 28 25 21 19 22 26 29 29 28 36 42 46 49 46 44 47 44 47 49 48 50
11 14 11 15 18 26 22 25 19 23 30 33 34 40 38 39 40 40 43 40 38 38 37 38 41 42 40 33 30 28 25 24 23 28 27 26 32 42 45 48 48 46 45 47 47 47 51 49 49
12 11 13 14 15 17 18 22 18 18 24 28 29 30 35 35 39 37 38 37 35 38 39 37 40 40 39 33 28 25 22 23 27 31 29 31 36 42 48 49 47 46 48 52 50 47 49 50 50
13 12 13 13 13 13 18 12 11 14 23 26 28 28 32 34 37 38 38 37 38 38 36 38 39 39 38 35 32 27 23 23 27 30 31 30 36 41 45 47 47 49 51 54 53 48 49 51 53
14 13 12 13 13 13 10 9 9 10 20 25 27 29 33 34 39 39 37 36 40 36 36 37 36 38 38 36 35 32 24 20 26 29 29 32 37 39 43 44 46 48 52 51 53 55 49 47 48

GFSSGP_prec_cthk_015.txt.gz
RH
73 75 81 93 95 93 90 84 80 75 75 78 77 78 83 88 82 82 84 87 89 89 89 86 80 76 65 56 48 44 42 39 36 32 34 34 35 37 40 42 45 46 43 45 49 54 58 61 64
73 78 77 81 88 93 87 82 78 77 77 77 79 80 82 84 81 78 83 82 84 82 81 77 72 65 53 48 44 41 38 36 32 31 34 37 40 41 43 43 45 46 47 45 45 47 54 60 65
72 72 79 83 87 88 83 76 75 75 78 75 79 80 79 81 76 74 75 76 73 72 71 67 61 53 46 41 39 38 36 34 32 36 40 42 44 46 47 49 50 48 44 45 48 49 55 63 71
74 72 78 87 77 70 69 70 67 70 75 75 77 79 77 76 72 70 73 68 64 63 61 57 52 45 41 39 38 37 36 36 36 38 41 45 46 51 55 59 60 54 50 48 50 52 56 66 69
72 75 85 76 70 61 60 66 67 64 67 72 72 76 77 72 68 69 67 62 59 56 53 51 47 41 39 38 39 38 38 38 40 41 44 48 52 55 61 68 70 65 64 58 55 52 55 61 65
73 78 82 78 60 63 60 63 73 61 61 67 71 70 75 68 64 60 59 57 56 54 51 48 45 39 38 38 38 40 40 41 43 43 46 51 53 55 57 62 65 61 56 57 58 61 65 67 68
77 72 73 68 66 64 59 55 55 58 60 65 67 70 70 66 62 59 56 55 54 53 48 47 45 40 37 38 40 41 42 44 45 46 49 52 54 55 52 51 50 49 49 49 50 55 59 63 62
78 71 65 61 62 62 59 56 52 52 60 56 60 61 62 62 56 54 56 55 53 52 49 47 46 42 40 39 39 41 42 44 45 46 47 50 53 52 47 47 44 41 39 39 39 40 45 47 53
76 71 64 57 56 55 58 59 56 49 48 51 54 55 55 57 52 55 56 57 55 53 50 47 44 43 43 41 39 41 42 43 43 43 47 51 53 52 52 50 46 46 41 42 43 47 49 46 45
72 68 57 53 51 56 60 62 62 56 43 41 54 47 49 52 49 51 52 54 51 50 46 46 44 43 43 41 39 38 38 41 41 44 50 53 58 61 63 56 55 51 49 49 52 53 46 39 39
62 60 52 50 51 54 57 59 61 54 48 37 39 41 46 46 44 46 48 48 44 47 46 43 42 41 39 36 35 34 33 35 39 46 52 59 65 61 61 54 58 56 52 47 51 43 43 40 34
45 49 53 52 52 58 55 55 59 54 38 34 34 33 42 44 43 42 44 43 41 44 42 41 39 37 36 34 32 31 30 31 34 43 52 52 60 58 56 55 52 49 47 45 42 40 46 42 37
51 48 45 46 47 50 58 52 54 56 44 38 36 32 35 40 41 40 39 39 37 39 40 38 36 34 34 33 32 32 32 32 34 39 46 51 52 54 55 51 48 45 45 44 46 46 47 40 40
45 46 43 41 44 49 57 55 54 52 50 50 39 38 34 36 37 37 36 35 36 34 36 35 33 35 33 33 33 32 32 36 40 41 42 45 50 53 51 54 56 54 60 51 47 44 44 44 43
39 41 41 39 40 46 53 54 49 52 57 59 51 38 31 36 37 34 32 32 32 35 35 32 29 30 32 33 34 33 33 36 39 43 48 45 47 47 54 52 51 53 54 48 48 47 43 43 43
36 37 37 35 34 37 40 47 51 53 55 57 59 42 31 33 35 32 32 31 31 32 33 32 31 31 31 31 33 30 32 35 36 38 41 43 42 45 49 51 49 49 47 47 48 45 40 38 42
35 33 34 34 30 32 33 43 49 53 54 53 49 48 45 30 37 34 32 31 29 30 32 33 33 33 32 32 30 31 32 32 35 38 43 41 49 53 59 53 49 46 43 40 38 36 36 32 29
30 30 33 33 29 33 40 42 52 54 52 52 50 48 46 31 27 28 30 30 30 31 33 35 34 32 32 30 29 31 37 40 39 39 40 45 52 57 55 45 42 42 37 34 33 31 32 30 23
30 30 32 31 30 30 34 42 51 54 56 56 53 51 44 34 21 28 29 28 29 33 34 32 31 31 31 33 32 34 37 42 40 38 35 37 41 48 50 48 43 36 32 32 33 35 38 28 32
26 29 30 30 31 29 32 36 44 50 50 50 48 50 46 38 29 23 26 28 24 24 26 28 26 30 30 29 31 31 34 33 35 35 36 36 38 42 40 39 37 30 32 38 40 45 48 40 46
21 24 29 30 32 31 35 38 42 52 53 54 54 51 42 38 33 28 20 21 20 22 21 21 22 26 29 29 29 30 33 30 30 32 35 36 37 38 37 35 33 32 38 48 54 55 51 44 53
18 20 28 30 33 34 34 46 42 48 55 50 53 49 44 38 32 27 28 19 16 14 17 20 23 25 28 30 30 27 28 29 30 31 34 39 37 36 38 33 35 42 49 48 50 50 47 46 53
12 19 26 30 32 32 31 37 38 43 49 49 49 47 54 47 36 29 24 26 22 15 16 18 20 21 25 27 27 27 27 29 33 31 33 38 34 37 39 33 41 46 47 48 51 50 45 41 49
10 16 22 31 34 35 28 34 32 40 41 43 42 42 46 50 46 37 29 31 33 33 29 24 24 24 25 24 24 24 24 25 27 30 33 34 33 35 32 38 44 48 50 49 49 47 45 43 45
11 14 23 26 34 25 27 33 25 32 33 35 38 39 41 45 47 48 39 39 39 34 33 32 29 28 28 28 25 22 22 24 25 28 29 32 33 29 29 39 47 46 46 48 50 49 47 47 46
13 13 21 22 26 24 25 29 21 26 28 36 38 39 41 41 42 46 47 42 41 38 35 34 34 35 35 34 31 27 27 24 24 24 28 28 29 29 32 41 47 50 48 49 49 48 48 47 46
13 15 11 16 19 22 22 21 19 23 26 30 34 37 38 39 40 42 44 45 41 37 35 38 39 37 37 37 39 37 31 27 25 23 22 26 29 32 35 41 47 50 49 47 50 47 47 48 49
12 11 13 16 19 20 16 17 18 19 23 26 31 31 34 34 37 39 41 43 42 38 35 37 39 38 38 37 38 36 32 29 26 26 23 28 28 33 37 42 48 50 49 46 49 50 47 47 49
13 13 14 15 15 14 15 12 11 14 20 23 29 28 29 30 31 34 38 40 41 42 39 37 39 40 39 39 38 39 33 27 26 27 25 27 27 33 37 42 46 49 50 48 51 52 52 49 47
10 11 14 16 15 14 12 11 9 7 12 19 21 26 24 25 27 29 37 40 41 41 38 36 37 39 40 37 39 36 36 30 25 27 26 25 28 32 36 43 46 50 53 52 51 52 56 57 48

GFSSGP_prec_cthk_018.txt.gz
RH
75 81 84 88 92 88 90 85 81 77 78 81 79 82 83 85 83 85 86 87 88 90 88 88 88 81 62 45 43 44 40 37 35 34 35 36 38 40 42 44 43 41 44 50 53 56 60 59 61
77 80 81 83 83 89 86 83 79 76 79 81 81 83 83 86 83 85 86 87 87 87 83 81 84 65 49 43 43 40 39 35 34 36 38 40 41 41 43 45 46 44 43 47 53 53 59 62 63
76 83 86 85 86 82 80 76 78 78 77 79 80 83 81 82 80 81 81 82 81 79 76 76 68 48 44 42 40 39 37 33 36 41 43 45 45 48 51 50 46 43 45 48 49 56 61 63 66
76 77 80 85 77 73 71 71 71 75 76 76 77 79 79 76 76 76 76 75 71 69 67 63 50 42 41 39 39 37 35 37 39 42 45 48 53 57 63 60 58 52 51 51 50 52 59 62 65
76 71 78 74 69 65 69 71 69 67 73 76 74 74 77 73 72 71 70 66 63 60 56 49 43 39 39 39 38 38 39 39 41 45 49 53 57 63 69 67 63 63 62 60 55 54 56 61 64
78 75 74 72 65 65 62 63 60 62 67 73 69 70 74 70 68 66 62 59 56 53 50 45 40 39 38 38 39 40 40 40 42 48 51 55 55 56 57 59 56 55 58 57 59 61 63 64 65
79 79 74 68 62 57 56 50 56 63 65 69 65 68 69 67 63 60 57 54 52 49 46 42 38 37 38 39 40 41 41 42 46 48 51 52 54 51 48 47 45 46 46 47 44 48 50 50 49
73 74 75 60 62 58 57 54 50 54 55 62 64 64 62 62 60 58 55 53 50 46 43 42 38 36 37 39 41 42 42 44 46 46 49 49 50 46 47 44 42 40 41 42 49 52 47 43 41
75 73 68 57 60 56 57 54 53 47 44 54 56 56 58 58 54 53 53 52 49 45 43 43 38 37 37 38 39 39 40 42 44 43 47 50 58 59 60 49 47 47 46 49 53 49 43 38 36
75 70 59 50 52 53 55 55 57 52 41 46 51 52 52 54 49 49 50 50 47 44 41 41 41 40 38 37 37 39 40 42 46 45 49 56 59 64 59 54 51 49 47 53 53 48 41 36 33
68 65 57 50 48 48 53 59 58 53 43 31 38 43 44 46 46 47 47 49 45 43 42 39 40 41 39 36 35 37 40 45 46 47 53 60 65 62 57 53 54 50 48 46 47 42 45 41 31
59 55 56 50 43 44 49 57 64 54 46 44 34 31 39 38 40 42 45 47 43 43 40 40 40 38 35 34 33 34 39 43 45 45 53 56 58 55 53 51 51 47 45 46 46 45 47 42 37
47 52 56 51 42 39 44 53 58 55 56 54 47 28 35 38 41 43 44 46 41 42 38 38 38 35 33 32 32 32 34 36 40 43 49 53 54 51 54 52 51 50 52 51 51 45 45 44 43
36 42 48 46 41 38 42 51 53 60 61 65 57 36 28 37 37 40 40 39 36 38 36 37 34 33 32 32 32 32 33 33 34 37 46 49 51 50 52 55 55 60 61 61 51 49 45 42 41
37 39 43 42 37 37 41 52 54 61 62 64 65 50 34 35 37 35 33 33 32 33 35 33 34 32 32 32 31 31 32 33 35 39 41 49 55 52 53 53 53 52 50 50 50 46 42 38 37
36 36 39 40 36 36 41 48 51 58 60 63 62 59 43 32 35 33 31 31 31 32 32 30 32 31 31 31 31 32 30 31 36 40 37 52 50 46 49 51 51 48 48 46 44 42 41 39 37
33 35 38 39 37 33 38 39 42 51 59 62 57 55 48 40 33 32 30 30 30 31 32 28 28 28 28 29 29 29 30 32 34 40 47 47 49 50 58 58 52 49 44 39 40 40 38 36 33
30 31 35 37 36 36 36 39 44 52 56 60 62 57 50 40 25 28 28 30 29 31 30 31 29 27 28 30 30 32 31 35 39 43 43 48 51 59 60 52 47 46 38 37 37 35 36 36 27
30 32 34 36 36 33 34 38 47 50 58 59 60 55 52 39 22 29 29 30 31 29 30 29 30 30 29 29 30 32 36 39 40 40 40 43 45 47 49 48 47 43 36 38 42 45 49 44 38
24 29 32 36 35 33 29 29 40 46 46 52 59 51 56 46 35 25 27 28 28 26 25 27 26 28 26 29 31 32 35 37 35 36 37 38 36 40 41 41 41 38 37 46 53 52 52 49 48
20 24 29 34 35 34 34 33 34 43 49 53 58 59 51 47 39 30 22 22 24 23 23 23 22 21 23 25 29 30 33 32 31 30 32 34 35 35 38 36 36 37 45 51 50 50 55 51 50
17 20 26 32 35 37 38 36 37 43 48 51 54 56 46 44 39 34 28 24 20 19 20 21 21 20 22 26 26 26 28 28 28 29 31 36 38 36 37 34 34 42 47 49 50 51 51 49 45
12 17 24 29 34 35 36 32 28 38 50 50 52 44 47 41 39 36 27 23 23 16 16 18 18 20 22 24 24 24 26 29 30 32 33 34 37 36 35 33 38 43 46 52 51 49 48 46 44
11 13 20 28 31 34 27 31 26 34 39 45 48 43 45 45 41 34 26 27 28 29 20 19 18 17 19 21 23 23 24 26 31 32 31 31 33 34 32 33 41 45 51 51 50 47 48 46 44
12 14 22 26 31 25 25 30 21 22 25 34 40 38 41 42 42 39 36 36 37 33 32 25 23 22 22 22 23 24 25 26 29 29 28 30 30 30 30 35 42 48 51 49 50 47 47 45 44
13 14 21 25 25 23 25 24 21 20 25 33 34 37 39 43 43 45 48 42 40 40 38 34 30 25 25 25 25 26 26 26 27 29 30 29 28 27 28 36 42 46 48 51 49 47 47 46 45
15 15 11 16 19 20 22 18 19 20 24 31 32 36 37 39 43 41 46 48 44 42 39 33 32 34 33 30 28 29 31 30 28 27 28 27 27 25 30 37 42 44 49 52 50 47 45 45 45
14 12 16 18 20 21 18 16 18 17 19 25 30 33 34 35 39 43 44 46 47 44 37 34 35 36 38 35 35 35 39 38 32 30 29 27 24 25 29 39 42 44 49 51 51 49 49 47 46
16 16 16 16 17 19 18 14 12 12 14 18 24 30 32 30 32 36 40 43 46 49 44 34 36 38 39 39 40 38 37 37 36 33 31 26 26 25 28 39 42 42 46 50 51 50 50 51 49
16 15 16 17 16 16 16 12 9 9 9 13 19 25 29 27 26 28 30 35 39 44 46 41 38 39 36 38 42 40 39 39 38 33 29 26 26 26 29 36 40 41 45 48 51 49 50 55 59

GFSSGP_prec_cthk_021.txt.gz
RH
76 80 86 92 92 90 85 80 78 76 76 77 78 80 80 81 81 82 88 92 93 93 94 92 88 71 49 44 44 39 35 35 33 34 36 39 42 43 43 42 43 48 49 50 56 60 60 63 65
77 80 84 87 88 85 81 79 77 76 79 80 80 81 81 87 83 84 87 89 90 89 84 85 81 53 40 41 38 34 34 34 36 39 40 42 42 44 45 45 44 45 48 56 55 59 62 65 69
77 82 84 89 78 75 75 76 78 79 80 79 80 81 81 81 82 82 83 86 87 82 78 80 64 41 37 38 35 33 34 37 41 43 45 46 51 53 49 46 44 50 54 52 56 61 64 69 73
76 82 83 85 74 70 69 71 76 79 81 81 79 80 79 80 78 79 79 79 78 74 72 66 45 38 37 37 34 34 36 39 42 47 52 57 63 66 63 62 53 55 52 50 53 59 64 68 71
75 76 78 76 68 68 67 67 70 74 78 80 77 76 78 77 74 73 71 71 69 67 62 50 42 38 38 37 36 37 38 40 48 51 57 62 68 69 65 65 61 60 57 55 58 60 64 70 71
71 70 69 64 60 62 61 60 66 66 76 75 71 74 76 73 71 70 65 62 62 59 54 44 39 39 39 37 38 39 40 44 49 53 59 58 58 57 57 54 55 55 55 59 63 63 63 60 54
69 67 64 60 54 57 58 53 57 61 71 70 67 70 72 71 69 63 58 55 54 54 49 44 38 38 38 38 40 40 41 46 49 53 55 54 52 48 45 43 42 42 44 45 46 47 43 46 46
74 72 64 58 58 58 59 55 54 50 59 64 63 65 66 66 61 58 54 53 50 51 46 42 38 36 38 39 40 41 43 47 49 51 48 51 49 46 44 39 40 45 46 48 48 46 43 41 39
72 74 63 56 59 55 59 57 48 43 51 57 58 60 60 61 57 56 53 51 46 47 43 42 39 36 38 40 41 42 43 44 45 44 52 59 58 54 49 45 48 53 51 51 49 47 43 38 32
72 69 59 53 48 44 51 55 55 45 41 54 52 54 57 58 53 52 51 48 44 43 41 41 38 36 36 37 38 39 41 44 45 44 52 60 64 58 52 48 46 49 47 49 48 46 43 39 33
69 64 54 49 48 45 47 54 59 50 44 37 45 48 51 55 52 50 50 47 41 39 38 37 36 36 34 35 37 38 43 44 47 50 55 61 65 60 52 51 48 43 43 43 44 44 45 41 33
62 58 53 47 44 45 44 48 54 56 48 45 34 43 48 48 48 45 46 46 40 38 36 37 38 36 33 34 35 39 42 46 49 50 51 56 56 52 49 46 46 45 47 48 44 43 46 43 37
55 53 50 46 40 39 41 40 45 55 54 50 45 34 44 45 45 44 45 47 40 39 37 36 36 35 33 33 35 39 42 44 45 44 47 51 52 51 53 50 53 56 58 55 46 47 48 42 40
46 43 42 45 42 39 44 40 45 50 55 56 53 40 35 41 43 43 43 41 39 41 37 38 36 34 33 32 33 35 38 40 40 41 44 49 49 49 52 57 56 59 54 52 51 46 41 38 36
37 37 35 43 44 41 42 45 50 48 51 57 59 53 37 37 41 41 38 36 35 37 37 36 35 34 33 33 33 34 33 33 33 36 46 50 50 51 54 52 52 51 52 51 52 44 43 38 33
32 31 31 41 42 42 38 37 49 54 54 56 59 59 47 36 37 40 39 35 33 33 34 34 35 32 31 31 32 32 32 33 34 33 40 45 50 49 48 49 52 50 47 50 48 46 45 39 39
27 28 32 40 40 38 37 38 41 46 50 52 57 57 51 39 36 37 35 32 30 30 31 31 33 32 31 31 31 30 30 31 35 36 38 42 46 49 52 56 54 48 44 43 44 43 38 37 37
22 27 32 39 38 33 38 38 40 47 49 49 56 56 53 41 32 32 34 33 29 30 30 28 29 29 29 29 28 27 28 28 29 36 40 48 48 57 63 57 48 49 41 39 43 47 46 45 35
22 28 33 40 38 35 35 36 42 45 46 50 52 59 54 48 32 30 32 31 31 30 29 26 25 26 25 24 23 24 26 29 31 35 41 48 47 49 55 49 49 47 39 46 53 53 49 49 40
18 25 29 38 35 33 32 30 33 39 46 49 50 58 57 52 42 32 28 28 28 27 27 25 26 23 22 21 23 27 32 35 35 37 37 40 40 41 47 47 45 41 44 50 51 52 53 52 44
13 17 26 32 35 32 33 29 33 36 41 45 52 48 58 51 43 33 27 26 26 25 24 23 23 22 23 26 29 30 31 34 33 32 33 35 37 38 39 41 41 38 48 50 49 52 52 53 43
10 13 22 31 35 35 32 29 35 34 40 38 47 44 47 48 40 32 28 25 24 20 21 21 22 22 21 22 24 25 27 29 28 29 31 32 35 36 38 40 38 41 48 49 50 49 50 49 46
9 11 17 26 32 34 32 31 28 36 39 39 42 44 42 43 44 35 28 24 19 20 19 19 19 21 20 21 21 22 23 27 30 29 30 32 35 38 37 38 37 44 47 50 50 48 48 47 45
12 13 16 23 29 29 27 29 23 29 32 36 40 41 38 41 38 38 34 30 26 25 20 19 19 20 20 21 22 22 23 25 30 29 30 31 32 33 34 35 38 44 46 50 49 48 47 47 45
13 13 17 19 22 22 24 28 21 24 28 29 34 34 37 40 40 38 33 29 27 27 21 17 18 18 18 20 21 21 22 23 24 29 34 31 31 29 29 31 36 42 46 50 50 48 45 45 44
13 13 13 17 15 18 22 19 18 20 25 29 32 35 34 38 40 37 37 34 33 32 31 30 22 18 20 20 21 21 22 23 23 25 28 28 30 28 28 29 34 42 45 49 50 49 46 44 45
15 15 10 12 15 15 14 14 14 17 20 23 26 35 32 31 31 35 38 35 34 34 38 38 35 30 26 23 22 23 25 26 23 22 23 26 30 30 27 29 35 43 42 46 48 48 45 44 43
14 13 15 14 15 15 12 14 11 14 15 21 28 32 33 30 28 39 42 42 38 37 39 39 37 35 37 36 32 27 27 29 30 30 27 26 27 29 28 27 33 41 42 45 46 48 46 44 44
17 17 14 14 12 11 11 9 10 10 12 17 25 29 33 34 33 34 40 44 47 50 44 40 37 36 38 39 38 38 34 33 35 36 35 31 29 31 29 26 31 40 40 44 45 48 49 48 47
18 16 16 16 18 12 11 9 8 8 9 10 17 26 32 34 35 36 36 38 44 47 50 43 39 36 36 38 41 39 40 39 38 37 36 35 29 28 31 28 29 38 41 42 44 47 48 46 47

GFSSGP_prec_cthk_024.txt.gz
RH
77 82 89 92 93 87 81 75 74 73 74 75 76 76 76 78 77 87 90 93 92 93 93 85 72 56 51 47 37 32 33 34 35 37 39 40 42 42 44 50 49 52 56 59 61 62 64 67 67
79 84 87 85 89 83 79 73 72 74 75 77 78 77 77 84 83 85 89 92 94 91 86 80 68 50 45 39 33 34 34 34 36 39 39 40 49 48 44 43 48 53 56 55 61 64 66 71 77
82 86 88 85 76 72 73 73 74 75 77 79 79 80 81 84 84 86 88 89 91 88 84 74 52 43 41 34 33 35 37 40 42 43 44 49 50 46 46 48 57 53 55 58 60 63 68 71 77
82 87 84 84 69 64 65 71 72 76 75 74 76 79 81 82 82 83 86 86 82 82 79 57 42 40 37 33 34 38 40 43 45 50 56 62 62 63 54 57 59 54 51 55 59 65 67 70 68
85 83 79 74 64 62 63 67 73 74 75 74 73 75 78 81 78 80 80 77 77 75 70 48 38 38 36 34 37 39 41 46 48 56 62 65 67 68 67 63 65 57 56 59 60 63 67 65 59
81 75 72 60 59 59 59 62 66 73 74 70 69 72 77 74 76 71 72 72 71 68 60 45 37 38 38 38 39 39 43 48 51 55 56 59 60 59 57 58 59 56 59 60 60 57 48 46 44
75 67 62 59 59 58 53 54 60 67 72 68 65 67 72 72 71 66 67 67 65 62 54 43 41 39 44 41 39 40 44 48 51 50 51 50 49 47 45 44 46 46 47 47 47 45 45 42 44
69 63 58 57 56 57 54 49 49 59 68 63 62 66 67 67 65 62 61 61 59 58 52 46 45 42 46 44 39 41 45 48 48 46 46 47 46 45 43 46 47 50 48 47 43 44 40 39 40
71 65 58 54 55 47 47 51 46 44 55 56 60 62 63 64 61 59 56 56 55 54 51 45 45 47 48 48 42 42 45 45 44 46 48 52 58 58 57 52 50 50 51 50 49 46 43 38 32
69 66 57 52 44 42 44 51 45 43 51 52 54 60 62 62 59 57 55 51 50 48 49 47 44 46 49 50 45 46 45 47 52 55 56 60 58 57 52 51 49 48 48 45 47 46 45 45 50
61 65 58 51 48 44 44 52 54 47 45 47 50 53 59 58 56 56 55 52 47 46 45 46 45 45 46 48 45 47 49 51 51 50 57 62 60 57 56 53 51 45 45 56 52 58 51 49 47
59 59 56 50 46 43 37 47 54 53 47 37 42 49 53 56 53 54 52 50 45 44 42 43 45 42 45 46 45 50 50 53 57 55 51 54 56 54 50 49 49 50 56 53 50 56 55 51 47
57 56 51 47 44 42 35 39 50 54 49 46 31 42 47 53 52 53 55 53 47 44 42 43 42 38 40 41 47 49 52 54 57 50 46 50 52 54 52 50 56 58 55 53 57 54 48 39 41
49 54 52 42 38 40 35 38 44 48 51 50 45 32 42 45 47 48 49 49 47 45 43 43 39 37 37 41 45 47 47 52 50 50 45 44 50 49 54 59 57 55 55 65 60 53 48 37 43
42 45 44 41 38 37 38 37 47 49 50 52 53 43 36 40 47 44 44 46 46 46 44 42 38 37 36 38 41 44 44 47 47 44 41 45 46 49 56 53 51 52 66 57 59 54 56 39 37
32 32 34 37 41 39 42 44 48 51 53 52 53 53 37 33 41 42 42 44 44 46 45 42 38 37 36 36 37 38 38 38 40 42 44 46 47 48 47 60 56 52 53 52 53 51 49 43 41
27 29 31 34 39 43 46 43 45 50 46 46 54 53 50 35 35 37 39 41 43 44 47 40 39 37 36 36 37 36 36 36 35 35 38 42 44 44 47 59 59 49 44 45 47 52 45 45 43
24 26 28 31 36 40 40 42 44 46 46 46 47 55 52 43 32 35 37 38 39 42 42 40 38 37 36 35 35 34 32 31 34 34 36 39 43 48 56 61 61 52 47 54 60 57 49 49 41
21 24 26 28 36 40 39 39 40 42 47 48 46 49 52 50 39 30 35 36 36 37 37 35 35 34 34 33 31 31 28 28 29 30 35 39 44 48 49 54 59 50 45 55 55 54 50 52 45
16 19 23 29 34 38 38 36 38 40 43 46 46 47 51 55 51 33 30 33 31 34 33 33 32 30 27 29 28 27 28 30 30 31 35 38 41 41 44 56 56 48 49 54 54 56 59 53 45
12 16 21 27 35 36 38 34 35 35 37 41 45 48 47 49 55 42 29 28 29 31 28 30 29 27 24 28 28 28 31 35 34 36 33 35 35 36 38 44 49 49 47 56 51 52 53 56 44
11 11 19 24 31 34 36 35 33 32 36 36 39 43 43 46 44 47 34 27 24 26 27 28 29 28 26 24 27 26 27 31 36 36 34 34 31 33 35 35 38 41 48 52 52 48 50 47 50
10 10 13 20 25 31 32 30 29 33 33 33 35 41 41 40 40 42 34 27 22 25 28 25 27 27 27 23 24 25 27 33 35 36 34 32 33 32 36 34 41 36 45 46 47 46 42 45 48
11 10 11 14 22 26 25 27 24 28 30 33 37 38 38 38 36 37 39 33 25 24 26 24 23 21 22 20 20 21 22 26 32 32 33 34 33 35 35 34 36 37 42 45 47 46 43 42 42
13 15 14 14 15 17 21 23 20 26 28 30 33 35 35 38 37 36 37 32 27 23 22 22 22 19 18 18 17 17 19 22 26 31 33 35 36 36 35 31 29 36 38 44 43 44 44 41 42
14 14 11 15 12 13 17 18 18 21 25 28 31 33 35 32 38 38 34 34 28 25 23 18 17 16 16 16 15 16 19 23 26 27 32 31 37 36 35 32 28 29 37 41 42 45 44 44 40
15 13 9 12 14 14 11 13 15 17 20 24 28 30 30 29 35 32 33 33 34 30 27 27 25 17 17 17 16 16 18 20 22 23 25 28 30 33 32 30 27 28 34 38 42 46 45 43 40
15 12 14 12 16 16 11 12 15 13 15 19 24 27 29 29 30 32 34 35 35 33 34 37 36 31 25 23 22 20 20 21 24 26 27 25 26 27 32 28 26 28 34 37 39 46 45 41 41
16 17 14 12 10 12 13 10 11 11 13 16 20 26 27 33 31 25 30 34 37 43 41 38 39 38 35 33 31 29 27 26 26 29 30 30 29 28 28 29 25 23 32 36 37 41 44 39 39
17 16 15 13 15 11 12 12 10 8 9 14 18 23 29 34 34 31 33 36 40 43 46 45 40 38 35 35 36 34 35 34 30 27 28 29 31 30 28 28 29 25 27 34 34 38 43 42 42

GFSSGP_prec_cthk_027.txt.gz
RH
75 86 91 92 92 88 90 81 75 70 71 72 73 80 82 79 82 93 89 88 84 84 78 67 59 51 44 36 28 29 33 34 36 38 41 42 45 45 51 54 57 58 59 62 65 64 66 66 67
78 89 91 90 91 97 75 72 73 73 71 71 72 72 73 83 79 86 92 92 87 84 76 68 54 46 39 31 28 30 32 33 36 38 43 45 47 46 47 52 53 55 57 60 63 66 70 75 78
84 88 89 82 91 77 69 78 74 70 71 75 72 75 80 81 83 86 90 91 87 77 76 62 50 42 32 30 29 32 34 37 37 40 50 49 49 48 50 53 53 58 58 59 62 65 67 70 70
85 84 81 83 81 61 70 73 70 71 72 72 72 73 76 80 83 84 87 88 83 82 71 46 42 36 30 31 36 37 39 42 45 49 60 53 55 49 51 56 52 50 55 59 63 64 65 63 60
78 78 81 80 73 60 64 67 71 72 70 69 71 72 76 78 80 81 85 81 81 74 61 43 41 34 31 36 38 39 42 45 54 60 62 67 66 61 62 61 52 54 56 57 59 61 55 47 43
79 82 82 71 55 57 60 65 67 73 70 67 72 71 75 75 78 77 76 75 76 69 51 43 39 33 32 37 39 40 45 49 55 58 61 62 62 60 58 56 54 56 55 54 51 44 45 42 41
74 84 82 70 59 57 56 61 67 67 65 65 65 69 71 75 72 71 70 73 69 65 52 43 40 36 36 37 38 41 47 47 48 48 48 48 47 46 46 45 45 45 45 45 44 40 41 41 38
66 72 67 63 69 61 53 52 55 61 64 59 61 64 66 71 66 66 67 68 67 59 50 45 42 42 43 39 37 42 46 44 44 45 45 44 45 43 43 45 46 45 45 43 42 41 34 31 25
58 77 65 53 57 57 51 47 50 56 56 57 61 60 63 66 64 61 62 63 63 58 50 47 45 47 47 43 40 42 43 41 41 43 48 54 70 59 65 47 46 45 43 42 41 38 39 38 40
56 76 78 55 48 52 48 61 42 49 51 53 57 61 63 62 59 58 58 58 57 57 52 51 48 50 50 50 42 46 45 47 49 56 46 91 61 58 56 47 45 42 42 44 47 44 60 64 64
57 71 74 48 47 44 53 60 49 45 50 51 52 56 59 59 57 56 57 56 55 53 53 49 51 50 51 53 44 47 50 58 60 54 58 58 61 55 68 52 52 46 62 48 69 58 51 39 42
55 62 68 53 45 44 50 61 64 51 54 46 48 52 57 56 55 55 54 55 52 52 56 49 51 49 49 52 49 49 55 60 63 57 50 53 62 52 55 59 57 63 57 67 60 60 53 57 35
51 56 56 54 47 45 39 45 68 57 45 34 41 46 53 57 56 56 56 57 55 49 51 51 47 46 48 50 50 55 57 58 63 60 47 52 64 52 55 55 65 58 56 85 58 51 40 32 63
52 55 55 50 45 41 36 36 43 59 49 45 26 40 46 55 56 55 55 53 51 49 47 50 47 43 44 46 50 52 56 61 57 55 51 41 56 51 61 64 64 57 64 66 57 53 70 44 46
48 52 53 50 39 38 37 39 44 57 47 49 44 30 40 45 52 52 53 54 51 48 48 49 45 44 44 46 48 49 53 54 55 52 45 42 43 45 63 57 52 59 61 53 54 53 70 51 43
38 45 51 43 39 37 35 42 47 50 51 48 50 46 34 39 46 48 50 52 52 50 46 45 44 43 41 45 46 48 49 50 51 50 44 41 45 48 45 65 57 66 50 53 53 53 48 52 50
28 33 38 44 40 38 37 41 55 50 55 56 54 53 46 37 42 45 47 48 50 48 46 46 45 44 39 41 41 41 41 41 46 47 44 41 43 45 46 60 64 50 68 54 54 58 56 55 50
27 25 32 35 37 41 41 42 49 52 55 58 55 54 53 45 35 38 41 43 48 45 46 47 45 44 39 40 38 39 40 40 38 38 41 38 37 42 46 61 62 49 68 53 58 57 52 50 47
26 30 29 32 34 35 41 45 43 46 51 56 58 49 50 50 45 38 37 41 42 44 43 44 42 40 40 39 38 37 35 36 37 36 35 37 37 40 47 62 66 50 52 52 53 54 52 57 50
20 26 29 29 32 35 39 42 39 43 47 52 57 51 51 52 47 42 33 37 37 39 40 39 38 38 37 38 37 36 36 36 32 32 33 36 39 42 53 58 54 55 52 54 50 51 59 52 47
14 19 24 28 31 32 38 39 40 38 43 52 54 54 50 45 47 41 35 31 35 36 37 34 33 35 34 36 36 34 33 33 33 33 34 35 38 42 41 52 51 50 45 61 57 48 52 60 41
10 11 19 27 29 31 33 38 38 36 37 46 46 52 47 47 50 48 41 31 31 34 34 33 31 28 29 29 32 31 30 32 34 35 36 36 33 37 37 36 43 43 44 57 56 46 51 50 49
11 13 12 18 26 31 32 36 32 36 35 37 40 45 48 43 48 44 39 37 28 30 33 31 30 27 27 25 28 29 28 29 33 38 37 32 32 30 35 36 45 39 38 49 51 50 40 45 53
13 14 14 14 17 24 26 31 32 31 33 35 39 42 45 42 41 43 41 37 30 27 31 32 31 26 26 25 22 25 24 27 32 34 39 34 33 32 30 35 34 35 37 44 46 44 42 43 47
14 13 14 13 13 16 18 21 24 29 30 33 36 38 41 41 40 40 39 37 31 24 23 25 27 23 22 23 21 19 20 21 27 30 32 37 37 34 34 30 37 33 31 42 43 45 43 39 42
14 12 13 14 12 12 14 19 18 25 30 30 34 37 44 43 39 41 35 35 33 24 19 21 23 21 21 20 20 16 16 20 21 22 26 29 32 35 38 31 31 31 33 35 40 44 41 41 41
16 13 10 13 13 12 12 13 17 23 26 28 31 34 38 43 41 32 36 37 34 26 21 18 15 15 15 15 15 15 12 14 18 20 21 27 27 33 34 32 28 29 29 34 37 39 41 42 41
18 13 14 13 17 16 14 16 16 17 20 23 26 29 32 36 41 31 38 34 32 31 24 21 19 17 11 13 12 12 12 13 18 22 23 23 27 26 35 29 28 26 25 29 35 39 41 42 43
16 19 15 13 11 16 19 15 14 19 19 20 23 26 30 32 38 31 33 36 35 35 33 28 28 28 29 23 18 15 16 18 19 22 25 26 26 28 28 30 26 26 24 23 32 36 40 41 41
18 16 18 15 16 12 14 15 15 15 15 17 19 23 26 31 36 35 35 34 39 36 38 36 36 36 34 33 30 27 25 22 21 20 22 24 27 29 32 32 30 28 26 25 28 33 36 40 41

GFSSGP_prec_cthk_030.txt.gz
RH
81 86 91 94 98 92 89 87 87 78 69 73 69 75 80 80 84 84 74 79 75 65 62 57 51 46 42 34 28 30 30 31 35 38 41 42 43 47 54 53 53 55 59 61 60 63 67 65 68
82 91 93 96 96 92 93 80 82 75 69 70 71 72 73 78 75 73 77 76 70 63 61 54 47 42 35 32 31 31 32 34 37 42 44 45 42 44 47 51 52 55 57 60 62 66 70 74 71
85 92 95 92 93 92 84 79 74 70 69 72 70 72 74 75 74 75 74 74 67 63 60 49 43 37 31 32 30 30 31 33 38 42 44 44 43 44 47 47 51 51 53 57 59 61 60 60 65
86 92 90 93 86 77 73 69 71 68 71 71 71 72 75 77 75 75 72 72 65 61 56 43 38 33 32 31 30 31 35 35 42 50 46 47 43 46 48 44 45 50 54 57 57 55 54 49 48
85 86 88 82 82 77 66 66 68 75 71 74 71 75 80 79 78 76 75 70 65 61 49 42 33 32 34 35 35 37 42 45 53 53 58 53 52 52 51 46 47 48 49 50 49 42 38 35 32
85 81 84 81 73 59 59 66 66 69 67 70 71 72 76 76 75 77 73 70 64 57 46 38 33 34 37 38 38 41 46 55 57 60 64 61 58 54 50 48 47 46 46 41 38 37 35 32 34
89 83 84 82 74 62 60 61 64 66 62 66 67 70 73 75 75 73 70 70 63 52 42 36 32 35 37 39 39 45 49 52 54 53 51 51 49 47 44 41 39 39 38 37 36 33 29 22 25
77 95 94 78 68 66 62 59 58 63 62 60 61 62 69 73 69 68 73 69 62 50 43 39 34 36 37 38 40 45 44 46 46 45 44 44 43 41 43 43 38 36 36 37 34 32 32 27 27
76 86 83 72 68 65 57 57 50 65 56 60 58 56 64 67 66 68 65 69 56 52 41 39 37 40 41 37 40 44 42 40 40 43 50 76 63 53 46 44 40 38 38 39 38 48 62 62 40
70 90 76 66 67 64 49 60 51 46 54 56 56 59 63 64 63 60 62 56 61 55 42 41 42 40 40 41 40 41 39 38 42 49 57 64 63 50 45 43 39 49 59 47 55 49 44 54 37
63 76 62 60 56 51 56 48 57 48 48 56 53 55 58 61 60 57 57 55 51 51 45 42 42 43 41 45 39 41 41 43 49 55 71 97 65 73 62 50 49 52 56 62 80 49 45 55 39
59 72 69 62 52 48 59 63 56 57 70 53 50 55 55 58 58 56 54 55 55 46 48 45 41 45 47 48 42 43 48 57 50 52 48 76 56 74 48 58 59 68 54 70 55 51 39 40 35
56 61 63 59 45 44 46 61 61 55 45 40 47 51 55 57 56 54 54 51 47 45 54 46 43 40 48 53 41 46 59 54 61 55 46 75 61 55 52 58 68 54 61 69 65 57 41 40 49
53 54 60 64 60 47 38 40 36 53 48 32 38 44 52 54 59 56 52 47 50 48 50 44 39 38 41 46 46 54 52 58 64 56 44 50 65 53 56 54 67 57 58 61 57 51 57 57 39
51 53 52 54 51 46 43 42 40 63 58 35 35 39 45 49 57 56 56 53 50 46 48 44 38 37 38 42 44 50 51 54 46 56 44 40 42 47 56 49 53 70 58 52 51 41 57 47 41
42 44 49 50 50 43 38 38 49 52 59 39 43 40 38 44 49 53 55 52 54 46 41 42 40 36 35 38 43 44 48 47 51 46 39 35 37 44 43 57 55 60 60 49 51 48 69 51 62
37 38 38 48 45 41 36 37 43 52 64 50 45 45 43 38 43 45 48 47 48 46 44 39 37 37 37 41 41 41 42 45 46 47 42 38 36 36 40 53 54 51 71 56 50 52 58 57 51
36 35 33 40 47 40 37 38 42 50 65 62 46 41 47 41 37 42 44 45 45 46 41 39 36 35 36 37 39 37 37 36 38 42 41 37 35 32 36 49 60 52 56 48 50 52 49 47 49
35 32 28 35 35 41 35 40 39 50 67 73 58 54 42 46 42 40 42 44 46 44 39 40 36 35 33 35 33 36 34 37 35 36 37 32 30 31 44 54 70 54 49 48 46 47 55 47 43
28 30 31 29 31 32 39 31 43 49 57 63 56 75 48 47 46 43 39 40 42 40 37 37 35 34 34 34 32 32 34 34 34 33 33 30 28 36 46 48 51 53 55 52 45 47 54 42 45
26 28 26 30 28 32 39 39 39 41 47 47 54 41 55 42 45 44 38 33 35 36 35 33 33 33 34 32 33 34 34 34 31 28 28 28 30 31 44 45 45 54 51 53 49 41 47 46 43
20 22 23 32 29 27 28 32 35 38 43 41 46 55 65 44 45 47 44 37 30 33 33 30 31 30 30 32 32 31 28 26 28 28 30 29 29 28 33 32 40 42 44 45 51 41 46 47 41
13 15 19 23 29 28 28 29 29 34 34 38 40 44 52 50 41 44 47 41 38 31 33 28 28 30 29 29 31 29 28 26 29 32 33 31 27 27 26 32 32 35 35 45 48 43 41 41 48
12 13 14 14 23 27 27 28 30 32 33 34 38 43 46 48 52 41 49 45 38 35 32 33 28 28 27 25 26 29 25 24 26 27 32 32 29 29 28 30 32 31 34 40 46 43 37 41 45
14 14 17 18 16 19 22 28 28 29 34 37 36 37 45 47 55 50 44 42 34 32 28 29 25 23 24 22 22 24 25 24 24 26 28 30 28 26 25 27 32 32 29 35 37 40 38 36 40
15 14 15 20 17 16 15 17 17 27 31 38 36 37 41 44 54 51 44 36 34 32 27 22 22 18 19 21 21 20 22 21 19 22 24 25 27 28 29 30 29 27 28 29 39 36 40 38 36
18 14 13 14 15 15 14 13 15 18 25 30 30 33 37 39 49 49 44 36 30 31 26 20 19 16 16 17 18 16 18 18 15 18 19 22 23 25 29 28 27 26 27 25 31 38 35 38 39
18 17 16 15 19 18 14 15 14 15 18 26 29 30 34 37 43 47 45 36 30 29 27 21 18 14 12 13 14 13 12 12 12 13 17 19 21 21 30 25 26 27 26 25 26 33 34 37 39
19 21 19 15 13 17 19 14 14 16 17 22 24 25 33 36 43 46 47 35 32 30 32 22 20 17 14 11 9 10 13 14 14 17 17 20 23 26 26 31 28 28 28 24 23 26 33 34 37
20 18 20 17 18 16 17 17 15 16 17 19 22 25 31 35 42 44 44 36 37 30 34 27 23 22 20 20 18 16 15 16 17 18 18 19 22 24 28 32 34 30 26 24 23 19 26 34 35

GFSSGP_prec_cthk_033.txt.gz
RH
82 87 91 96 98 96 91 82 87 83 80 76 74 76 82 78 75 77 71 72 66 56 52 51 47 41 43 32 31 31 33 34 35 37 38 40 46 52 50 51 53 55 55 55 59 62 64 65 60
82 91 95 99 96 95 91 88 89 77 74 71 70 75 72 75 78 73 73 69 59 54 51 47 42 40 39 33 31 31 33 35 37 39 37 38 42 50 51 51 52 54 54 57 59 63 63 63 55
81 92 95 98 96 94 87 85 75 78 73 68 68 71 70 73 72 73 70 61 55 51 46 43 39 37 35 34 32 33 34 36 40 40 40 41 44 46 48 49 48 50 53 55 55 54 52 54 47
84 94 95 97 91 83 76 75 72 67 68 69 68 70 67 69 70 70 66 59 52 48 43 38 36 34 34 31 32 33 34 39 43 43 40 41 45 45 45 45 49 52 53 50 45 41 35 39 46
85 89 92 95 90 83 75 75 76 74 70 71 68 69 69 70 68 66 65 58 50 46 41 36 33 33 33 28 34 36 38 45 47 46 45 44 48 48 47 47 47 46 43 42 38 35 34 35 47
90 87 87 85 80 86 75 67 68 67 69 71 71 68 75 70 67 67 61 58 50 45 39 34 32 32 32 33 39 42 49 50 54 57 54 54 52 47 47 45 46 47 42 39 35 30 29 38 45
87 85 92 88 92 76 65 64 68 69 69 68 66 72 74 72 67 63 59 57 51 42 37 32 31 35 36 37 43 48 54 54 54 54 51 47 47 44 42 42 43 40 37 35 32 24 21 28 46
89 82 84 78 77 86 86 66 57 62 81 63 63 66 66 69 64 59 59 56 46 39 34 30 34 36 37 39 45 46 48 48 45 43 40 38 39 40 40 38 35 34 34 33 35 47 39 33 39
82 94 92 82 74 73 74 65 66 61 66 60 59 57 62 64 61 59 59 57 45 37 31 29 35 36 37 41 42 40 43 42 39 44 52 51 49 43 42 37 37 37 40 39 43 54 53 44 40
78 86 89 78 76 65 76 78 61 57 55 59 58 60 62 60 62 61 55 56 43 35 31 28 33 35 35 39 40 40 39 39 42 62 66 61 43 43 39 37 66 62 50 67 47 39 45 38 41
73 78 71 66 72 72 67 65 71 68 54 47 51 55 60 59 61 60 53 45 43 37 33 31 31 34 35 38 38 38 40 44 59 62 61 50 62 50 47 44 53 49 61 60 43 34 41 37 42
69 70 65 58 57 63 68 66 66 62 60 47 42 50 55 56 56 55 50 47 44 41 35 33 34 34 36 35 35 40 43 44 52 65 66 53 53 39 65 58 63 58 68 60 51 49 35 47 43
57 61 64 51 57 55 54 50 53 65 60 47 42 47 50 53 53 53 50 49 44 40 36 34 36 36 39 38 41 42 45 48 50 46 63 58 48 44 57 60 66 62 58 62 52 58 59 47 42
53 58 59 60 55 64 56 45 47 54 54 43 36 44 46 48 47 50 49 44 42 40 39 37 39 37 37 40 39 45 53 52 52 47 45 47 66 51 59 63 65 59 49 47 44 53 48 44 34
53 61 58 64 62 56 61 61 54 54 64 55 36 39 44 45 46 45 45 44 39 38 42 38 39 38 35 45 40 47 52 56 54 58 46 44 46 50 60 59 63 65 53 46 45 55 55 54 45
52 52 58 53 54 52 57 61 56 52 54 59 46 41 42 44 44 45 44 38 43 41 40 39 38 38 36 36 42 46 47 48 46 44 45 42 41 46 60 62 58 52 70 44 48 61 61 58 51
46 50 46 47 49 53 45 46 53 59 59 66 60 50 44 45 46 45 45 44 41 42 37 37 37 37 37 37 38 42 43 45 50 48 44 43 38 40 48 59 62 56 57 48 54 57 58 52 48
38 44 40 41 42 51 46 39 53 61 63 64 75 67 56 43 43 43 42 45 45 44 39 33 34 37 36 34 35 37 38 39 44 49 45 41 37 34 46 56 73 58 52 49 53 55 53 50 43
36 39 34 34 38 50 40 38 49 65 61 57 61 72 74 49 40 44 45 44 44 43 38 34 30 31 35 36 32 29 28 30 34 40 37 33 31 35 46 49 58 63 48 49 49 47 45 42 45
31 37 36 35 32 45 42 43 55 56 54 54 55 69 70 53 47 40 40 38 39 38 35 34 30 25 27 29 28 25 26 29 30 33 32 30 31 40 42 46 53 57 54 49 45 47 42 40 47
24 30 31 33 30 35 38 40 56 56 52 54 56 69 69 57 51 43 41 34 32 34 33 31 31 26 25 26 28 28 29 28 30 30 27 27 30 35 38 38 45 48 54 47 46 42 42 39 44
24 23 28 29 36 37 32 42 44 53 52 51 52 59 49 56 50 46 42 43 32 29 30 30 30 28 26 26 27 26 23 23 22 23 24 26 29 33 28 31 39 40 47 43 46 37 42 39 44
24 22 24 27 34 36 34 38 35 43 49 52 52 53 50 57 52 51 46 41 36 30 30 30 29 28 27 25 25 25 22 23 23 25 27 28 28 27 25 29 32 35 35 39 44 42 38 42 40
26 28 26 25 31 34 30 33 33 33 36 43 49 49 55 54 48 52 45 50 39 33 30 30 29 27 26 24 23 23 22 22 25 29 29 29 27 27 27 25 29 32 30 34 42 41 35 39 43
27 27 25 23 27 25 26 30 27 30 29 32 44 50 51 47 47 49 47 40 42 33 30 26 27 26 25 23 21 20 20 22 22 22 26 28 26 25 27 29 28 30 28 29 35 38 36 36 39
19 16 18 22 20 20 20 20 21 25 29 34 34 42 49 52 42 40 46 43 40 31 26 23 23 23 22 21 19 18 21 21 22 21 20 23 25 24 25 27 29 25 29 27 29 33 35 34 33
20 16 14 17 18 20 15 12 16 18 25 29 35 42 49 48 46 43 43 45 40 32 25 21 19 21 21 20 19 19 18 18 17 16 18 20 21 23 24 28 28 28 28 28 24 30 33 35 34
21 21 17 16 22 22 17 14 11 10 15 24 27 37 42 46 43 42 42 46 39 31 24 22 18 19 19 20 18 16 13 13 14 15 15 16 17 22 23 23 25 26 27 26 25 24 30 35 34
21 24 20 16 20 24 25 18 13 14 14 20 24 30 35 38 43 39 43 46 46 31 25 23 19 17 18 17 15 13 12 11 14 16 17 19 21 22 24 24 27 27 29 30 28 22 25 31 34
25 21 21 19 18 17 18 19 19 18 15 15 23 23 34 37 41 38 39 45 48 31 25 25 19 14 13 14 14 14 13 14 16 18 18 19 18 21 24 25 30 31 30 29 27 22 18 25 31

GFSSGP_prec_cthk_036.txt.gz
RH
84 83 88 93 99 94 92 86 88 87 84 77 77 81 76 76 73 75 74 74 63 59 55 51 44 40 35 31 30 29 30 31 34 37 39 47 52 53 53 55 55 55 57 62 64 64 64 56 56
84 90 92 96 93 92 88 91 89 83 77 76 78 78 74 76 78 74 73 68 58 54 49 45 41 39 32 28 29 31 32 35 37 35 39 46 50 52 50 54 56 58 59 60 60 61 58 51 53
83 92 95 96 88 87 92 82 84 78 77 74 73 75 73 74 77 69 70 59 51 51 46 41 41 35 29 28 30 31 35 38 38 37 39 43 47 49 49 49 54 54 56 55 50 48 45 39 46
84 92 93 94 89 84 81 82 82 85 78 73 71 70 69 73 68 69 63 53 50 47 42 39 38 31 27 30 32 33 38 41 40 39 41 42 43 45 47 49 50 51 47 44 38 36 39 52 55
85 92 96 89 85 81 80 79 84 82 77 72 68 71 73 70 68 64 60 50 46 43 37 35 32 31 27 32 33 35 43 45 44 41 42 42 44 43 43 44 44 42 40 35 31 31 41 52 67
85 86 88 90 80 80 79 84 78 80 75 73 69 68 73 69 64 63 59 49 44 40 37 33 30 31 28 33 35 41 46 46 48 45 47 46 44 42 41 44 44 37 31 29 25 27 39 47 61
83 81 83 84 87 77 82 81 76 79 71 68 64 67 69 67 66 62 56 49 43 39 35 30 30 29 31 37 39 46 49 57 54 51 48 44 43 41 41 38 35 32 29 23 23 22 34 45 50
85 79 80 84 87 82 83 85 78 72 74 64 63 64 64 64 64 59 58 49 43 39 33 29 30 32 36 40 45 50 52 51 46 41 38 34 32 35 34 32 32 33 36 41 57 42 36 47 52
80 79 77 78 87 88 87 79 84 75 72 66 64 60 59 59 59 61 58 49 44 38 31 31 34 35 39 41 45 46 43 41 39 39 37 37 33 31 32 35 37 40 47 43 43 43 39 38 50
80 77 72 71 76 83 88 89 80 66 66 66 62 56 59 56 57 58 53 46 39 35 31 33 35 36 40 39 38 39 39 43 49 58 51 41 39 32 35 57 47 50 63 43 42 44 44 38 42
72 76 72 72 72 73 75 71 74 63 57 54 52 54 57 53 55 55 51 41 37 32 28 33 35 36 38 37 35 34 40 57 61 60 48 51 47 38 38 51 55 64 60 44 38 38 41 42 38
69 68 66 63 64 69 63 63 57 59 50 56 43 49 52 53 51 49 46 40 37 32 27 31 32 34 35 35 33 34 44 61 61 57 51 48 47 59 53 61 55 61 68 58 53 45 45 40 40
65 61 61 66 61 58 56 61 57 52 54 55 44 51 51 51 50 47 49 45 38 32 28 29 31 33 33 34 34 35 41 50 62 58 54 54 51 53 57 61 55 51 52 52 57 56 55 43 42
53 57 60 65 60 58 55 57 53 58 56 44 37 46 49 49 50 48 45 43 37 34 32 30 30 32 32 33 36 39 39 43 46 60 51 47 52 52 54 64 62 54 50 51 56 49 45 39 38
53 59 56 60 64 64 62 54 55 60 62 61 54 39 45 48 50 47 46 43 38 37 32 30 33 31 32 35 37 42 42 44 43 49 46 54 53 53 55 55 58 67 48 46 55 56 53 45 41
53 53 55 54 60 63 66 66 61 65 65 66 56 45 42 46 44 46 46 44 43 37 35 35 37 35 31 33 37 44 44 47 42 45 40 45 45 48 53 54 54 58 54 51 61 60 54 50 47
49 49 48 49 57 62 61 66 63 63 67 66 59 49 37 42 44 42 44 44 43 38 34 35 38 38 35 37 37 39 45 43 40 39 40 42 42 41 51 56 57 54 53 50 59 61 52 48 46
42 46 46 47 47 55 62 60 65 58 59 60 62 58 44 39 38 42 43 43 43 42 34 37 38 42 40 40 38 40 42 42 39 42 41 41 41 38 43 59 64 54 52 53 52 54 48 44 41
38 44 43 40 42 45 52 61 67 56 58 57 59 59 54 44 36 41 43 43 44 42 36 35 36 37 40 40 39 37 38 37 39 39 40 38 39 41 40 49 59 57 48 50 47 48 45 41 45
32 38 39 42 41 40 50 60 66 52 50 52 57 58 59 52 38 36 44 41 41 41 38 36 36 39 40 40 33 31 30 30 33 33 34 34 41 41 42 48 52 55 48 54 44 45 38 44 44
24 31 33 36 40 40 50 61 67 63 63 60 61 55 57 55 44 35 38 35 38 38 37 36 33 36 37 36 31 27 27 28 28 30 30 31 37 43 40 41 44 53 50 47 44 41 37 40 44
21 21 29 33 38 41 44 57 70 65 62 63 60 54 47 56 52 39 39 36 32 34 36 34 33 33 33 31 28 27 23 22 22 23 25 28 32 39 36 34 37 43 49 46 43 39 38 40 44
16 18 27 32 39 40 42 45 58 57 60 54 56 48 48 52 51 47 35 39 32 34 38 34 32 32 31 30 27 24 24 20 20 22 24 28 30 31 30 31 30 35 41 45 43 38 41 40 43
23 21 26 33 40 49 37 40 40 57 52 49 50 42 45 48 51 49 43 42 39 32 35 34 32 31 30 29 28 24 22 21 20 21 25 30 29 28 28 28 29 31 34 39 41 42 38 41 42
33 34 36 41 44 42 31 39 31 38 47 46 39 36 43 44 50 54 47 42 39 37 31 29 29 28 29 30 26 24 21 20 18 22 25 29 29 27 27 30 29 29 30 33 38 41 34 37 40
35 35 38 44 37 32 25 32 26 30 33 39 38 34 42 44 48 53 47 40 35 35 32 30 26 25 25 27 24 22 20 20 21 23 24 26 27 26 27 29 29 28 30 30 33 38 39 37 36
35 34 30 30 24 23 22 23 24 26 25 30 40 49 48 44 47 48 48 45 42 33 29 28 25 25 23 23 23 22 20 20 19 18 19 22 23 24 27 29 30 29 27 28 29 33 37 39 37
31 28 30 30 26 24 19 19 18 22 21 23 28 38 36 44 46 48 47 48 45 36 29 26 24 21 22 22 23 22 22 19 17 17 17 16 16 18 22 26 29 31 30 29 27 29 33 39 38
35 32 27 27 26 23 22 14 12 16 21 23 27 30 32 43 48 46 45 48 47 37 33 23 22 22 21 21 20 22 21 19 17 15 14 14 15 17 19 24 26 28 29 30 31 28 28 32 35
41 32 29 24 21 21 20 15 15 14 14 15 20 30 30 39 42 39 40 46 49 39 35 23 20 21 18 16 17 18 18 18 17 15 16 18 18 19 22 24 25 25 29 31 32 31 28 24 30

GFSSGP_prec_cthk_039.txt.gz
RH
83 81 88 95 98 94 91 86 88 85 93 85 81 82 81 83 82 82 81 75 72 66 63 53 48 41 37 35 33 34 33 33 37 42 50 54 54 53 53 52 53 55 60 61 64 65 56 55 57
83 89 96 99 97 94 89 90 87 83 85 83 86 82 81 84 84 80 77 72 63 60 54 50 42 38 34 31 29 32 34 35 38 42 47 51 54 51 54 54 55 57 60 66 67 57 45 53 58
88 95 97 99 93 90 90 87 92 84 82 82 79 79 80 83 82 78 74 63 57 54 49 43 40 35 30 28 31 33 37 35 37 42 51 56 51 51 50 53 52 55 53 47 45 36 36 49 57
87 94 96 97 92 86 82 86 82 78 79 77 77 77 80 80 77 73 68 57 52 48 42 41 38 32 27 29 32 35 37 38 42 43 44 48 49 48 49 50 52 45 41 35 36 40 49 63 66
86 95 98 95 92 84 83 85 86 84 81 78 74 78 78 80 73 69 61 52 47 43 40 38 35 28 29 31 33 38 41 39 43 42 42 44 43 43 44 44 42 39 34 28 32 47 57 66 64
86 87 90 88 81 83 81 87 85 82 83 79 77 76 78 75 71 64 56 50 47 41 37 35 33 27 32 31 36 43 43 42 42 45 47 45 43 42 43 42 36 31 27 26 31 43 50 66 68
83 84 84 80 82 82 85 79 88 87 83 78 73 74 74 72 70 60 53 49 44 38 34 32 31 28 31 33 41 43 47 47 49 52 50 50 45 43 38 34 30 27 24 33 27 39 45 57 57
82 79 77 78 81 83 83 83 80 83 80 72 68 69 68 68 67 58 52 46 42 37 32 29 28 28 33 37 43 48 54 53 51 49 47 39 35 35 32 32 32 35 43 41 42 40 50 60 67
79 82 81 78 80 81 81 81 81 81 75 70 66 60 61 65 63 55 52 44 41 36 31 29 28 33 36 43 47 52 51 45 40 35 32 34 33 32 33 36 45 51 39 43 42 43 43 49 62
80 80 73 72 76 79 78 82 77 79 73 70 62 57 61 63 61 55 50 43 38 34 30 30 31 37 38 44 47 45 42 39 41 39 40 38 36 43 53 45 50 59 43 41 45 43 38 42 50
79 80 74 71 73 73 71 78 65 65 63 57 57 57 60 61 59 54 49 41 35 31 28 32 33 39 38 41 40 42 43 51 58 46 42 38 35 38 55 59 66 63 50 49 43 51 43 36 36
72 75 78 74 73 72 71 71 70 71 59 52 48 52 56 54 55 51 47 39 35 29 28 33 33 38 36 36 40 49 57 61 54 47 52 52 55 58 66 56 58 65 53 59 55 51 47 38 33
64 73 75 74 74 68 65 66 62 63 61 50 41 50 51 53 53 51 46 40 34 27 29 31 32 35 35 34 36 47 59 64 58 50 49 53 56 61 67 62 52 51 49 52 57 56 46 41 40
63 72 71 69 64 64 63 63 57 57 62 60 43 45 46 49 48 49 44 39 33 26 27 30 31 32 33 33 35 42 52 68 59 53 52 53 56 62 66 66 62 53 48 53 56 51 45 40 36
58 67 62 60 58 56 61 61 57 62 68 63 52 40 46 50 48 47 44 37 32 26 24 29 30 30 32 34 37 39 43 51 58 56 48 56 59 59 58 59 65 58 48 58 55 55 51 43 40
46 59 58 56 59 61 59 62 62 60 65 62 58 48 40 45 42 45 47 44 34 28 25 27 28 28 31 34 37 40 44 46 46 49 51 54 53 55 61 55 54 58 53 58 64 56 50 46 43
41 49 53 57 57 60 60 64 65 60 66 61 60 55 40 42 44 42 44 44 37 29 26 29 27 26 30 33 36 41 44 46 43 42 43 46 50 53 56 57 54 54 56 59 61 56 47 47 43
36 45 48 52 54 58 61 61 64 59 62 63 62 58 56 51 37 38 43 43 41 32 32 29 29 30 32 33 35 39 44 45 43 39 41 45 48 48 56 60 59 51 53 59 58 49 43 40 40
32 39 46 49 58 58 59 56 59 57 61 65 63 62 62 54 45 38 38 39 39 40 34 30 33 34 37 38 38 38 38 42 42 40 39 42 48 47 48 53 56 53 47 48 49 51 43 41 41
30 34 41 43 54 50 50 52 55 58 51 56 56 59 63 63 58 38 35 34 36 38 31 30 33 36 37 40 39 39 38 40 41 38 37 38 46 44 49 49 53 53 48 48 45 47 40 43 45
23 32 36 38 54 50 54 54 48 59 62 67 61 63 65 63 57 44 31 30 34 35 31 29 30 33 36 37 38 39 38 36 36 33 34 37 44 41 44 46 48 51 46 46 44 42 39 43 45
19 21 32 39 52 54 51 64 64 61 61 63 62 62 63 64 62 55 34 28 29 30 34 32 32 32 37 38 37 35 32 28 27 28 32 33 39 37 40 41 40 48 49 45 44 41 40 43 48
17 18 27 36 47 54 49 48 59 59 66 62 59 59 59 59 61 58 41 26 24 31 31 32 34 36 39 40 35 34 30 25 24 25 27 32 33 34 34 35 36 41 45 47 45 40 41 43 47
20 21 23 33 44 50 44 49 44 54 52 56 54 54 52 55 59 60 52 34 27 28 30 32 31 32 37 35 34 31 29 24 21 21 21 26 28 28 29 31 33 34 42 44 44 44 41 44 44
28 28 36 38 53 40 31 46 33 36 36 44 46 49 45 50 55 58 52 40 31 28 28 31 30 30 32 34 33 32 28 26 22 20 19 23 26 26 26 28 31 31 37 41 42 44 43 42 47
36 35 42 45 42 39 31 37 32 27 29 34 38 43 47 50 52 54 51 43 33 30 26 28 29 29 29 30 31 31 29 26 23 21 21 22 25 27 28 29 30 32 33 38 40 40 44 39 42
46 39 35 33 26 31 30 27 26 26 27 31 37 41 47 48 52 55 54 42 38 32 28 26 25 27 26 26 30 30 28 26 22 22 23 24 26 27 28 29 30 32 33 33 38 38 39 41 38
47 45 44 40 38 32 28 25 27 24 24 26 31 32 38 46 49 55 55 50 44 34 31 28 27 26 25 25 27 28 26 25 23 24 23 22 23 25 26 27 30 31 31 32 32 35 37 38 39
47 49 42 41 35 32 24 19 18 20 22 24 25 25 29 38 45 50 52 48 48 44 34 33 30 30 31 27 24 25 24 24 24 22 20 20 20 21 21 23 27 29 29 30 30 31 36 38 37
48 50 48 42 37 31 29 18 12 14 19 25 25 24 24 28 35 43 48 47 48 45 34 33 28 27 30 27 23 22 23 24 23 19 18 17 19 21 19 21 22 25 27 30 31 32 32 34 36

GFSSGP_prec_cthk_042.txt.gz
RH
84 80 82 87 93 90 87 87 87 88 86 83 81 78 80 79 82 84 81 76 74 69 61 57 48 42 36 32 33 30 33 37 41 48 54 56 60 55 53 53 54 58 59 64 69 61 55 55 60
82 87 94 97 97 94 88 87 90 87 86 86 82 80 84 86 84 83 79 75 70 58 55 50 42 41 35 35 30 28 33 38 43 48 54 55 58 59 54 54 56 62 69 64 60 42 47 55 61
83 92 99 99 93 90 90 92 91 90 89 86 82 84 85 87 83 80 77 70 63 52 50 43 39 37 35 31 31 32 34 37 40 45 50 55 55 50 53 55 58 52 45 41 36 38 51 62 64
84 94 96 99 93 86 86 88 89 89 89 89 85 85 85 83 81 76 73 64 57 49 46 39 38 33 31 32 35 36 36 39 43 51 54 56 51 52 53 54 45 40 33 38 45 52 63 68 70
85 93 98 93 90 85 83 83 84 88 87 83 80 83 83 83 79 76 66 58 53 47 40 39 39 29 30 32 36 38 41 46 41 44 55 47 49 50 47 43 39 30 26 35 49 60 64 65 78
84 90 93 87 86 87 84 84 87 87 85 82 79 81 81 80 75 73 60 56 49 43 39 40 33 28 32 34 42 40 41 45 44 44 45 45 45 45 44 37 29 27 27 31 41 52 65 67 82
80 84 81 81 84 84 85 83 87 89 84 79 75 78 77 78 74 64 55 50 45 42 40 38 28 35 35 44 43 44 42 45 46 48 48 49 46 41 35 29 25 35 35 30 41 46 60 61 68
77 80 82 81 82 86 81 82 89 85 81 76 70 70 70 72 70 62 52 48 41 40 40 31 27 32 34 44 46 49 49 50 50 53 48 37 38 44 34 31 36 36 35 38 45 51 62 61 64
75 82 84 77 78 80 82 81 82 80 73 68 67 63 64 67 65 58 51 46 40 36 34 31 27 33 36 44 49 53 51 49 46 42 32 35 35 38 39 50 54 39 41 44 43 42 52 63 67
72 80 77 71 74 74 79 79 81 78 72 68 61 57 62 64 60 57 47 43 38 34 30 30 28 34 41 47 52 51 44 37 33 32 33 37 47 50 46 56 59 46 42 46 40 39 43 48 57
75 82 71 71 74 73 72 71 73 71 69 62 58 58 60 64 59 55 44 39 34 31 28 28 33 36 43 49 48 41 39 38 40 39 38 37 43 59 63 66 66 56 53 48 49 43 35 39 46
71 78 78 75 75 75 73 68 63 59 56 54 52 54 57 58 55 50 40 36 33 30 27 29 35 36 41 45 43 44 46 50 47 43 39 43 54 64 60 60 66 61 54 62 52 47 38 37 32
65 75 80 77 76 74 71 70 66 61 55 50 50 55 55 53 54 51 41 37 32 28 27 30 35 35 38 46 49 56 54 52 48 50 53 58 64 66 66 59 58 55 58 65 56 48 39 38 37
61 64 73 76 74 69 63 61 57 55 55 53 50 53 49 50 49 47 41 37 32 28 27 31 34 33 36 44 48 57 59 57 48 49 55 58 64 70 69 68 59 51 57 61 59 51 43 40 35
57 69 65 67 66 66 57 58 56 56 57 53 44 47 48 47 49 44 38 35 30 26 27 30 32 32 33 37 42 56 65 61 53 51 53 61 61 62 63 63 68 55 59 60 56 51 43 41 40
45 55 63 63 63 60 57 58 57 57 55 59 50 39 45 47 48 47 43 36 31 26 27 30 31 30 31 33 37 43 53 58 56 55 54 60 59 61 61 61 59 57 59 61 58 53 42 42 48
43 58 58 63 59 59 55 56 58 59 61 59 56 40 38 45 45 47 43 41 32 27 23 29 29 29 29 31 37 40 44 49 50 52 52 53 58 56 60 64 61 62 59 61 58 54 44 45 44
42 42 54 60 58 57 57 58 63 64 64 59 59 53 50 47 43 45 46 43 38 30 24 24 27 28 30 31 36 39 41 44 46 47 43 47 53 57 58 67 67 62 57 60 54 46 44 41 38
33 41 47 57 57 58 59 62 65 62 66 65 65 60 56 52 44 41 44 43 42 34 28 25 24 26 29 30 33 37 39 41 45 46 42 46 48 51 52 56 58 64 50 52 51 46 41 41 38
23 33 40 47 56 57 59 60 65 59 57 60 61 62 62 57 59 42 40 43 42 38 30 27 26 24 28 30 31 35 37 39 45 43 41 44 44 48 50 53 53 58 50 49 47 47 46 46 46
16 27 33 42 54 63 58 60 64 60 57 61 64 68 65 59 62 54 36 38 43 40 33 27 30 24 32 33 36 38 39 40 41 40 38 45 42 42 46 52 54 48 50 47 46 44 41 45 46
18 14 27 37 51 61 62 58 60 56 56 54 58 61 65 60 62 54 37 34 37 38 36 31 30 28 33 37 40 40 41 40 36 35 35 41 42 40 41 43 49 47 46 45 47 42 41 48 49
19 14 16 32 45 54 55 61 46 52 56 52 51 58 61 61 62 59 44 28 31 37 34 31 29 31 33 35 38 38 40 38 33 31 33 34 38 37 37 38 43 46 48 46 45 42 44 45 48
29 24 18 23 43 52 48 56 48 54 43 45 52 57 59 62 61 61 53 37 30 34 35 31 28 28 33 33 34 36 35 33 30 28 29 29 30 31 32 33 36 42 43 45 44 43 42 44 46
38 31 42 38 44 41 38 51 43 35 38 42 46 50 52 59 61 64 58 44 33 31 32 33 31 30 33 35 35 33 33 31 29 27 25 24 24 23 25 28 33 36 39 41 43 41 43 42 42
41 37 39 46 41 31 35 45 40 32 31 40 44 45 51 59 60 62 62 49 38 29 28 30 30 28 29 34 34 30 30 30 28 27 25 21 20 22 25 27 30 33 37 38 40 39 40 45 43
45 46 34 34 30 31 24 31 34 33 32 36 40 43 43 49 56 57 61 50 42 38 29 24 27 27 25 25 28 29 29 30 27 26 25 23 22 23 26 27 28 31 33 38 38 38 37 39 41
42 47 51 43 42 37 30 22 27 26 29 30 37 39 37 42 47 56 60 54 44 38 36 32 27 27 24 25 26 26 27 27 26 27 27 25 26 26 25 25 27 29 32 34 38 37 37 37 37
42 52 50 40 38 37 34 25 17 19 22 23 26 35 34 37 40 48 54 57 51 46 39 35 31 27 28 27 27 27 26 25 26 25 27 27 27 26 24 24 25 27 30 30 32 34 36 37 36
53 48 55 54 43 38 38 28 15 17 19 21 26 32 32 32 36 42 48 53 56 46 40 33 33 28 28 26 28 28 26 26 25 25 26 28 25 23 21 21 22 26 28 29 29 30 34 36 36

GFSSGP_prec_cthk_045.txt.gz
RH
80 72 73 80 87 88 83 82 86 87 82 85 78 78 78 81 80 79 78 77 78 77 63 57 52 41 35 33 34 37 41 40 46 54 56 54 52 54 57 55 58 59 65 70 64 57 53 59 60
83 85 88 93 93 93 81 82 84 86 81 84 79 84 80 81 84 79 76 74 71 63 57 54 49 36 35 33 33 36 39 50 57 58 56 58 55 54 56 58 66 65 58 53 40 42 50 56 63
80 86 96 99 95 89 84 86 92 88 86 83 81 81 83 86 83 79 76 69 62 56 52 48 43 36 36 30 32 37 40 48 50 55 58 57 58 58 59 61 52 44 39 48 43 50 58 61 76
78 91 98 99 92 84 87 91 89 89 91 88 83 81 84 85 80 76 71 65 54 50 49 44 36 34 30 31 34 34 37 41 47 52 54 56 52 53 53 44 37 32 43 45 50 61 66 70 73
82 91 98 90 86 86 84 88 88 88 89 90 84 83 85 82 77 74 69 60 52 48 45 41 34 31 29 35 34 38 39 48 50 54 50 48 50 46 41 36 29 28 36 51 60 61 69 78 70
83 90 89 82 82 82 85 84 86 89 88 85 83 82 83 79 76 73 65 56 49 45 43 42 31 34 33 36 38 44 47 41 47 47 46 46 42 41 34 27 30 27 34 43 60 66 72 84 68
75 82 78 76 83 85 86 85 87 88 85 80 78 79 79 76 75 68 62 55 49 43 43 36 28 36 38 44 40 45 47 46 45 45 45 43 38 32 27 25 36 29 35 43 49 66 68 76 69
71 74 77 78 78 83 81 85 89 85 81 78 74 71 70 72 71 64 58 54 47 43 42 33 32 37 45 44 44 42 48 49 50 50 40 33 38 31 29 35 34 34 40 47 52 58 63 61 64
67 79 80 76 76 77 80 81 81 81 79 75 71 63 63 68 68 63 55 50 43 43 39 31 35 34 45 46 52 53 55 53 51 39 33 34 33 36 53 53 37 40 43 49 46 56 63 62 62
65 71 74 71 70 74 80 79 81 81 76 72 63 60 64 66 64 62 50 46 41 40 37 33 32 33 42 51 56 57 51 47 37 31 35 40 43 46 57 60 44 45 53 48 43 45 50 60 65
61 71 73 69 69 76 79 78 78 80 76 67 60 57 62 64 62 56 48 44 39 38 34 30 32 38 44 52 51 44 36 33 32 34 41 41 56 59 61 62 56 51 53 50 44 37 41 48 52
61 77 74 71 68 75 78 74 76 75 69 61 54 58 60 62 61 52 46 42 38 33 31 28 34 41 47 50 43 36 38 41 39 37 36 48 60 56 55 61 58 52 60 53 48 42 36 34 38
58 79 76 78 76 77 73 72 69 64 58 56 54 57 57 57 60 53 46 41 37 31 28 28 36 40 45 44 43 41 46 48 43 43 55 61 65 69 61 58 56 59 68 60 52 44 39 36 35
48 63 76 77 76 74 67 62 59 55 52 55 56 56 53 53 54 51 45 39 32 28 27 29 35 38 42 45 50 48 48 47 50 55 59 64 70 70 67 68 58 59 63 61 55 45 40 37 33
42 56 60 69 70 72 63 62 52 53 51 54 55 53 51 50 49 49 46 38 31 26 27 29 35 36 45 48 52 52 52 48 49 55 58 63 64 65 63 67 70 57 61 60 54 46 40 38 33
33 42 52 65 68 66 63 56 48 54 52 47 50 49 49 46 45 48 45 39 33 27 26 30 32 34 42 43 53 56 57 51 51 56 60 60 63 61 60 62 62 59 59 58 53 43 41 44 37
35 33 44 59 66 64 61 56 55 57 57 50 44 45 46 46 46 46 45 41 34 28 25 29 31 30 34 36 45 54 53 55 55 57 60 60 60 63 62 63 63 60 56 55 53 45 40 46 38
29 37 41 49 60 62 59 56 60 59 59 55 54 45 42 46 43 45 45 42 36 30 27 29 30 30 31 33 37 46 47 49 50 53 55 55 58 59 64 63 63 61 55 54 51 43 41 41 39
27 40 40 52 57 61 59 57 58 62 60 58 58 56 47 40 42 47 47 44 39 33 28 28 28 29 29 29 32 37 39 42 46 49 48 51 52 52 55 57 59 57 52 51 49 42 40 39 39
14 33 40 51 54 58 59 55 60 60 59 58 57 59 56 47 48 43 46 45 42 35 30 27 26 27 30 30 32 35 35 38 44 47 50 47 48 48 53 54 58 51 52 49 46 44 44 44 41
14 17 33 47 51 55 56 56 55 62 60 59 60 62 62 58 54 49 39 44 44 40 32 29 24 25 27 30 31 33 34 36 42 44 46 45 46 47 53 52 52 46 55 52 47 42 43 44 44
19 12 18 39 50 54 56 52 55 57 58 55 57 58 61 63 55 49 38 38 42 40 35 32 27 25 27 27 28 29 31 35 37 38 44 41 43 45 47 51 51 49 45 49 45 42 41 45 47
25 19 13 18 43 50 49 51 46 57 59 54 51 53 59 62 61 53 45 32 39 41 37 35 33 28 30 27 28 32 34 36 36 35 41 40 38 41 43 44 47 51 47 47 43 44 42 46 48
34 28 22 17 19 40 43 50 37 46 54 52 49 50 57 60 62 60 49 38 33 40 41 38 34 30 32 30 32 35 36 37 36 34 33 37 34 35 36 37 41 42 43 42 41 48 44 44 45
37 40 36 30 26 19 25 44 37 37 43 45 45 46 53 58 59 59 54 45 30 31 36 36 35 34 33 31 34 36 36 36 34 31 29 30 31 28 29 33 34 38 40 39 40 44 46 43 42
36 41 38 36 26 15 15 35 32 33 33 39 43 45 55 58 58 58 56 50 38 26 28 30 31 30 30 30 31 33 34 34 31 29 28 28 27 25 26 25 29 33 36 36 36 40 44 44 43
36 41 38 37 33 26 16 16 25 29 35 39 41 48 52 53 53 53 56 52 46 34 23 26 28 27 27 28 30 32 32 32 28 27 27 28 26 25 23 23 26 29 32 35 35 35 39 41 42
38 34 53 48 40 33 26 20 16 18 25 30 38 45 50 49 51 51 52 51 47 42 33 26 28 28 29 31 33 34 32 29 27 27 25 26 26 26 23 23 25 27 29 32 34 35 36 38 39
35 49 49 48 42 33 31 25 16 12 14 24 34 43 46 43 46 45 47 45 39 43 42 36 30 28 29 31 33 33 30 28 28 27 25 24 26 26 25 23 23 25 25 27 30 32 34 36 37
34 49 46 54 50 43 39 29 19 15 11 14 25 38 41 42 41 43 44 48 46 41 40 37 35 31 27 28 29 29 29 28 27 26 26 26 25 27 26 25 21 23 23 24 25 29 32 35 35

GFSSGP_prec_cthk_048.txt.gz
RH
67 69 73 76 82 78 74 74 79 84 77 79 74 75 76 76 76 84 80 81 82 74 67 60 50 35 32 31 33 36 40 46 49 49 54 55 53 51 52 52 56 62 70 67 56 54 58 58 52
82 83 87 90 90 86 71 79 83 80 80 77 77 76 76 79 79 77 76 79 78 69 62 54 40 34 36 36 41 45 43 51 58 59 59 54 56 62 59 65 67 60 57 44 45 52 56 62 64
81 84 95 94 93 86 83 78 83 81 82 78 80 82 81 86 81 78 74 74 70 61 58 48 35 36 34 35 37 41 53 57 60 58 60 57 56 60 61 53 43 40 54 44 51 54 60 69 72
76 89 96 94 86 79 82 81 84 85 85 81 80 80 85 86 82 78 72 69 65 59 58 41 34 36 32 38 40 44 50 51 56 56 56 58 55 56 46 35 32 45 45 50 61 64 70 70 58
78 92 96 93 85 82 83 85 86 90 89 84 82 81 86 85 81 76 68 65 60 59 52 38 35 30 38 37 36 41 43 47 51 52 55 57 54 45 34 28 30 36 53 61 60 68 76 67 55
83 88 85 79 82 78 82 84 85 88 91 84 83 84 85 81 78 72 66 63 57 55 50 40 36 32 40 35 40 40 49 49 52 46 50 48 43 36 28 31 29 36 52 61 64 75 77 58 51
74 77 73 69 75 81 81 81 84 89 84 86 84 80 82 79 78 69 64 59 54 53 53 40 38 37 39 37 46 46 40 46 47 51 47 40 34 26 27 33 30 38 42 59 69 71 76 60 50
68 69 71 70 78 82 79 82 87 89 84 81 80 77 79 75 75 68 62 56 54 52 51 37 41 44 48 44 45 44 44 48 50 46 39 35 30 30 34 34 35 37 45 53 61 62 65 68 62
62 71 73 71 73 79 78 78 80 77 78 78 77 69 68 72 71 66 58 55 52 51 49 39 48 49 54 49 43 47 48 51 46 35 39 41 43 55 53 38 38 46 47 51 60 61 59 60 59
61 61 66 71 73 75 77 83 80 79 78 77 71 62 66 72 68 63 54 52 49 49 47 42 47 56 54 59 51 54 56 51 45 42 42 49 55 63 60 45 49 49 45 46 49 54 59 74 65
60 60 64 69 71 75 81 84 82 78 76 70 60 62 67 68 64 59 53 52 47 47 43 42 44 50 59 63 63 58 50 41 39 43 45 52 62 64 68 58 53 54 49 53 47 47 57 56 67
53 60 70 73 74 74 78 80 78 78 76 66 59 60 63 63 61 56 51 49 46 45 42 39 42 48 56 58 55 46 40 39 45 44 46 60 58 59 64 64 55 61 60 51 51 44 37 39 48
49 65 76 73 77 72 76 77 76 77 71 65 59 60 61 62 63 55 51 48 47 43 41 38 43 48 56 52 46 44 44 46 44 44 52 60 69 62 65 60 63 66 65 57 51 45 41 35 35
37 53 75 70 77 77 77 76 72 68 68 60 56 58 60 59 61 54 49 48 46 38 35 39 43 48 49 46 42 48 53 49 49 60 62 65 68 69 72 65 61 65 64 60 54 45 43 44 41
36 46 58 66 74 73 69 63 64 63 52 53 57 58 58 59 57 55 48 45 41 37 36 41 44 47 47 47 48 50 52 55 58 61 60 59 63 73 70 73 63 62 59 53 47 45 39 45 45
29 31 44 55 66 67 61 67 58 53 49 54 56 55 55 55 54 56 51 46 40 36 36 39 46 46 49 55 49 52 54 55 58 62 61 59 59 67 66 68 61 61 60 57 54 48 47 40 42
23 25 35 46 62 65 63 62 58 49 48 49 52 53 52 53 51 53 49 44 41 36 31 36 42 47 51 53 54 55 53 54 59 61 63 57 59 61 65 68 72 60 59 57 53 49 47 45 42
14 24 30 37 57 64 62 62 56 53 50 45 47 51 50 49 48 49 47 46 44 37 30 34 40 46 48 50 53 56 53 53 57 60 63 58 57 56 64 76 69 64 59 55 51 43 41 48 44
15 22 29 42 54 68 64 62 57 59 54 48 45 43 46 46 47 50 47 45 42 39 32 31 35 39 42 39 47 50 50 50 51 53 52 52 53 48 55 67 65 57 59 54 45 39 37 43 41
14 22 31 40 49 58 64 61 60 60 59 57 56 53 46 45 45 46 46 44 42 38 33 30 33 35 35 36 37 45 48 48 50 51 47 46 50 48 56 58 57 59 61 54 53 42 44 43 38
18 13 22 41 47 50 60 60 61 57 62 58 58 54 53 42 42 43 45 45 40 39 34 30 29 29 29 33 34 36 39 44 43 47 50 45 45 47 50 51 60 58 57 53 47 44 44 49 45
21 15 14 25 41 47 49 53 55 56 59 60 59 57 52 51 49 44 40 44 43 39 37 32 28 26 28 28 32 34 37 38 42 48 52 45 42 44 47 60 54 51 59 51 47 44 46 48 49
22 22 14 15 26 44 51 53 54 52 55 59 58 57 53 54 56 50 39 38 44 43 40 35 32 25 27 26 30 33 34 36 40 46 48 43 37 38 45 60 51 52 50 47 50 44 43 46 50
26 28 24 16 17 26 35 47 44 51 51 54 56 56 55 55 57 56 51 41 41 45 43 38 33 26 24 24 25 29 31 34 39 39 43 42 39 37 37 44 47 46 44 45 53 48 41 45 45
26 28 33 29 19 13 19 31 38 44 50 52 53 50 52 57 60 61 58 44 35 39 41 40 34 28 26 24 23 25 28 31 37 37 39 41 37 36 36 33 37 41 40 42 52 51 50 40 43
29 27 32 36 23 14 12 18 22 34 37 46 55 51 55 59 57 61 59 51 40 32 38 38 35 33 30 27 25 26 28 34 37 36 37 36 37 33 34 31 31 32 36 37 40 47 50 47 40
32 32 24 34 34 24 18 13 13 21 28 35 47 50 50 51 56 58 58 56 50 39 28 30 31 32 33 31 27 28 28 33 38 36 32 32 33 31 28 28 29 29 31 33 37 41 44 45 43
28 29 40 37 43 35 30 23 18 17 24 28 41 48 50 48 55 57 59 55 54 48 37 29 31 30 32 34 31 30 27 29 33 35 31 30 30 26 27 25 24 27 28 29 32 39 40 41 45
22 30 48 44 37 35 35 26 24 19 16 21 29 37 40 45 54 54 55 54 55 50 48 34 26 29 31 30 29 28 27 28 30 32 28 27 27 25 22 22 21 24 28 28 28 32 39 38 40
23 35 36 47 44 36 39 36 31 27 20 15 23 30 35 42 50 53 53 54 56 50 45 43 35 27 26 25 25 24 24 27 32 29 28 27 25 24 22 23 21 21 24 27 28 29 33 35 36

GFSSGP_prec_cthk_051.txt.gz
RH
60 65 73 74 82 76 72 75 76 74 72 71 69 72 78 79 83 85 74 78 82 77 73 67 57 48 46 41 36 33 38 42 45 48 50 53 50 49 49 53 56 66 66 58 54 58 54 52 53
74 80 81 87 88 77 74 76 78 81 75 72 70 71 77 76 77 75 72 74 73 72 68 59 42 36 30 30 34 40 47 51 51 52 54 56 59 58 66 66 66 64 51 49 53 56 62 63 57
82 84 92 91 84 81 81 82 81 78 75 75 73 76 80 80 77 75 71 70 70 65 59 40 30 34 32 37 43 44 52 58 62 57 55 55 60 61 56 47 43 53 48 50 53 53 60 61 58
77 87 90 93 86 77 78 80 83 78 75 75 76 79 84 84 77 75 68 71 66 62 57 35 34 32 32 35 39 50 54 60 58 58 59 54 60 52 40 36 47 44 51 58 60 63 62 59 59
77 91 88 90 85 83 77 81 83 86 83 79 76 81 85 85 79 74 71 67 63 63 48 35 34 30 36 37 41 48 52 54 56 53 52 56 49 39 32 34 38 52 59 58 74 75 64 50 41
84 85 86 78 76 82 82 80 82 91 90 80 79 80 86 82 80 73 67 64 62 60 47 36 33 33 37 34 39 44 48 50 52 53 54 48 41 31 30 33 38 54 57 62 75 72 53 46 38
75 84 76 79 80 73 84 84 85 93 87 81 82 82 84 80 78 69 65 61 62 55 51 40 37 40 36 37 40 48 49 54 49 50 44 43 27 29 29 31 37 48 58 65 71 67 51 45 39
65 74 72 72 74 82 82 88 86 84 87 79 79 79 80 76 75 66 63 60 59 57 48 41 41 46 43 46 46 40 46 50 50 47 39 28 27 32 34 36 40 45 54 62 62 66 63 54 43
62 69 73 73 78 77 76 76 79 79 77 75 74 74 74 75 72 64 59 58 58 55 48 46 48 48 49 50 49 43 47 52 44 37 38 40 52 51 43 40 44 46 51 57 53 53 53 57 50
58 61 73 74 67 79 74 74 73 73 76 73 74 68 68 73 68 61 56 53 55 55 50 53 51 54 50 53 49 53 57 51 45 44 48 60 71 59 46 46 45 42 41 46 52 57 81 73 67
57 57 63 65 66 70 73 72 75 83 73 70 66 65 67 70 67 59 56 53 53 53 49 57 58 54 58 50 60 61 57 52 46 46 64 54 63 66 63 48 53 48 72 49 39 78 75 93 70
54 55 54 71 67 73 80 79 76 74 79 68 63 62 66 68 63 58 53 53 53 53 50 55 56 57 74 64 62 56 64 48 48 52 64 58 67 67 67 55 55 69 52 48 59 42 40 56 67
50 56 60 66 70 71 70 78 79 70 76 66 62 62 64 65 61 55 53 52 53 52 46 50 47 71 60 66 60 53 48 52 55 53 59 78 65 68 66 62 75 74 61 52 57 39 46 33 46
39 45 61 68 68 73 66 70 71 74 75 64 64 65 61 63 60 53 52 50 48 46 43 46 47 51 60 58 48 48 47 56 55 63 66 67 78 76 71 62 74 64 77 62 53 47 48 48 45
37 40 45 66 66 78 67 76 71 77 69 66 62 62 61 61 60 55 49 47 46 45 44 44 48 51 52 51 44 53 57 51 65 69 62 69 76 69 70 71 62 75 57 47 36 37 49 42 46
30 36 45 54 60 66 68 67 62 68 62 55 58 58 59 60 58 54 49 47 45 45 46 44 48 51 50 51 49 55 59 58 69 64 60 63 72 65 65 66 64 62 61 68 54 50 39 45 43
15 26 33 40 50 61 61 71 81 57 55 47 52 57 56 57 56 51 49 46 45 40 39 44 48 48 49 53 52 54 55 64 63 67 63 59 65 65 81 79 64 62 53 60 45 43 36 43 41
12 17 25 34 46 55 58 72 88 60 53 51 50 52 51 53 53 51 48 46 46 40 40 43 47 48 51 56 54 55 55 61 66 68 73 53 60 61 75 70 58 56 55 76 59 48 54 40 48
17 15 21 30 41 52 58 67 93 54 57 52 46 48 48 50 49 51 48 47 45 40 40 36 44 48 50 54 53 56 56 60 63 67 65 56 55 54 65 69 57 57 53 47 36 34 32 44 38
18 16 21 27 40 51 59 63 62 62 51 55 46 42 46 49 47 50 49 47 44 39 37 33 40 46 43 46 52 57 58 58 60 60 54 55 53 50 54 64 62 79 55 51 44 50 46 42 43
20 17 19 28 36 44 53 60 57 72 53 55 54 48 48 46 44 46 47 45 41 39 40 31 32 37 40 39 45 50 52 57 52 60 54 55 54 52 55 52 64 55 58 51 43 40 48 49 45
20 20 16 22 35 40 46 56 56 58 67 54 56 56 51 44 44 44 46 44 40 39 40 35 26 29 33 34 38 42 48 48 48 52 54 53 50 50 53 56 54 49 53 58 48 47 51 54 49
20 22 18 14 18 27 42 50 56 53 60 61 57 56 54 47 41 37 39 42 43 41 39 39 29 27 29 29 34 37 39 45 46 50 55 53 45 47 58 53 54 53 49 48 52 50 45 51 53
21 22 22 18 16 18 23 43 43 58 54 64 55 60 56 51 50 47 42 41 43 45 43 40 33 25 25 26 27 33 34 41 43 45 53 46 48 42 48 52 50 46 47 55 48 44 42 46 48
23 24 28 28 23 16 13 28 35 40 46 56 54 55 57 53 54 54 55 47 40 42 43 40 35 28 21 23 23 28 31 32 37 44 44 44 48 47 40 41 46 44 40 51 52 47 45 40 42
29 25 25 30 26 15 12 15 21 37 44 51 69 54 56 53 54 55 55 55 53 39 37 38 36 32 27 21 20 23 26 30 30 36 46 45 46 45 43 35 36 41 43 40 48 48 47 42 39
34 36 22 28 28 24 18 14 12 20 34 43 55 54 69 55 53 53 57 57 57 52 33 33 35 33 29 28 23 20 21 24 32 33 35 47 43 45 39 33 30 34 38 40 40 44 45 52 41
27 32 38 32 36 35 28 22 17 15 18 30 41 45 49 67 52 56 57 57 59 55 47 33 35 33 31 30 28 24 21 22 26 30 36 37 41 35 42 34 31 27 32 36 35 38 41 43 44
13 16 35 44 34 32 34 26 23 20 19 18 25 39 42 50 57 58 57 57 59 61 57 44 32 34 33 31 31 28 25 28 25 29 30 32 31 34 30 31 26 25 26 28 33 31 42 40 41
13 26 19 36 43 37 29 28 27 26 25 22 25 31 38 46 58 56 55 55 63 61 61 52 41 33 28 28 30 29 27 28 28 25 28 28 27 28 30 28 27 24 24 28 28 28 33 38 40

GFSSGP_prec_cthk_054.txt.gz
RH
55 60 71 78 83 80 81 78 80 72 74 75 72 71 74 76 75 82 72 80 76 73 66 60 53 46 48 50 47 45 42 42 43 43 49 49 46 46 50 53 60 59 57 54 58 53 52 54 48
69 76 78 81 87 78 75 73 73 80 74 75 72 73 73 74 76 72 71 71 72 65 61 53 51 47 43 35 33 37 41 46 49 50 53 56 56 59 62 58 60 53 51 54 54 56 59 56 58
78 85 89 91 81 80 78 79 75 80 74 73 76 78 76 75 72 71 67 67 68 65 59 47 43 35 30 32 41 48 52 54 53 53 54 57 57 52 45 47 48 43 50 53 55 52 50 53 52
83 85 91 91 85 80 75 90 82 78 78 80 77 79 79 75 73 70 64 63 64 61 48 33 30 29 36 41 43 50 56 57 58 58 54 56 54 39 38 44 41 51 58 57 59 58 61 56 46
77 89 91 85 83 92 81 85 79 78 79 87 79 81 81 79 73 67 63 66 61 54 36 30 31 32 37 38 49 50 54 54 55 54 55 52 39 32 36 39 49 57 61 72 73 60 46 37 33
80 86 89 93 84 81 80 83 82 81 84 84 82 82 84 80 74 68 66 63 60 50 36 31 31 34 36 40 46 48 50 52 53 53 48 39 30 29 33 40 50 55 59 73 63 49 41 37 39
78 87 82 93 81 75 82 87 78 79 81 83 86 83 83 79 73 72 66 63 57 54 37 33 30 34 35 40 44 46 49 50 48 42 41 26 28 27 32 37 48 54 62 68 59 45 42 39 42
64 83 72 84 72 78 84 85 81 75 76 81 84 81 81 76 73 67 64 60 60 51 39 36 33 37 37 43 48 47 48 48 41 41 29 24 29 32 36 40 42 54 60 62 65 57 46 39 39
56 73 74 84 74 92 84 81 79 75 79 79 77 78 77 74 71 64 63 59 58 48 40 37 38 39 42 46 43 43 46 43 40 35 35 49 41 37 37 43 42 49 53 51 53 56 60 58 56
52 67 68 72 76 75 85 74 77 79 79 80 77 75 73 72 67 60 60 59 56 46 45 39 42 39 44 47 40 42 45 41 35 41 45 66 57 42 44 43 40 40 43 52 57 70 74 70 65
51 59 62 71 76 74 68 70 72 73 77 74 77 69 67 68 63 58 59 53 47 46 45 47 42 43 49 47 45 48 50 36 43 56 63 62 62 54 51 62 49 81 48 54 76 70 71 93 71
49 52 59 58 62 68 81 83 81 78 94 75 70 66 65 63 61 57 57 51 51 51 47 59 55 49 62 54 52 62 47 43 40 61 63 58 60 59 56 64 67 62 48 55 63 37 47 78 76
43 48 51 57 73 66 71 78 80 89 74 70 66 67 66 60 60 54 53 52 49 50 44 41 58 55 58 66 57 80 58 48 47 54 72 55 67 61 56 79 67 66 60 57 54 42 37 45 56
44 46 49 55 61 70 68 75 69 72 71 69 70 68 64 60 57 55 53 51 50 50 46 54 50 60 69 71 66 56 40 55 52 50 63 91 66 69 62 57 73 75 63 54 59 51 52 60 47
34 39 37 42 62 66 70 67 72 77 82 73 68 68 64 60 55 54 53 48 48 48 39 42 43 61 60 50 49 38 42 48 54 64 59 65 67 63 64 60 74 75 52 46 37 39 44 43 48
26 31 35 38 56 65 67 69 75 75 93 70 64 63 62 56 54 53 52 48 46 44 39 38 42 47 46 41 35 42 66 56 57 57 54 67 65 58 70 61 60 57 56 55 56 42 39 51 42
19 23 31 38 47 56 66 69 81 81 93 66 58 58 58 55 58 51 51 48 45 42 39 36 46 47 43 36 43 81 50 57 68 56 57 62 58 73 82 65 56 68 68 60 41 36 41 46 45
17 15 22 30 36 52 56 67 75 74 87 55 57 54 55 52 53 51 47 47 45 40 39 36 46 48 44 42 42 45 51 59 58 64 61 52 57 74 80 65 51 52 62 61 45 46 45 44 45
19 18 16 21 31 52 52 71 70 68 71 72 53 53 50 48 49 51 45 42 43 38 35 36 44 46 45 45 45 50 50 61 59 66 69 51 56 64 81 59 51 50 52 47 32 45 49 53 46
23 20 16 18 26 41 58 65 68 61 64 60 46 50 49 51 46 47 43 42 42 37 34 31 41 45 45 46 44 50 52 50 56 75 60 47 50 51 55 60 64 63 48 44 42 34 41 41 38
19 19 18 22 26 35 41 74 71 68 66 90 53 49 48 44 45 42 41 42 41 37 33 29 35 46 43 44 45 50 56 53 58 56 48 46 47 44 58 56 57 53 51 39 38 45 51 40 44
19 19 19 17 28 33 38 47 64 68 77 91 87 61 47 45 45 43 39 40 38 35 33 29 28 40 41 39 42 44 49 52 45 53 64 45 45 47 47 47 50 47 51 52 37 40 49 46 45
20 21 22 19 18 29 39 40 40 67 67 64 91 69 58 47 42 39 34 36 36 35 33 29 26 31 36 36 34 37 42 44 48 44 54 48 46 43 48 46 47 44 48 47 44 39 47 43 49
21 20 22 22 19 18 19 27 32 49 64 62 66 79 75 56 46 36 36 36 38 37 35 30 26 25 28 29 30 32 33 37 45 43 52 48 45 41 48 48 46 41 51 57 44 37 38 41 50
22 23 24 25 23 16 12 14 15 34 50 57 61 65 65 59 51 41 39 38 36 36 34 31 27 23 22 25 26 27 28 33 38 44 47 47 39 40 41 41 44 38 45 50 49 42 36 36 39
25 25 25 27 23 19 14 13 11 14 40 55 53 55 71 63 52 47 44 40 38 34 33 33 30 25 21 21 24 26 26 28 32 38 39 45 42 42 40 40 36 36 39 44 46 45 39 33 32
28 35 23 25 26 24 22 16 12 12 27 47 63 57 72 74 73 52 50 48 47 46 38 30 32 30 26 20 18 22 24 24 29 30 35 38 37 42 39 38 34 31 34 38 38 42 45 48 38
26 29 40 32 35 34 27 25 21 16 14 28 43 46 47 65 85 74 58 59 53 49 48 42 31 31 30 27 20 16 20 21 24 26 26 35 36 40 46 37 32 26 25 32 36 34 42 42 42
25 24 37 42 40 29 33 28 24 23 19 19 28 36 36 49 78 64 63 70 61 59 53 48 41 30 33 33 28 23 18 18 19 23 23 25 34 36 38 40 31 27 24 27 29 30 39 39 37
22 20 20 33 46 38 35 27 24 26 23 21 20 23 38 47 50 65 68 65 60 56 55 53 53 39 27 30 32 27 25 20 18 19 22 24 26 30 28 30 29 25 22 23 23 24 31 39 37

GFSSGP_prec_cthk_057.txt.gz
RH
52 53 59 66 79 85 86 81 80 85 75 75 72 71 72 75 75 79 64 69 68 56 51 48 51 55 55 57 53 45 42 39 37 43 46 44 46 49 51 52 56 54 57 55 52 55 53 50 48
67 71 74 79 84 88 80 88 90 81 77 73 71 71 73 79 77 71 66 64 61 54 49 47 48 52 48 45 41 39 41 43 46 49 51 52 54 57 54 53 51 50 52 54 57 54 55 57 53
76 86 90 89 88 85 80 92 84 87 75 75 72 72 70 73 74 70 66 60 56 53 45 46 43 43 36 34 38 43 46 46 50 51 51 52 48 45 46 44 43 48 53 56 51 44 45 52 56
83 86 89 92 91 85 85 84 77 89 83 77 70 73 72 68 67 65 61 60 53 50 43 43 38 32 30 44 48 50 53 53 52 50 51 49 38 38 42 41 52 56 56 57 56 56 50 46 46
79 89 94 92 88 81 90 86 78 89 86 84 71 75 73 68 64 62 58 57 51 48 38 33 28 31 38 41 49 53 51 52 51 50 49 35 32 35 39 47 54 62 74 65 49 39 41 37 38
79 87 93 88 83 83 90 91 86 81 79 84 75 74 75 66 62 63 57 57 47 42 29 28 32 35 36 44 48 49 49 51 49 46 35 27 31 32 41 47 53 61 66 49 40 34 34 42 54
77 89 88 87 90 81 91 86 89 83 82 81 77 74 77 69 65 65 60 56 49 37 27 28 32 33 35 41 46 46 48 47 40 38 26 26 25 31 38 47 54 61 61 46 41 38 39 46 55
68 79 81 88 83 87 88 84 83 81 82 81 78 78 77 72 66 63 62 56 50 45 28 29 31 34 34 40 44 47 45 39 38 27 24 29 32 34 43 50 54 57 60 59 50 40 37 47 52
62 70 79 84 76 90 88 85 78 75 79 77 76 77 74 66 67 63 61 53 56 48 30 29 30 33 36 44 41 44 42 37 32 31 47 35 35 40 42 46 46 49 52 54 53 51 50 50 49
63 62 69 71 74 88 78 81 71 70 75 76 76 75 73 68 67 60 58 53 53 46 31 27 31 33 38 41 39 41 41 44 42 48 65 49 45 44 42 39 43 48 55 62 65 73 63 56 56
55 60 63 74 73 78 93 95 81 75 74 75 75 76 71 70 64 59 56 50 46 44 36 28 32 34 38 38 39 45 41 35 44 52 62 58 53 50 60 47 75 44 53 64 60 70 66 63 62
52 53 54 62 76 76 88 96 83 74 81 80 79 69 67 68 61 60 55 55 47 41 38 39 39 35 44 42 42 51 39 38 57 67 59 63 66 58 65 66 65 57 42 57 45 47 59 70 64
44 48 53 59 63 76 87 76 76 80 70 82 80 74 67 67 60 59 55 47 44 41 40 42 42 39 45 49 51 52 37 45 47 58 67 55 55 60 77 71 70 72 55 58 42 41 42 54 59
39 42 47 50 65 65 74 79 78 77 72 78 75 72 66 63 59 56 58 47 47 43 45 54 46 54 43 48 64 63 57 51 55 57 67 67 67 68 64 67 67 63 53 48 42 53 72 47 58
35 32 35 41 49 58 70 75 76 79 78 79 78 71 68 59 58 55 55 50 48 40 40 45 44 55 56 58 58 41 51 59 55 58 62 69 73 71 62 62 87 64 49 44 43 40 42 46 59
32 31 34 36 39 53 62 76 74 85 90 85 76 72 68 58 56 52 55 52 45 43 40 49 44 50 53 53 66 44 54 54 59 56 63 65 61 66 69 59 59 51 53 47 44 46 50 47 53
26 26 28 32 35 47 61 81 84 84 87 85 69 60 64 58 57 52 57 49 44 43 38 38 40 54 49 40 39 45 52 52 58 57 63 60 63 71 75 59 66 54 59 43 41 41 45 45 44
24 19 20 26 36 48 57 81 78 78 77 79 66 54 59 57 56 56 60 49 41 39 37 36 34 40 42 40 44 62 44 54 57 53 55 51 63 74 68 55 52 63 59 47 36 42 41 45 47
23 23 24 19 29 40 51 76 76 74 70 70 73 68 57 56 59 54 58 49 39 38 37 36 35 40 39 35 41 49 47 53 55 54 60 47 55 67 67 48 49 53 58 38 53 41 41 42 47
23 22 20 20 21 29 49 68 77 70 68 74 73 67 49 60 63 61 53 48 38 36 37 32 34 41 41 37 39 40 49 50 54 57 55 50 49 55 62 55 60 50 41 34 36 39 44 41 37
23 24 21 21 22 29 50 64 70 70 72 82 94 71 64 49 50 57 51 43 39 35 35 31 29 37 39 39 43 44 44 50 54 61 53 49 46 45 56 55 52 48 39 37 37 36 39 34 38
22 22 21 18 21 29 45 69 68 64 73 71 73 75 73 58 50 52 49 42 39 34 34 31 25 36 38 39 42 43 44 43 47 51 44 46 41 42 55 51 51 45 47 37 41 45 42 43 44
19 21 21 21 21 21 26 33 56 63 72 69 65 71 65 60 49 47 43 40 36 34 31 30 24 31 37 36 37 42 46 46 45 42 56 44 46 44 43 46 44 44 45 41 37 45 50 42 42
21 19 20 22 24 26 21 28 35 61 57 60 60 54 58 57 63 39 47 43 38 36 33 30 26 22 33 34 31 36 41 42 43 39 44 48 47 44 41 49 46 43 49 43 38 37 42 46 42
24 23 25 27 27 23 19 25 22 39 46 48 54 56 63 61 62 53 47 46 44 37 34 30 27 22 21 30 29 27 34 38 37 37 39 45 46 45 39 40 41 43 48 48 41 35 35 38 43
24 24 29 30 27 22 20 20 16 16 32 42 57 63 69 69 70 61 55 43 45 38 35 33 28 24 19 20 24 24 26 29 32 34 37 41 39 33 41 42 40 36 40 44 44 39 32 34 36
25 28 21 24 21 28 23 20 18 17 21 34 46 61 66 69 69 66 63 58 48 43 37 33 31 27 21 16 19 21 23 25 28 32 34 36 40 34 37 39 39 38 34 35 41 44 40 34 30
26 28 36 30 32 35 27 22 25 27 23 30 39 47 55 59 66 65 65 70 67 61 53 43 37 34 28 20 16 19 20 21 24 28 32 31 35 35 34 35 35 34 33 29 33 35 40 41 37
28 26 32 35 36 38 33 24 19 29 33 31 32 38 43 50 55 42 64 75 70 73 66 59 40 36 35 30 20 16 19 20 21 25 27 27 28 33 32 32 34 31 28 22 23 30 32 38 37
26 28 30 36 38 39 41 27 24 33 36 35 37 35 37 43 52 49 44 61 69 67 63 63 54 39 30 33 31 23 17 17 18 20 24 24 25 29 35 33 30 29 26 23 20 21 26 33 36

GFSSGP_prec_cthk_063.txt.gz
RH
53 53 56 59 70 77 85 84 85 83 79 75 75 71 71 72 75 73 59 55 54 56 57 60 58 57 60 54 53 52 43 39 39 40 43 46 49 53 53 58 58 53 54 57 52 52 51 47 48
54 58 63 70 82 86 87 87 85 87 82 82 72 77 75 79 77 65 59 54 51 51 55 55 54 56 57 57 51 45 36 42 45 47 53 61 62 58 55 55 53 56 57 56 53 52 53 53 60
76 85 88 86 87 91 90 90 87 93 84 81 79 79 83 82 76 65 57 52 49 48 51 53 51 55 52 44 40 41 45 49 51 54 56 49 46 43 46 48 52 56 55 51 54 51 56 52 55
87 92 92 94 94 91 93 90 88 94 91 88 85 84 85 84 70 60 54 52 48 47 48 50 50 50 43 42 43 44 50 49 51 54 46 42 42 45 55 54 55 50 53 50 41 44 50 48 63
88 92 95 96 94 91 92 93 94 97 93 89 85 84 83 81 67 60 56 51 45 44 43 44 40 36 40 45 49 50 52 47 50 44 42 41 41 53 62 67 57 49 48 44 45 49 55 64 73
88 92 97 95 93 91 90 92 92 85 88 84 85 84 83 77 66 60 56 52 46 44 40 38 34 37 52 52 52 53 52 48 41 37 40 42 45 53 60 56 43 42 33 34 39 54 56 71 76
84 92 91 87 86 86 86 95 94 88 86 83 82 82 79 76 67 60 56 53 46 44 39 32 30 42 47 54 52 51 46 40 31 32 31 39 46 52 62 52 41 37 35 41 50 48 50 58 68
84 87 88 83 83 82 83 89 91 92 89 83 78 79 77 73 66 59 55 54 47 41 32 27 35 37 47 49 49 48 41 31 24 28 29 35 42 52 59 57 52 42 34 43 53 53 63 66 65
80 87 83 76 77 81 86 91 92 92 87 81 82 74 73 70 64 58 55 52 44 30 28 30 33 37 42 46 48 42 34 30 30 32 38 40 40 48 49 55 54 49 47 47 52 57 61 67 68
76 83 80 74 73 76 82 85 90 88 86 84 81 78 77 71 64 58 55 46 38 28 29 30 33 36 41 44 45 38 32 34 42 35 43 43 44 53 52 52 56 55 60 63 54 53 61 72 61
67 74 69 66 73 75 77 78 79 83 86 86 80 79 78 70 65 58 54 48 45 36 31 30 33 38 41 42 40 37 39 42 52 47 44 41 42 47 57 52 56 63 69 67 65 57 56 56 58
55 71 61 55 64 74 75 72 75 79 80 79 75 75 77 72 66 59 57 54 51 39 32 28 32 38 40 40 38 37 39 50 59 58 53 54 61 57 57 49 45 59 55 64 62 60 62 58 56
61 67 57 51 51 63 74 73 80 80 81 83 79 80 77 75 68 64 59 53 47 41 31 27 31 35 38 38 39 36 43 56 62 62 57 52 61 67 59 65 49 53 48 49 55 62 58 65 60
62 55 47 45 42 52 68 70 78 80 83 89 85 82 72 73 69 66 60 51 46 39 35 29 32 35 39 38 42 39 46 59 60 62 58 58 68 71 72 69 60 49 45 48 49 53 58 60 55
54 49 40 41 42 55 66 70 76 81 83 89 87 81 73 69 68 67 58 51 48 39 36 34 35 36 41 52 49 42 50 59 61 65 64 68 68 66 73 71 57 50 43 51 51 52 54 58 57
42 44 40 45 48 58 67 74 76 82 82 85 87 80 72 66 63 65 59 54 47 42 41 45 42 41 46 54 59 52 52 61 64 67 66 69 71 65 60 65 57 50 44 41 45 45 52 58 59
37 45 42 42 50 57 64 69 74 76 76 83 83 75 70 68 60 61 59 52 43 42 41 48 55 45 42 50 56 52 52 57 61 69 67 73 75 67 58 53 52 44 39 40 43 43 50 49 53
35 37 43 39 51 56 61 64 69 75 80 78 81 76 64 61 55 58 57 51 45 45 43 51 53 53 51 63 55 45 56 57 58 66 66 74 76 70 57 56 55 47 42 40 41 40 41 45 46
33 32 37 44 38 34 49 51 62 70 79 76 80 75 59 56 59 57 55 51 46 47 46 49 50 51 50 52 57 45 51 55 54 60 63 70 72 66 55 60 54 57 46 38 39 36 41 41 45
31 28 31 39 39 40 37 48 58 66 75 78 77 77 72 61 58 56 54 51 49 49 43 48 49 53 48 45 46 40 46 58 59 62 62 66 78 62 54 54 48 45 39 37 40 39 40 37 35
31 27 32 38 39 43 51 57 62 67 72 75 76 75 74 62 55 54 52 47 48 48 44 44 44 43 41 42 49 49 52 59 61 63 61 57 62 59 57 50 45 41 38 40 40 38 41 40 32
33 26 36 35 33 32 42 58 66 68 75 74 73 71 71 54 51 50 47 45 44 51 51 43 44 42 39 37 38 44 44 53 57 62 59 53 51 54 57 49 46 45 43 38 42 41 45 38 33
25 26 32 38 32 29 30 40 48 72 73 67 65 69 66 59 52 46 46 41 42 46 46 43 46 46 45 41 36 36 41 52 54 59 58 51 52 53 56 54 48 43 41 40 43 44 41 40 43
24 26 27 31 33 32 28 28 42 61 49 55 61 66 67 66 64 58 51 45 44 46 45 44 45 45 42 42 37 36 39 44 54 57 55 52 49 50 48 50 49 48 43 41 43 43 42 42 44
24 26 30 28 32 32 28 30 26 42 39 43 51 59 64 66 65 56 49 44 40 43 39 43 43 42 42 42 39 37 36 40 45 50 54 55 50 51 49 46 50 49 47 44 41 43 41 42 44
24 27 29 28 32 31 29 30 30 33 32 39 46 47 66 63 60 61 47 42 39 41 35 36 41 42 41 41 40 38 37 42 45 48 50 53 51 51 53 49 49 51 46 45 35 38 41 41 44
27 28 25 30 29 28 31 30 31 37 34 36 41 38 52 65 60 60 58 43 38 39 33 34 38 39 40 37 38 35 36 39 43 44 47 47 48 50 50 49 44 48 46 45 44 38 34 37 40
28 32 33 31 34 31 27 32 45 42 39 36 38 35 37 53 67 65 62 59 41 37 35 34 34 35 34 36 35 33 31 33 36 43 42 41 41 45 45 47 51 45 49 47 41 43 38 32 33
35 37 37 36 35 37 36 40 37 37 37 39 37 34 30 40 58 67 62 68 56 43 43 42 41 37 36 33 34 33 29 27 28 33 36 39 40 43 43 42 44 47 45 45 45 40 39 37 31
34 39 39 41 39 41 40 43 36 30 30 36 40 32 31 37 48 66 70 74 69 64 63 56 47 43 40 38 35 33 30 26 23 27 30 36 38 41 47 43 39 41 41 41 39 38 36 36 36

GFSSGP_prec_cthk_069.txt.gz
RH
56 47 48 49 61 66 75 81 89 89 82 77 71 69 65 63 65 59 51 53 60 60 57 58 57 57 57 56 54 49 45 43 43 47 50 54 52 55 59 55 55 52 49 51 49 53 58 54 56
46 50 52 59 69 76 84 89 92 93 85 77 73 71 70 69 71 53 49 50 57 56 55 56 56 52 50 52 48 41 37 41 49 54 64 64 67 63 65 60 63 63 63 57 60 60 60 57 60
67 72 76 80 79 81 91 95 94 94 85 83 80 77 75 71 65 53 47 48 53 53 53 56 56 50 47 48 40 37 45 49 51 57 56 53 49 48 52 62 56 58 69 56 56 60 57 60 80
82 84 87 89 86 89 96 96 94 97 90 87 84 83 77 75 62 51 46 46 50 52 50 51 53 52 47 42 42 44 49 51 50 54 46 42 44 53 60 53 54 50 63 58 60 54 65 79 83
84 87 89 88 89 91 91 96 92 91 90 91 87 88 86 73 58 50 47 45 48 49 47 49 50 43 41 41 44 46 48 49 49 46 43 48 59 66 62 62 65 44 45 50 59 64 70 80 81
86 88 84 82 82 88 89 94 89 94 91 89 89 85 86 70 58 52 49 44 43 45 47 50 50 44 44 46 47 47 44 47 42 41 44 57 60 61 53 47 38 40 49 55 62 67 74 80 79
85 85 81 78 81 86 91 91 85 88 87 88 86 83 80 69 56 54 52 43 41 41 42 42 41 43 46 54 52 48 43 34 34 39 47 58 59 52 48 49 41 42 49 58 73 74 74 74 67
87 81 79 74 78 91 89 90 87 87 85 82 79 79 74 64 56 53 50 44 42 38 38 36 40 52 54 55 51 42 33 32 29 36 45 60 63 54 42 39 44 45 52 61 74 75 73 70 63
86 80 77 71 74 87 90 91 91 87 86 82 76 75 67 62 55 52 54 47 44 39 35 31 44 47 55 54 47 35 28 30 32 36 42 48 60 57 57 43 45 50 53 60 68 72 69 60 53
81 80 73 69 71 78 85 92 92 87 86 84 77 74 64 60 57 53 53 47 43 39 31 31 39 44 47 49 43 34 27 31 33 34 44 51 53 58 58 55 50 54 56 62 70 66 58 57 55
76 73 69 70 69 75 78 85 89 89 85 83 77 73 62 60 57 54 53 49 41 32 27 32 36 43 46 46 35 31 40 37 39 35 38 45 49 55 53 64 63 59 56 61 66 63 59 53 49
74 68 66 68 65 69 74 77 81 83 86 84 79 71 62 60 56 53 51 49 38 27 28 31 35 40 43 40 34 38 44 48 46 42 49 51 49 47 49 60 64 64 58 55 59 58 56 54 51
68 66 61 55 58 65 71 76 79 82 85 85 78 72 66 62 60 55 52 46 33 27 29 30 34 38 40 37 35 37 47 52 52 48 57 60 56 58 50 53 52 62 59 57 62 57 58 57 54
53 56 53 48 50 61 73 76 82 83 84 87 82 77 74 66 61 57 50 43 39 32 26 28 33 37 38 35 35 36 56 58 52 52 59 66 68 63 58 52 50 48 53 60 62 62 59 55 53
47 47 46 50 49 56 72 73 75 82 87 87 86 80 75 68 62 56 50 46 45 38 30 26 32 35 37 33 33 40 60 59 58 60 61 71 76 71 68 63 52 44 46 49 60 62 60 56 53
43 43 43 47 47 56 63 68 71 80 86 87 92 88 76 68 62 58 55 51 44 39 34 28 31 35 37 35 39 44 54 58 64 67 70 69 66 67 65 63 54 48 47 53 53 56 57 55 54
42 46 43 41 51 55 62 65 77 79 83 88 89 85 79 69 64 60 59 54 45 39 34 30 30 36 38 39 44 48 57 59 67 67 74 74 68 65 62 56 48 43 43 46 50 56 56 57 57
37 42 42 42 51 54 57 61 65 75 80 84 90 85 80 73 67 65 62 55 44 34 30 30 32 37 47 49 49 49 52 57 65 66 72 76 70 68 58 50 48 46 39 40 47 56 59 60 56
31 38 41 40 44 45 40 42 57 62 78 81 86 82 75 76 70 64 63 54 42 35 34 36 36 39 46 44 51 48 48 57 62 64 74 72 68 65 55 52 49 48 42 39 42 45 49 51 51
31 33 39 36 39 40 40 44 62 58 66 77 80 79 73 70 68 64 63 56 42 39 38 44 47 40 42 44 52 50 50 57 59 63 70 70 67 62 58 53 46 49 40 41 38 41 46 45 44
35 32 36 37 33 40 51 53 62 64 63 75 81 80 79 75 64 64 62 58 46 42 41 46 56 45 47 54 51 49 49 58 57 62 65 68 68 62 58 50 43 43 43 39 38 37 41 41 35
39 34 35 38 33 31 38 40 55 63 69 75 78 78 77 78 72 65 63 59 49 43 42 46 52 53 51 50 46 50 49 51 56 63 68 59 59 63 54 47 45 42 42 38 37 38 40 34 32
40 37 35 36 37 29 31 38 44 54 67 72 77 79 76 77 77 60 61 59 49 44 43 46 49 53 50 47 42 44 48 53 56 63 62 55 53 57 50 45 47 48 42 40 39 37 41 36 31
37 35 32 31 32 30 26 32 36 42 52 55 68 75 74 70 65 60 60 62 52 47 47 46 48 52 52 48 44 46 46 51 53 60 61 58 53 57 49 52 54 50 45 47 41 39 39 37 36
34 34 34 34 33 31 26 27 39 39 43 46 48 57 71 67 63 58 57 58 53 48 46 49 47 46 48 47 43 44 44 45 50 54 57 57 54 50 51 55 55 48 46 48 41 38 41 43 39
30 30 29 34 31 26 28 27 35 33 42 48 52 53 60 65 68 70 62 55 53 46 47 51 45 45 46 47 44 40 42 42 45 50 56 58 57 48 49 53 57 45 46 50 50 41 40 41 42
25 28 28 28 29 27 28 30 34 30 34 44 56 55 59 64 72 74 72 62 52 47 44 46 44 45 46 47 47 45 42 42 42 43 44 50 53 51 49 54 55 48 44 43 44 42 39 39 40
26 27 28 30 33 31 34 40 35 32 36 46 51 51 49 62 77 78 72 68 62 49 49 48 48 46 46 48 48 48 47 43 41 41 42 45 50 52 52 53 54 50 48 43 43 42 42 40 39
28 30 30 30 30 30 32 37 29 34 45 50 50 52 53 54 66 80 83 68 66 59 50 48 49 49 51 51 51 49 49 46 44 39 40 42 46 49 49 51 51 49 47 45 44 40 37 37 36
32 32 32 30 37 33 32 34 28 34 42 46 55 54 55 62 63 72 78 78 69 65 56 50 50 50 53 53 55 52 51 51 46 42 37 39 42 43 41 42 45 46 48 47 45 49 41 38 34

GFSSGP_prec_cthk_072.txt.gz
RH
54 47 47 48 62 62 76 87 88 82 76 73 66 63 59 57 56 61 57 64 66 67 62 55 53 54 52 54 53 51 51 52 53 53 51 51 54 56 52 52 49 48 53 50 51 56 55 52 61
51 46 49 59 67 72 86 89 91 93 78 72 69 64 64 66 58 52 54 62 63 64 64 60 53 53 53 51 45 41 42 47 53 63 66 65 65 61 65 63 65 58 58 58 61 62 61 61 72
60 65 70 78 71 75 87 92 89 91 79 74 73 69 70 63 55 51 55 58 60 65 68 59 52 49 52 50 38 43 49 52 59 57 53 48 47 54 58 57 58 65 58 58 61 61 66 79 75
80 83 84 83 82 87 86 96 90 92 85 80 73 69 70 64 53 50 53 56 60 61 66 55 51 46 48 43 43 49 54 55 60 46 43 51 60 58 56 56 52 65 57 59 59 71 81 82 74
84 83 84 81 81 86 88 96 93 90 85 81 79 72 72 61 55 51 51 56 58 60 60 56 54 50 43 45 49 51 51 54 54 47 51 62 62 60 59 58 46 50 62 60 62 76 87 79 75
85 80 79 76 79 84 92 90 92 91 86 83 81 79 75 59 55 51 50 56 58 57 58 53 46 43 44 44 49 46 49 49 46 49 54 61 57 49 44 38 36 45 53 61 64 76 80 83 73
85 79 74 74 81 82 90 87 88 86 85 85 82 79 75 59 54 52 51 53 56 57 57 55 51 45 47 49 49 45 40 38 44 48 56 57 49 48 44 37 43 50 62 67 72 81 79 72 59
79 74 70 70 80 84 84 86 86 86 86 83 80 74 68 57 54 53 50 48 52 52 52 51 51 53 59 55 44 39 31 34 40 49 61 68 46 40 44 44 49 56 76 76 74 73 70 62 58
76 76 68 69 77 85 83 85 89 86 82 78 76 72 64 57 55 55 50 47 47 49 48 47 57 62 60 57 42 33 41 38 39 52 63 70 66 57 49 47 48 57 68 73 74 65 61 55 48
77 77 67 69 72 82 86 84 86 86 80 77 74 72 60 56 55 55 50 47 45 45 45 51 56 57 56 59 43 39 43 48 48 53 58 64 66 62 56 52 52 56 63 67 66 61 62 68 60
73 74 66 69 73 78 84 83 85 83 81 78 74 69 58 56 53 55 52 46 45 43 43 48 50 52 55 48 43 45 45 47 44 45 54 59 63 64 68 67 62 58 65 70 64 61 60 57 58
70 67 65 68 68 74 80 80 83 89 85 80 75 69 58 56 54 53 52 48 44 38 39 47 48 51 54 45 43 53 55 54 49 52 52 49 52 58 69 65 65 60 62 63 62 60 56 52 55
70 64 61 62 60 62 74 81 83 87 86 84 74 71 63 61 58 54 53 48 41 37 37 43 46 46 50 43 46 54 58 62 54 60 58 56 59 53 61 60 65 62 59 57 58 58 58 56 55
61 60 56 51 53 58 75 81 82 85 84 83 76 71 65 63 60 56 53 49 40 33 35 41 43 45 44 46 40 56 63 56 60 60 61 60 59 52 50 53 55 57 60 63 62 59 59 57 55
54 54 52 49 51 60 73 78 76 78 85 84 81 74 70 64 60 59 55 45 41 34 38 41 41 44 41 41 38 58 69 60 60 64 68 71 68 62 58 53 50 52 55 54 58 61 58 55 55
43 46 47 49 49 55 69 77 79 78 83 85 86 79 73 68 62 60 50 50 50 46 36 35 42 42 40 39 39 62 65 66 71 69 71 67 68 68 64 58 51 46 51 53 59 63 58 54 55
36 41 45 48 48 54 60 70 77 77 80 84 88 85 76 71 64 58 55 55 50 48 38 33 38 40 42 40 41 58 62 68 73 73 73 67 65 68 66 58 46 44 52 54 56 57 60 54 54
30 39 47 43 50 51 56 62 68 74 79 83 89 88 79 72 68 60 60 58 54 47 41 37 37 40 41 42 47 58 65 67 69 73 74 69 67 71 61 54 46 41 41 49 55 58 58 59 54
29 36 46 40 51 50 47 40 59 65 76 82 87 86 81 76 71 62 63 59 55 46 39 37 36 41 45 45 50 53 60 66 69 72 69 64 65 57 55 57 47 45 41 42 48 56 56 56 49
26 32 41 38 38 45 40 36 53 51 65 80 85 86 79 77 72 64 62 60 54 41 32 35 37 41 48 49 53 54 56 66 69 69 68 70 66 61 56 51 46 46 40 36 37 49 55 52 47
25 27 40 40 38 40 43 44 53 64 66 81 82 84 79 74 70 65 64 62 55 41 35 37 43 44 48 48 53 54 53 63 65 69 66 68 64 60 56 44 44 40 42 41 36 41 46 49 39
32 27 33 34 31 36 36 48 51 65 67 77 84 80 82 80 76 66 64 62 56 42 39 44 51 49 45 49 53 52 53 62 64 71 70 62 64 60 52 43 40 41 43 41 38 36 43 42 42
43 33 30 30 30 36 28 40 57 53 71 71 78 83 83 82 82 73 66 67 61 45 44 46 55 57 55 57 51 53 53 60 62 72 74 60 60 61 49 43 42 41 42 33 38 36 35 34 41
43 33 30 30 32 33 29 32 44 50 54 60 74 79 79 81 80 81 67 67 63 48 43 48 52 56 55 55 49 45 51 56 63 66 72 66 61 61 50 47 45 41 43 39 34 37 38 40 37
40 33 31 31 31 29 29 28 50 40 46 56 58 60 77 74 79 79 66 64 64 52 42 47 50 54 55 51 49 45 47 54 58 63 68 68 63 59 50 59 63 49 48 47 39 36 41 41 40
36 35 30 33 28 29 29 27 36 38 48 55 58 53 62 74 71 69 67 64 65 59 46 48 46 50 55 54 48 47 49 48 54 58 63 63 64 62 52 56 58 49 47 47 43 39 39 41 41
35 37 35 32 32 28 27 35 30 33 48 54 55 53 63 73 71 74 72 65 64 64 54 46 48 47 50 51 49 46 47 45 48 56 58 61 60 61 54 56 60 51 47 42 48 44 38 41 38
27 31 36 28 33 30 32 33 37 37 46 51 56 65 68 72 78 76 79 73 66 64 59 53 51 50 48 52 50 49 45 45 45 47 50 51 56 53 56 55 58 55 49 47 39 42 39 38 40
26 27 28 31 31 28 35 39 32 43 49 50 52 62 67 73 77 83 89 87 77 69 63 56 53 50 51 51 52 51 50 47 45 45 45 47 49 51 53 58 61 57 54 47 40 42 42 41 40
27 29 30 30 36 30 31 40 40 40 49 52 52 54 60 60 67 76 82 89 84 78 65 60 58 55 53 52 53 54 54 53 51 46 44 42 46 49 51 58 56 56 51 48 46 46 42 39 36

GFSSGP_prec_cthk_075.txt.gz
RH
52 42 49 51 67 65 82 87 84 77 71 67 63 59 57 56 72 62 63 70 70 68 64 60 54 54 55 52 52 54 54 59 66 53 51 56 54 52 50 49 45 48 53 48 53 51 55 58 68
53 48 50 62 70 78 84 88 91 88 72 67 63 58 63 55 56 54 62 65 64 62 57 54 50 51 57 49 44 46 50 57 64 64 65 62 60 59 61 56 53 55 54 59 63 60 64 66 70
50 55 72 75 70 88 90 88 86 85 73 70 66 68 63 53 51 57 60 61 63 61 61 54 52 52 52 43 39 52 54 59 58 52 46 45 49 54 58 61 61 57 57 59 61 68 72 76 70
77 85 85 85 81 83 83 90 87 84 76 76 71 64 60 55 51 57 57 60 62 65 63 50 48 48 50 40 47 54 56 60 51 46 50 61 57 58 60 54 60 60 56 60 69 75 77 73 61
86 87 87 82 82 85 89 92 88 86 77 76 75 68 59 55 51 55 57 61 65 68 60 51 43 45 48 50 59 55 55 56 49 51 61 62 59 58 58 51 55 61 61 64 75 70 75 69 64
86 83 82 78 85 85 90 93 91 83 84 77 77 70 62 55 52 54 57 59 64 62 62 56 53 46 44 52 54 51 51 48 49 55 60 53 46 46 46 43 47 54 59 65 77 79 82 72 58
83 84 78 77 88 84 84 89 87 82 83 81 77 72 58 56 52 52 57 59 62 64 57 54 49 45 44 53 51 47 40 44 47 54 56 48 47 37 39 46 53 58 62 71 77 80 74 59 57
78 81 74 74 79 84 82 82 80 81 87 80 82 79 58 56 51 51 54 59 60 70 61 61 58 58 60 53 48 33 37 41 50 62 55 43 41 44 50 54 68 70 67 71 74 70 63 57 48
75 82 72 72 75 76 81 84 83 83 80 81 77 69 58 54 52 53 52 55 57 54 63 59 62 66 70 53 39 50 36 39 56 69 68 75 54 59 57 58 76 76 72 67 64 62 54 47 47
75 81 70 66 70 78 80 82 82 82 80 77 73 66 57 54 54 54 51 52 54 61 58 62 69 69 65 52 41 42 57 49 59 65 66 79 73 56 53 53 62 67 68 65 61 66 64 72 59
74 78 67 67 70 76 77 81 82 77 77 74 70 64 55 55 57 54 52 51 52 53 57 60 61 62 69 50 50 54 50 49 50 60 71 60 65 66 61 54 60 68 66 64 70 59 66 59 65
76 71 66 64 67 72 79 77 80 80 81 75 71 64 56 56 57 55 51 51 50 52 52 60 57 65 57 52 58 59 57 50 53 57 56 55 67 74 71 77 61 70 64 66 66 63 58 55 55
67 64 60 60 58 62 73 79 86 85 76 72 70 65 59 57 56 56 53 52 52 45 48 53 56 56 54 49 60 62 61 60 57 61 61 67 62 65 68 69 74 59 64 60 58 66 55 56 55
63 63 56 57 52 57 72 77 80 87 82 76 72 66 60 57 56 56 54 53 49 43 48 51 51 55 46 50 55 60 75 58 64 64 66 69 58 59 54 59 65 67 61 60 58 69 58 57 53
54 57 53 49 46 58 71 78 79 82 80 78 75 69 65 62 60 58 57 53 47 41 43 46 50 51 48 44 46 70 60 61 64 70 70 64 66 56 59 53 70 64 55 57 56 57 56 54 55
47 51 56 50 47 55 65 79 79 73 77 80 79 73 69 66 61 60 58 56 46 43 41 45 50 52 46 43 47 71 73 71 74 73 73 69 70 64 63 57 57 53 53 64 63 60 54 58 54
38 47 48 56 43 53 63 77 76 73 75 79 83 80 74 69 64 60 59 53 51 47 41 39 46 49 44 42 50 70 63 80 77 75 79 67 69 66 65 55 50 60 56 53 64 55 55 53 56
30 38 43 53 47 50 57 89 79 72 74 80 83 84 79 72 67 60 59 58 55 53 44 39 43 48 45 41 46 66 62 79 75 77 76 67 72 64 58 55 41 48 52 60 55 57 65 50 62
33 33 45 46 49 51 55 74 64 68 73 79 79 85 83 79 73 66 59 59 58 50 45 41 40 42 46 46 50 66 68 73 74 78 70 64 76 62 56 56 45 43 50 52 51 53 57 53 48
28 33 40 47 50 51 50 42 50 60 72 76 83 85 83 83 76 68 61 65 65 52 46 46 41 41 46 51 56 62 71 71 67 75 70 73 68 57 53 57 48 47 41 39 51 60 58 54 54
33 38 41 46 37 42 42 45 49 51 60 76 81 83 83 82 76 68 63 62 60 56 46 45 39 40 47 57 56 55 57 70 74 72 70 68 73 63 64 47 47 43 43 36 37 46 55 52 42
31 28 40 43 40 37 35 43 52 48 56 77 76 83 80 78 74 71 64 68 71 53 35 38 36 39 47 52 56 59 57 65 68 69 78 65 63 65 56 47 44 35 57 54 35 42 54 50 43
37 29 36 46 35 35 41 38 60 66 56 69 70 84 83 77 75 74 66 65 69 54 40 38 42 44 45 52 59 54 54 77 73 71 86 65 61 60 53 46 46 42 36 33 53 40 38 45 42
42 46 35 33 35 34 35 28 56 64 64 67 63 69 79 82 81 82 77 71 67 61 46 43 43 52 49 50 50 52 55 61 70 77 68 69 62 61 53 49 52 44 58 35 35 38 33 41 42
47 46 38 41 36 32 31 29 52 59 49 51 63 69 74 83 84 77 82 70 63 64 52 47 46 50 59 54 58 51 50 51 64 69 68 72 63 61 51 51 55 51 47 47 41 35 42 37 36
46 44 32 35 29 27 29 31 46 51 59 54 62 62 75 77 71 74 77 84 63 66 57 50 47 49 58 58 56 51 47 51 58 62 66 72 77 81 51 49 60 49 52 49 44 42 37 42 39
46 41 33 27 23 22 30 40 49 55 48 50 59 64 59 78 77 67 70 70 64 73 61 50 49 49 53 61 58 53 52 50 55 62 61 69 68 79 56 52 59 53 50 50 54 45 39 54 38
46 42 41 35 31 25 28 38 42 52 50 47 53 56 70 74 76 87 77 74 65 65 66 57 50 47 50 57 59 55 52 52 49 50 54 62 66 57 74 50 57 57 52 51 47 46 46 38 42
33 36 39 35 28 26 31 47 49 51 49 45 53 53 56 67 73 82 81 90 80 76 68 66 56 50 49 53 57 54 53 53 52 49 50 49 49 52 52 54 63 65 54 53 50 46 49 42 38
32 34 35 37 35 29 26 52 59 57 48 47 52 56 60 66 76 81 85 82 89 83 87 92 60 57 54 57 54 55 54 55 55 50 49 50 46 46 49 52 59 63 59 56 49 46 49 42 40

GFSSGP_prec_cthk_078.txt.gz
RH
48 40 47 58 71 74 95 88 91 79 72 66 60 63 64 72 73 67 66 67 64 64 62 62 63 62 56 52 52 55 60 63 59 51 56 55 55 51 47 48 49 50 51 49 48 50 55 56 56
51 49 53 60 76 91 94 89 87 80 74 65 61 62 58 61 60 60 65 65 63 63 62 55 54 54 50 47 47 48 54 61 63 62 60 55 58 64 57 52 52 51 55 58 57 59 60 61 62
48 54 65 70 72 96 94 86 81 78 71 67 64 75 51 52 57 59 61 64 61 58 54 49 50 53 43 40 49 55 61 61 56 49 46 48 50 53 60 58 56 57 58 60 70 71 66 65 58
70 80 86 93 88 90 86 86 80 79 70 77 63 58 53 54 56 58 60 60 59 56 51 50 50 51 38 46 54 55 58 55 47 51 59 63 62 60 57 60 58 58 61 66 72 71 69 58 57
86 89 94 86 88 88 86 89 87 78 78 73 67 56 53 56 56 58 61 60 68 59 50 46 46 46 44 52 56 55 56 47 49 57 58 56 58 56 51 56 62 60 65 63 63 66 60 59 55
87 89 85 86 87 87 88 89 86 76 79 80 66 57 57 52 52 57 53 60 59 59 52 42 43 45 50 54 50 51 46 45 54 57 46 43 46 50 49 55 59 60 69 70 71 71 61 54 51
88 88 80 88 82 84 87 85 80 77 83 78 68 59 56 52 51 67 52 62 67 55 52 50 44 39 47 52 46 42 42 46 53 49 45 39 35 42 47 48 54 61 70 73 73 68 55 53 50
82 82 84 79 77 79 82 81 77 80 88 77 75 61 53 52 52 60 57 67 57 56 48 45 44 47 48 49 36 37 39 54 62 46 47 44 45 49 56 59 58 64 67 68 67 58 51 47 50
76 76 73 76 72 76 80 80 79 84 83 79 81 70 54 52 51 58 55 56 78 60 63 52 56 66 54 42 41 34 38 60 69 72 72 61 53 60 71 69 68 66 65 65 57 52 47 47 52
88 81 66 66 67 74 78 78 77 79 81 79 77 67 55 56 52 55 50 52 66 68 66 56 64 59 51 35 40 54 46 52 62 70 96 57 51 48 60 68 70 67 65 67 64 65 71 59 56
91 81 66 66 68 75 80 82 80 88 79 74 73 64 55 56 56 55 57 51 49 59 56 67 64 59 55 41 43 48 48 56 61 62 58 57 55 51 49 58 69 59 67 72 56 59 87 60 54
75 70 63 66 67 69 75 76 75 89 84 75 69 62 54 56 55 51 52 57 50 52 54 69 56 71 52 55 66 54 49 48 53 56 53 68 68 70 89 57 70 60 69 70 53 52 56 55 52
80 79 67 61 65 69 74 74 78 77 77 74 71 63 55 56 53 54 48 59 47 55 51 49 50 61 47 64 60 63 56 53 50 53 55 57 68 61 63 67 59 78 63 60 88 57 58 48 60
65 67 63 57 59 61 71 82 78 77 71 75 71 64 58 55 52 53 54 56 48 45 60 46 44 55 47 51 64 66 65 63 59 57 58 56 61 52 59 63 61 55 78 60 67 58 54 54 47
52 67 59 53 50 56 66 77 78 75 73 79 71 66 61 56 51 50 55 53 48 42 50 44 40 48 43 42 59 88 62 55 71 61 69 64 53 71 50 62 59 55 58 56 63 55 52 51 51
53 54 62 50 46 51 59 79 83 76 76 78 76 70 64 60 54 54 52 52 44 40 52 42 44 41 40 35 55 62 58 70 63 69 64 63 62 63 55 64 50 49 57 57 83 55 57 52 55
43 51 48 58 51 51 55 72 86 82 73 78 75 75 67 65 64 55 61 54 45 42 44 41 52 43 41 34 51 64 72 68 68 83 73 64 63 65 67 58 57 47 68 56 66 54 51 57 56
35 41 51 53 55 55 61 61 91 79 70 75 74 76 73 69 66 66 66 54 49 44 40 40 51 43 41 34 54 63 67 86 74 71 84 65 64 56 52 59 38 51 46 60 58 51 49 72 57
33 33 46 51 49 51 60 65 64 76 75 71 71 73 74 73 70 66 64 55 52 50 45 40 44 40 40 35 46 59 65 64 72 69 65 63 73 53 50 45 38 60 59 60 56 50 51 56 56
28 34 36 56 59 61 62 69 70 66 64 71 68 71 76 78 76 70 60 59 61 48 44 40 41 40 39 37 44 61 60 63 75 73 70 65 58 49 52 42 43 56 56 42 48 59 53 48 48
23 26 32 44 58 63 55 66 70 58 57 65 66 69 72 77 74 70 73 58 65 65 46 40 40 35 38 43 45 62 74 72 74 90 66 59 60 49 55 41 37 53 38 30 45 52 62 46 42
22 28 35 50 52 43 46 49 58 63 61 61 69 66 73 75 78 77 70 59 66 71 56 45 41 35 36 43 50 47 58 70 65 63 73 63 59 54 48 41 36 37 43 40 33 42 47 42 42
28 32 39 44 47 38 31 38 52 59 84 66 71 66 74 70 71 73 68 61 59 62 53 39 35 34 34 43 48 48 53 58 70 72 81 66 57 54 46 38 35 36 60 63 31 43 49 42 47
36 38 35 40 48 38 36 38 64 65 71 85 72 75 81 73 77 72 73 68 64 59 51 34 30 32 34 40 48 50 55 72 83 70 80 69 56 55 44 44 44 41 52 47 53 32 34 38 43
35 41 37 41 45 39 33 40 46 62 66 82 67 68 67 75 81 80 83 73 71 61 62 40 33 34 39 38 45 45 48 66 74 68 78 71 71 61 45 44 50 47 51 47 31 24 29 32 34
36 40 38 39 35 31 30 30 52 60 58 63 62 56 74 80 87 79 76 82 84 73 64 48 32 34 38 44 40 42 40 54 57 69 71 71 82 72 68 59 49 47 45 43 36 38 28 30 28
41 43 41 32 28 26 29 46 61 68 64 60 62 58 69 85 92 85 75 83 85 69 62 55 39 35 37 44 48 46 45 40 45 59 65 63 80 78 73 59 51 48 49 43 46 39 34 37 40
48 40 40 40 40 36 36 39 53 59 57 53 50 53 56 69 81 87 95 81 83 66 81 61 53 37 39 42 47 49 43 39 40 48 51 60 68 85 79 66 55 51 50 51 49 42 50 39 43
42 53 42 39 37 36 47 62 57 71 60 53 50 48 55 64 74 90 83 95 89 80 80 91 68 50 44 46 46 50 46 41 41 40 40 48 53 49 69 64 51 69 53 44 44 49 54 45 35
41 43 40 37 41 35 52 76 69 71 60 53 49 48 51 59 66 69 68 81 87 75 70 73 86 71 45 47 49 47 47 45 44 42 41 44 46 44 49 47 55 66 58 53 50 45 46 48 37

GFSSGP_prec_cthk_081.txt.gz
RH
46 50 53 54 72 89 95 92 95 84 87 71 80 55 73 72 64 68 62 57 58 59 58 61 59 58 53 50 53 57 58 55 53 53 54 52 48 45 46 44 48 50 52 52 54 54 54 57 61
47 50 54 59 75 88 95 90 84 82 82 67 69 56 63 78 61 61 59 57 59 57 57 59 53 47 49 49 49 50 53 59 52 49 50 53 56 56 49 47 47 59 59 63 63 59 60 64 62
49 52 63 72 80 95 90 85 79 83 76 64 61 53 58 63 59 59 57 54 57 57 53 51 49 43 41 44 50 55 56 48 43 45 48 47 50 57 53 51 56 60 61 72 73 64 64 61 57
62 78 87 96 93 97 85 82 82 85 75 64 56 52 51 56 55 55 56 54 55 49 45 48 46 39 42 48 50 51 48 46 53 60 62 59 56 53 57 54 59 59 65 70 65 64 55 57 53
85 88 91 90 89 89 85 84 84 79 80 65 52 55 52 57 54 54 54 52 45 46 48 47 46 39 45 50 49 48 41 46 51 52 51 54 50 51 55 59 59 58 61 63 60 57 56 52 54
85 86 90 93 87 87 86 87 83 75 76 70 54 52 50 55 55 52 53 56 53 47 44 42 43 46 49 45 45 40 40 52 51 42 43 48 51 49 55 58 61 65 68 67 63 55 52 50 53
89 88 92 87 83 86 84 82 80 83 73 68 54 54 54 54 53 50 55 55 54 48 41 41 38 44 44 41 37 39 46 47 40 38 36 39 43 45 49 55 62 67 68 67 60 53 49 50 51
81 87 83 79 79 82 78 82 91 85 78 69 58 53 49 56 79 63 61 57 51 47 44 39 37 44 44 34 35 41 58 50 46 46 43 44 49 51 50 55 62 63 63 61 54 49 49 51 51
82 84 79 77 75 78 78 79 88 85 75 79 70 50 50 56 52 62 58 59 52 47 41 46 52 46 38 33 31 40 63 70 77 58 54 57 63 62 59 57 59 59 57 54 51 53 56 55 50
93 83 73 69 73 76 77 77 83 87 77 81 72 57 51 62 63 56 52 59 69 65 49 54 56 44 34 38 41 44 56 67 73 54 48 51 64 66 65 58 59 59 58 60 59 63 57 53 49
75 85 72 65 67 74 75 81 91 89 83 73 69 53 51 58 46 64 51 45 63 64 55 62 55 45 34 43 47 58 52 59 63 57 58 56 56 58 60 61 61 64 61 60 68 61 57 48 48
74 83 73 67 67 73 76 83 85 83 84 74 68 53 50 56 57 49 51 43 50 54 52 63 52 58 42 51 49 47 49 51 48 64 65 62 63 56 58 66 63 65 59 49 49 49 51 48 52
74 67 77 69 67 70 72 76 80 83 84 73 67 56 53 60 55 50 49 57 50 46 48 55 46 51 48 56 51 49 52 51 52 59 68 77 64 66 65 60 75 64 59 66 49 51 53 50 47
69 69 65 74 67 66 72 76 73 78 75 69 68 60 55 52 54 48 48 58 50 44 45 46 47 45 46 52 56 55 53 52 56 58 54 54 57 62 71 62 55 75 59 53 49 49 50 47 46
66 64 70 74 70 61 71 82 77 74 74 73 71 63 60 52 56 57 52 60 51 38 40 50 44 42 41 51 71 63 55 60 57 58 55 58 55 56 56 56 57 56 53 53 49 50 48 52 47
65 68 66 54 55 54 57 75 85 77 75 76 73 67 64 62 47 53 56 47 46 42 39 42 43 43 37 42 61 59 58 63 67 63 65 56 61 60 53 54 55 54 63 66 64 59 54 47 46
47 53 56 62 63 56 54 74 93 82 80 79 75 71 68 69 54 54 53 55 44 41 39 40 41 39 36 37 52 55 61 63 79 69 67 62 56 59 58 67 47 49 55 60 49 48 53 48 46
42 44 50 57 60 62 68 70 71 85 77 75 75 72 74 67 59 51 49 49 43 41 36 41 44 39 33 39 50 57 76 74 68 70 77 63 58 56 53 38 52 57 52 56 50 53 69 51 44
34 43 49 54 61 74 73 80 64 67 70 72 69 68 72 72 69 64 54 47 46 43 35 39 44 38 36 35 50 57 63 67 73 71 70 79 65 53 54 39 45 46 50 57 50 48 51 50 46
27 36 44 51 64 63 76 73 64 52 64 67 64 65 68 71 75 71 65 54 49 45 43 38 41 37 37 31 47 53 65 60 72 76 66 62 63 53 51 49 57 63 53 55 52 49 46 49 46
26 31 40 49 56 56 78 82 70 68 66 65 63 64 68 73 81 76 66 54 49 46 43 38 36 36 37 36 44 57 61 63 69 72 69 64 59 48 62 41 43 49 34 40 48 49 46 44 45
28 29 32 48 55 60 65 68 71 70 63 58 56 63 70 77 81 81 69 62 53 50 47 41 34 34 34 40 46 62 78 65 80 81 64 62 62 53 49 37 41 46 30 31 45 54 47 41 41
24 30 34 52 54 54 64 68 60 64 74 77 70 68 70 77 79 80 75 64 56 58 55 49 39 38 32 40 47 48 55 59 60 65 73 64 57 54 45 42 39 44 42 41 36 41 43 41 39
23 32 40 44 50 58 46 53 62 64 58 73 92 82 79 74 77 80 77 70 61 56 53 53 42 35 35 37 43 47 45 51 68 70 81 71 57 52 45 44 39 44 52 52 30 42 38 41 39
22 41 50 46 58 55 44 46 69 69 76 76 67 67 72 81 74 70 74 76 68 63 60 51 41 31 32 36 43 48 49 50 69 68 73 70 63 56 47 47 47 47 57 46 39 33 32 36 37
28 39 51 47 48 51 43 60 65 62 67 69 60 55 61 72 80 83 77 76 72 72 64 56 42 26 27 34 41 49 52 51 67 66 70 66 76 66 57 55 50 47 45 45 32 26 25 32 33
32 32 38 43 35 37 49 60 61 59 65 62 58 54 67 74 70 79 84 81 83 78 71 61 53 30 30 35 41 44 46 49 54 56 72 64 79 76 61 62 57 50 44 42 40 38 28 28 27
25 31 40 44 49 43 63 65 75 81 72 69 65 62 62 66 76 76 90 76 83 89 86 72 70 51 34 35 44 50 45 48 49 51 58 59 61 71 72 68 54 54 49 44 43 38 37 31 35
33 39 39 42 46 52 66 80 84 85 76 68 65 62 65 64 65 75 92 91 81 92 92 79 78 71 54 39 46 56 57 53 47 47 57 62 61 70 69 69 64 53 54 44 45 48 47 38 34
39 45 45 47 47 58 72 79 82 86 76 67 64 65 68 67 70 65 67 68 70 88 89 85 98 79 74 58 57 54 50 56 51 48 47 46 48 55 60 62 60 57 67 50 51 46 48 49 42

GFSSGP_prec_cthk_084.txt.gz
RH
55 53 52 55 76 85 95 91 89 86 81 61 50 65 64 61 62 59 46 51 56 61 60 59 59 58 51 52 56 56 56 58 55 54 52 50 53 46 46 51 53 57 59 56 53 57 61 66 64
51 51 53 59 74 90 94 90 96 86 71 82 67 67 68 67 60 51 46 52 57 57 55 54 53 48 51 51 51 52 56 53 49 51 59 58 55 52 50 52 61 62 65 63 61 63 65 67 66
51 57 60 70 87 89 95 92 93 89 71 67 66 65 70 68 57 49 47 50 53 54 54 48 46 44 46 47 52 54 48 42 45 46 45 51 59 56 51 60 62 64 69 69 65 66 62 61 60
67 81 92 96 95 86 92 89 91 91 75 65 58 61 61 60 53 49 48 49 51 52 49 46 42 41 47 50 50 46 41 53 57 57 54 51 56 57 60 59 58 68 68 63 63 57 56 58 61
88 90 95 96 95 87 90 88 89 78 68 59 54 50 54 57 54 50 48 49 49 44 46 44 39 44 50 48 43 41 49 52 51 53 53 52 55 59 60 55 61 60 59 59 55 55 62 64 64
88 89 95 96 89 94 90 88 85 78 64 57 50 46 52 53 52 52 52 46 44 45 44 43 39 48 47 46 37 42 53 47 41 46 52 50 54 60 58 60 61 61 62 58 53 53 60 63 60
88 91 89 89 88 88 88 91 85 71 74 54 47 49 54 54 51 50 49 49 46 44 41 41 43 44 42 38 39 46 43 39 38 36 43 46 53 56 58 65 66 65 61 55 53 50 51 54 60
87 88 86 83 89 88 87 89 80 70 70 54 50 51 49 51 48 53 56 52 49 41 40 35 44 43 32 35 46 55 44 47 40 41 44 44 45 51 59 64 63 61 57 49 46 51 49 50 58
84 86 84 81 76 81 86 84 83 73 67 62 53 47 43 55 57 54 58 52 44 42 39 41 42 36 27 31 43 58 69 60 50 46 51 51 49 54 57 59 57 58 54 50 49 50 46 51 61
79 79 76 75 70 78 84 87 87 78 73 72 58 54 52 54 59 52 55 51 45 40 48 51 39 33 30 31 44 58 66 58 46 47 57 56 53 51 54 53 55 55 56 57 57 51 48 51 57
73 77 70 72 70 76 81 86 87 89 91 75 60 56 54 53 53 56 54 66 60 48 55 50 43 33 33 39 42 48 56 52 46 48 55 58 56 56 62 66 60 63 70 67 57 50 50 51 50
71 77 75 68 70 74 77 84 84 85 85 77 64 56 57 55 55 53 46 56 60 49 62 53 48 43 38 40 47 43 47 49 55 54 51 53 53 55 59 68 64 53 56 57 54 45 44 48 50
76 74 81 75 71 72 78 84 81 84 81 76 67 58 56 52 53 52 42 50 54 48 62 54 57 45 46 44 42 43 45 47 56 59 66 63 58 65 63 62 58 61 48 50 48 46 43 46 45
72 72 84 84 78 76 79 82 80 85 77 75 67 60 57 65 61 47 46 48 49 46 49 48 51 50 49 48 46 47 45 47 54 56 60 63 65 58 63 66 61 53 51 53 47 47 46 43 42
63 72 74 79 81 75 79 86 82 80 77 75 68 65 66 66 52 47 45 49 46 46 44 48 48 45 47 61 55 52 49 55 60 55 57 56 56 59 60 56 65 59 53 52 52 49 45 45 45
67 69 70 78 73 68 71 86 89 83 79 74 69 68 64 55 63 60 53 47 51 44 44 45 44 43 42 58 66 56 60 67 61 60 58 62 57 58 56 58 62 61 64 65 53 55 45 45 45
54 70 67 69 71 72 72 83 83 86 79 78 72 70 68 66 54 53 56 51 44 44 44 41 40 42 37 47 63 56 68 71 70 66 58 57 58 55 62 50 55 55 57 56 50 49 47 46 43
42 52 58 67 80 84 78 75 70 70 79 79 75 72 77 74 61 50 50 53 49 46 41 38 36 40 38 39 55 59 67 70 78 74 65 61 55 52 54 51 53 59 58 50 58 61 52 40 43
42 46 56 65 74 80 81 77 70 65 76 77 72 69 72 74 72 61 49 48 50 45 43 35 38 41 35 34 49 63 80 72 71 79 80 72 56 61 57 54 52 53 59 53 53 60 51 41 43
40 46 50 66 68 72 81 83 81 70 72 75 74 68 70 77 75 70 62 57 50 47 43 39 35 39 37 35 52 57 66 68 74 72 69 72 57 51 47 43 53 48 59 53 49 53 49 45 41
35 41 44 53 70 72 78 77 72 69 69 75 76 69 73 74 73 81 73 62 56 52 48 42 37 35 39 33 41 57 66 65 78 76 66 63 54 52 56 42 63 63 54 59 53 52 47 48 48
29 36 38 48 52 63 65 64 71 68 68 75 74 66 70 76 78 81 82 70 60 57 52 44 39 35 39 37 43 53 63 68 75 78 68 61 57 53 54 37 43 46 36 45 50 49 47 44 47
21 36 37 38 47 65 69 67 66 70 78 73 72 71 68 73 81 81 81 71 69 61 56 49 45 37 35 36 46 50 76 71 80 71 70 66 61 53 46 44 45 41 27 37 48 50 44 42 45
23 37 39 46 53 62 60 66 72 66 60 70 78 73 69 73 76 81 82 76 68 62 67 58 52 43 39 35 42 50 54 62 67 66 87 72 59 52 49 40 42 45 43 42 41 44 42 40 41
26 39 45 50 60 59 55 68 59 65 58 60 68 65 68 71 72 77 80 79 71 64 64 62 63 51 42 40 42 47 50 54 67 75 82 75 63 55 42 43 42 48 47 48 38 33 40 42 40
26 37 48 48 60 49 56 68 69 66 71 73 77 64 71 73 74 74 75 76 75 74 66 65 60 50 34 37 39 46 53 54 71 72 74 74 74 64 50 52 52 53 54 47 38 34 34 39 38
22 34 40 48 48 46 72 75 73 74 73 72 73 66 61 60 71 75 77 77 76 78 75 69 66 54 30 30 33 43 51 57 60 69 71 70 81 76 59 60 56 50 44 44 40 30 26 29 35
18 31 46 53 49 47 74 75 74 71 68 65 62 64 63 60 66 69 76 83 84 87 87 85 72 60 34 27 31 38 45 50 51 57 60 72 70 80 71 67 60 55 49 44 46 38 33 24 28
23 30 42 51 51 51 73 81 78 75 69 69 67 70 68 69 70 71 75 81 82 87 84 89 90 73 59 38 40 42 46 48 49 54 56 57 60 65 75 83 63 57 48 43 45 45 41 30 28
29 38 46 51 54 63 73 81 75 76 79 78 77 75 73 70 72 70 72 74 79 86 81 93 91 88 82 61 50 50 56 63 57 51 48 54 61 64 71 69 72 66 58 49 45 48 47 40 36

GFSSGP_prec_cthk_087.txt.gz
RH
50 50 55 68 78 85 88 86 80 64 57 54 57 62 63 57 52 56 43 54 59 63 64 64 67 59 56 61 63 67 61 59 52 52 52 50 48 46 51 54 62 62 52 51 53 59 60 56 55
52 54 60 67 79 91 89 87 85 70 60 51 65 69 63 61 63 45 45 54 60 61 62 63 61 57 59 58 55 61 64 61 58 62 61 58 53 50 54 58 62 62 58 60 63 63 66 67 65
51 59 60 77 85 83 89 92 93 85 76 63 65 69 69 67 57 44 47 54 56 56 57 55 54 52 53 54 60 53 48 49 54 47 56 67 57 55 59 60 62 65 66 66 66 68 65 62 70
56 73 88 93 88 82 86 94 91 81 75 62 62 71 70 66 48 46 49 52 53 54 50 47 46 47 51 53 50 45 55 61 61 57 52 63 61 62 60 61 67 70 63 64 60 58 59 61 61
88 91 96 96 90 84 91 95 94 84 70 63 60 65 65 55 49 49 50 50 52 49 47 42 44 51 50 48 44 47 55 58 62 63 54 60 60 61 55 62 61 62 59 55 60 63 67 67 64
90 89 96 87 92 88 94 92 90 80 65 59 54 54 59 54 51 50 50 50 47 46 46 39 46 51 47 38 44 51 47 48 52 53 53 60 61 60 61 62 60 60 57 54 61 62 63 63 61
91 90 90 89 90 92 91 93 87 71 63 57 48 50 57 54 54 52 51 46 45 45 44 42 47 48 43 38 44 45 42 38 46 55 54 61 60 59 63 65 69 60 55 58 57 56 61 63 59
91 93 90 85 86 88 91 88 81 74 58 50 46 49 51 52 54 51 47 46 46 42 43 42 44 39 39 47 53 49 43 38 40 46 50 55 54 61 67 72 68 56 53 50 55 54 64 68 64
90 90 88 85 82 84 89 88 80 73 59 51 49 46 46 48 50 51 49 48 42 45 39 44 41 31 34 50 59 66 50 43 44 46 49 49 57 69 63 62 60 55 52 53 49 52 59 65 62
85 85 82 76 78 81 86 87 81 72 66 60 50 49 50 51 53 54 48 45 40 42 41 42 34 30 33 46 67 68 52 49 51 50 50 52 55 56 57 59 57 55 55 57 50 51 59 59 56
81 80 77 72 74 80 81 84 83 74 77 65 53 49 52 59 55 56 51 50 39 45 50 41 34 30 37 49 59 56 49 51 59 57 55 53 54 57 56 58 66 67 60 56 49 50 55 52 50
74 77 75 71 76 79 78 83 85 84 84 76 56 49 50 55 57 55 60 58 46 52 50 46 36 35 38 45 48 52 47 52 58 61 61 57 59 64 61 62 62 62 60 56 52 53 60 48 46
76 77 78 73 80 82 82 83 85 85 86 77 63 53 51 52 55 55 54 62 52 54 59 57 48 44 42 46 49 46 50 56 57 57 59 60 63 65 64 60 54 54 52 50 48 48 51 46 45
78 76 76 71 78 81 86 85 86 84 82 78 66 56 54 52 52 53 51 56 51 50 57 50 49 51 48 45 48 49 53 54 58 69 64 60 65 64 63 58 58 52 53 52 48 45 44 43 42
67 70 72 77 74 80 82 90 86 87 83 76 69 59 60 63 56 46 46 53 49 44 48 50 47 50 58 47 49 50 52 56 54 58 65 63 58 61 63 63 57 53 55 49 48 46 44 43 41
66 70 79 78 82 82 83 88 87 85 81 79 72 67 63 71 58 52 54 49 50 44 42 44 45 41 55 62 55 56 62 57 57 58 55 56 54 55 60 66 59 54 53 51 50 47 45 43 42
64 74 72 81 86 84 82 83 75 83 81 76 73 72 77 61 58 59 54 51 47 43 42 41 43 40 43 66 59 59 70 68 60 54 57 55 50 52 54 59 59 64 61 56 52 47 46 42 41
52 69 72 76 82 84 83 76 70 77 79 80 76 75 75 67 56 54 57 52 52 47 43 39 38 41 39 50 60 60 69 74 68 63 58 55 58 59 59 54 55 57 54 53 53 53 47 43 44
46 51 50 65 73 85 86 81 74 80 83 82 77 74 73 75 70 60 54 54 54 48 45 42 36 37 38 38 53 69 67 72 78 76 69 60 61 56 50 50 55 58 50 55 58 54 41 43 43
44 50 53 69 75 82 84 81 78 75 79 77 75 74 72 80 76 69 57 55 53 50 48 45 38 37 36 32 49 62 74 71 73 79 76 69 57 64 55 54 51 55 53 52 56 50 45 40 42
43 49 48 61 70 77 83 84 80 78 76 80 81 79 74 73 74 77 72 60 60 53 50 47 44 38 36 32 43 57 66 70 76 75 68 67 57 53 50 45 55 48 54 50 50 59 51 43 40
41 50 48 56 62 70 71 74 75 71 74 77 85 80 71 71 71 79 82 71 62 58 55 50 45 43 36 34 34 52 60 66 76 77 69 64 55 51 59 43 54 57 59 57 52 51 49 52 48
35 44 46 50 55 57 63 66 64 66 71 71 77 74 63 72 75 75 82 80 74 70 59 52 48 43 37 35 34 45 59 65 77 80 69 64 59 52 50 42 40 47 40 42 52 51 48 51 53
31 36 47 48 50 59 54 60 63 72 63 64 69 73 71 65 71 79 85 86 85 83 68 61 53 47 38 35 33 40 58 70 76 69 71 69 62 54 49 43 43 38 34 35 47 52 52 48 53
22 37 52 62 62 59 51 65 61 72 65 62 69 72 77 76 77 76 82 82 84 83 69 67 69 52 47 45 38 37 45 53 62 66 78 85 68 52 46 39 41 47 47 39 40 51 48 44 46
22 31 46 54 64 51 53 59 68 70 67 63 71 74 76 80 78 76 79 82 82 84 77 66 65 68 54 47 38 37 44 48 62 69 81 79 69 61 44 48 49 50 49 42 42 38 40 44 42
24 31 35 47 48 46 66 67 67 70 69 69 71 74 71 75 78 79 81 82 83 81 78 73 67 66 57 51 38 37 40 48 59 71 72 76 75 75 59 53 58 56 51 46 44 35 34 37 40
24 29 37 46 52 50 73 71 71 72 71 73 77 79 73 69 73 74 75 80 81 82 83 80 76 75 64 47 37 37 38 48 57 61 70 74 74 88 72 65 62 63 56 49 45 41 31 30 34
25 32 41 45 51 58 78 69 68 71 71 72 73 74 74 68 72 71 73 80 82 86 88 92 85 87 77 54 34 34 38 47 57 55 61 68 78 76 83 78 76 66 58 48 47 45 41 32 26
27 30 40 47 55 65 67 69 68 70 69 68 68 73 76 76 74 74 79 83 86 86 87 85 90 90 93 66 49 36 40 46 50 56 58 60 60 62 72 81 79 68 61 48 48 49 47 47 34

GFSSGP_prec_cthk_090.txt.gz
RH
52 51 56 68 79 88 88 80 69 53 55 54 52 48 50 48 54 50 47 53 60 62 66 74 65 58 58 58 61 59 56 52 53 51 50 53 51 52 57 60 61 56 55 58 58 58 57 55 53
54 53 56 67 80 92 89 79 64 56 56 52 62 58 60 56 62 45 51 56 62 63 65 66 60 62 60 55 58 63 63 59 60 61 57 54 53 55 61 68 65 62 66 66 65 65 60 60 50
51 54 61 76 87 91 90 87 66 70 54 62 67 66 66 66 51 47 52 58 60 61 64 59 56 52 53 57 56 53 52 54 52 58 63 55 57 61 67 74 70 74 77 71 72 67 70 66 54
51 62 76 86 88 83 87 86 78 73 56 55 67 68 67 68 45 48 52 56 56 56 54 51 48 53 57 56 48 52 59 57 55 59 66 60 60 61 65 73 75 69 69 65 60 61 63 59 54
78 89 99 93 90 86 85 86 81 71 61 58 64 71 68 57 46 49 51 53 53 50 47 45 52 55 55 48 54 63 60 61 55 56 63 62 63 62 69 70 65 62 58 61 66 67 62 57 51
91 91 95 94 89 88 94 89 85 72 63 65 66 65 61 50 49 49 49 49 50 46 42 48 57 52 46 49 59 59 54 60 60 62 66 65 60 61 60 63 61 54 56 61 65 65 63 63 55
91 92 93 91 92 93 91 90 84 71 63 62 57 61 56 50 51 50 48 46 45 43 40 50 55 48 44 51 59 51 47 55 57 60 63 64 61 63 66 63 60 55 59 56 60 66 69 62 53
89 91 92 88 90 95 94 86 73 66 61 57 53 55 54 50 52 50 48 44 43 43 40 45 45 43 50 60 58 47 42 50 55 59 63 60 65 69 70 62 56 49 50 54 62 72 69 67 50
87 91 89 86 83 87 88 83 77 61 55 51 50 49 49 48 52 49 45 44 43 41 40 43 37 37 56 62 64 48 43 45 50 59 57 63 71 70 71 62 53 50 53 60 65 71 70 64 54
80 87 81 81 79 86 84 80 75 59 54 52 47 49 50 48 49 46 44 44 44 39 42 38 32 33 52 68 63 47 45 48 46 49 52 63 65 63 61 58 52 52 52 52 57 61 63 59 55
80 81 78 77 80 82 86 82 74 68 62 51 45 47 49 48 49 46 47 42 43 39 41 34 29 34 48 63 57 48 52 51 51 51 55 58 57 60 58 59 60 58 54 50 54 56 53 52 46
76 76 76 74 79 83 82 83 77 75 70 58 44 43 49 53 49 50 50 40 41 49 43 35 32 39 48 50 53 49 58 58 55 53 53 58 59 57 60 63 63 57 52 56 57 51 50 48 41
77 79 77 75 81 83 82 87 78 86 80 66 49 53 50 53 49 51 54 44 50 54 53 48 39 40 43 49 48 47 57 61 62 59 61 63 67 63 58 56 56 55 51 53 57 52 47 44 41
76 81 78 81 83 83 82 88 86 88 87 74 56 53 52 53 52 51 55 53 50 54 58 52 44 45 44 48 49 52 53 59 62 61 59 61 63 62 58 57 55 54 54 49 48 46 45 44 40
76 82 78 76 83 87 87 90 87 86 87 77 63 55 53 52 51 48 51 55 47 50 55 48 49 52 46 47 51 55 51 56 64 66 63 65 65 67 61 54 52 55 50 50 48 46 44 43 38
77 77 85 81 82 83 85 92 82 87 84 75 67 59 51 51 50 49 53 55 52 46 48 48 45 54 57 51 54 54 56 55 59 60 64 61 61 61 63 57 53 51 52 52 48 46 44 42 39
74 77 79 84 81 87 85 85 85 86 86 78 71 66 62 62 56 54 53 52 49 46 46 45 44 45 63 58 56 64 61 59 56 59 57 55 56 60 64 62 58 57 59 53 46 46 43 41 39
66 73 76 79 76 80 83 83 83 85 83 80 74 72 69 67 50 54 54 50 51 48 44 42 42 41 46 63 57 67 72 67 60 58 58 56 54 57 52 53 56 55 59 50 48 47 42 40 40
54 64 67 70 76 81 83 88 76 81 82 81 79 78 78 59 53 55 55 55 55 49 46 43 36 39 39 48 61 61 72 75 69 63 64 60 57 50 54 52 53 55 50 51 54 47 40 44 40
49 53 68 76 75 83 95 90 82 78 80 78 78 73 77 70 59 55 53 52 51 52 48 46 38 38 38 38 52 76 71 73 78 79 70 66 59 62 51 48 54 53 50 50 53 44 40 42 39
46 50 55 67 80 84 84 88 88 81 80 79 74 69 70 72 71 65 56 53 52 49 47 48 43 37 38 35 43 60 71 71 72 74 70 67 56 53 47 47 49 50 52 49 51 46 42 39 39
47 49 50 63 71 81 83 88 82 77 75 74 77 74 68 67 72 74 71 64 53 52 53 50 46 42 37 31 37 52 61 67 75 75 64 61 58 52 52 43 54 48 52 50 49 53 48 38 43
48 48 49 56 61 74 77 71 61 72 74 72 70 76 68 66 71 78 81 74 66 59 57 55 51 44 42 33 33 40 54 64 72 74 71 62 58 53 56 46 40 52 56 53 50 49 47 46 45
45 47 50 62 59 68 62 59 59 74 66 65 69 76 70 66 73 73 81 81 76 74 78 62 53 46 43 38 33 34 48 59 76 78 70 67 62 55 51 48 40 45 46 38 44 48 47 47 48
37 44 49 66 69 68 55 58 51 69 69 62 64 71 75 72 68 76 80 84 85 84 83 70 60 55 48 42 42 36 42 66 70 72 70 75 67 55 47 45 43 43 39 34 38 49 48 48 46
27 40 48 59 66 59 59 55 50 66 70 65 63 69 77 79 71 74 78 83 85 85 84 78 65 68 55 53 49 42 40 46 54 65 69 87 79 60 46 42 43 45 52 45 42 43 48 43 43
23 31 36 45 47 54 64 57 54 63 72 69 66 70 76 76 79 80 80 80 86 89 89 88 75 66 67 61 53 43 40 41 48 62 68 81 75 68 53 48 54 51 52 49 43 42 44 37 38
24 23 36 41 49 48 71 61 50 63 73 70 66 73 75 76 75 77 79 80 86 90 86 89 80 75 77 64 56 42 44 42 49 62 70 73 77 78 76 59 63 65 59 52 43 40 38 34 34
27 31 33 38 44 61 72 59 53 57 67 72 71 73 77 76 78 76 80 79 85 90 92 90 87 81 85 97 65 40 44 42 49 55 64 71 75 76 84 82 66 65 66 58 52 47 43 38 30
28 30 36 39 45 58 61 52 56 56 64 70 72 78 80 79 77 79 82 80 78 89 94 92 91 92 87 96 79 56 39 38 44 55 57 61 70 79 79 83 78 80 67 57 49 48 50 47 38

GFSSGP_prec_cthk_093.txt.gz
RH
48 48 59 70 76 74 73 66 60 54 53 48 43 40 45 50 49 43 49 58 64 64 73 69 60 56 57 59 63 57 53 51 51 48 48 50 53 60 64 66 58 56 55 55 54 55 57 58 55
51 51 58 70 76 76 76 63 54 54 51 46 47 45 52 64 54 45 52 56 60 61 68 60 54 57 57 61 65 63 59 62 64 57 54 54 58 62 67 63 61 62 61 60 57 57 52 45 39
50 55 68 77 84 76 71 63 62 55 51 58 59 57 63 62 46 51 53 58 59 60 61 53 52 52 56 62 63 59 55 53 66 63 60 60 66 71 71 67 71 68 68 67 66 70 58 50 46
55 63 77 88 82 78 67 64 72 56 60 68 64 65 65 56 48 52 56 56 56 57 51 48 50 55 57 55 54 58 57 53 61 62 63 65 66 71 74 72 71 70 68 71 72 70 58 50 47
71 78 89 87 81 81 75 69 63 53 54 58 62 68 67 49 50 54 56 55 53 50 47 51 53 53 48 53 60 63 63 60 64 65 62 64 68 75 73 68 66 59 62 68 66 65 59 53 45
85 92 96 91 82 81 75 75 65 58 58 61 59 63 61 50 50 54 55 54 50 44 47 54 49 47 50 57 59 58 61 54 62 67 64 62 69 73 70 64 59 59 65 67 67 67 58 51 46
89 91 92 85 89 84 80 78 68 60 61 61 59 61 52 51 53 52 53 51 45 40 51 56 49 47 58 56 52 54 56 56 63 64 60 67 70 70 68 62 59 60 61 61 66 65 58 50 46
87 89 89 90 88 88 86 81 68 60 61 60 59 56 52 51 51 50 49 46 43 40 47 50 50 55 65 58 46 43 55 57 60 61 63 69 70 66 66 59 53 53 57 67 69 68 54 47 45
87 90 91 85 84 85 80 72 64 58 55 52 52 49 51 53 52 51 48 44 41 39 45 41 42 58 65 57 48 46 50 56 60 65 64 69 70 74 65 56 49 53 60 68 70 68 58 48 42
82 83 82 80 79 84 78 75 62 53 51 49 50 49 55 53 53 50 48 43 41 39 41 35 35 57 65 55 46 43 47 50 56 54 62 66 69 68 60 50 50 54 57 61 73 67 57 51 48
79 80 79 81 78 80 81 77 63 52 47 43 44 44 53 54 53 50 48 45 40 40 37 31 34 53 67 50 47 46 47 47 51 59 63 63 61 58 54 54 55 52 50 52 57 55 50 45 44
79 77 77 79 81 83 85 76 66 57 51 42 46 48 48 50 51 52 48 44 38 42 36 28 36 48 52 50 53 54 50 52 52 55 56 58 57 57 58 58 54 49 48 51 51 48 42 39 40
78 78 75 78 80 83 85 79 70 68 59 49 48 52 51 48 51 52 44 40 48 44 37 33 38 46 47 46 53 58 57 56 54 55 60 60 56 52 53 52 51 50 52 52 48 45 41 39 39
77 78 78 80 85 82 83 83 75 80 66 54 46 48 51 48 49 52 40 46 53 55 47 40 41 42 48 46 47 57 59 59 59 60 63 63 58 55 53 52 51 50 44 42 43 41 41 38 44
80 77 81 81 84 85 89 88 85 89 77 61 51 51 50 51 50 53 52 48 50 52 48 46 46 42 47 50 54 51 58 62 61 59 63 63 60 57 49 50 50 49 47 44 42 41 40 39 47
83 81 83 83 85 92 93 89 88 89 89 71 59 53 54 53 50 49 52 49 47 49 47 47 51 48 48 51 55 51 56 58 62 63 59 58 61 59 56 51 49 48 47 45 42 40 38 40 48
81 79 81 83 85 89 91 90 90 93 91 71 63 55 51 48 48 50 50 49 44 45 45 45 48 61 53 55 59 54 58 57 56 56 56 60 60 59 61 55 52 54 50 44 42 40 37 39 48
76 74 76 80 83 85 90 90 91 96 91 75 69 61 51 53 49 49 49 48 46 42 42 45 45 54 65 57 63 66 60 57 55 54 51 51 54 53 55 53 56 56 50 45 43 39 36 37 45
64 69 70 71 75 82 84 89 90 94 90 81 75 71 65 61 53 55 51 52 48 45 43 39 42 43 52 63 59 72 70 65 62 60 58 58 58 56 52 52 55 52 53 50 49 39 38 40 40
54 62 61 75 78 79 85 91 93 91 89 84 77 75 72 62 54 54 52 53 50 47 46 40 38 41 41 52 62 64 72 75 75 70 67 61 54 54 49 50 54 53 48 51 52 41 39 40 39
48 53 69 70 85 85 85 90 91 87 89 88 85 74 77 64 55 53 49 49 49 49 49 46 37 38 39 42 58 75 72 73 77 74 70 67 59 58 52 50 52 54 50 47 49 40 39 36 39
49 48 57 64 69 82 82 90 83 86 84 84 80 77 74 77 66 61 54 49 48 48 50 49 45 38 38 36 45 62 68 71 75 72 65 64 57 53 49 44 50 48 50 50 50 49 44 36 39
51 48 49 60 68 74 76 80 75 76 81 75 76 78 73 71 73 66 63 59 50 50 53 52 49 42 39 36 37 49 63 68 76 75 69 58 55 51 54 51 47 52 55 51 48 49 47 39 39
51 51 53 58 57 61 68 61 62 70 67 68 76 79 77 71 70 73 81 75 64 52 51 54 52 46 44 38 35 38 54 66 71 73 73 64 60 55 49 47 41 40 46 50 45 48 47 44 42
46 50 54 57 60 49 54 62 52 63 67 65 66 73 74 74 73 74 77 79 71 68 67 77 58 50 50 41 39 36 43 57 73 81 73 67 65 57 49 47 42 41 43 39 34 46 49 45 43
35 44 48 52 58 49 60 50 48 60 62 64 61 66 69 71 70 76 77 79 81 84 85 88 70 61 55 49 50 46 39 47 71 75 72 73 83 69 54 47 45 40 42 41 37 39 47 46 44
22 31 42 48 49 44 55 54 54 55 63 62 59 63 68 74 73 73 79 82 84 87 85 84 75 66 72 61 57 56 48 42 49 58 71 74 84 72 58 51 52 48 50 49 41 40 41 43 39
23 21 34 41 50 46 53 51 41 48 56 64 68 68 72 76 78 77 80 83 85 85 89 89 91 78 73 70 71 66 58 50 44 52 63 69 78 74 71 55 54 60 54 48 43 39 39 40 38
25 26 27 40 41 38 44 42 43 45 48 62 70 68 71 75 75 75 80 83 87 87 89 90 92 89 82 89 85 68 63 52 49 49 59 73 76 78 78 77 64 59 65 60 55 50 41 36 33
25 27 27 25 42 45 41 41 46 48 50 58 71 71 70 74 75 76 77 83 85 86 89 92 90 91 91 86 92 87 73 54 53 47 52 61 71 75 78 80 84 71 73 70 58 53 46 44 41

GFSSGP_prec_cthk_096.txt.gz
RH
46 48 65 72 78 68 57 56 51 49 46 41 39 41 47 53 50 56 63 67 71 71 74 70 59 56 59 74 57 52 50 47 45 47 48 52 59 59 62 59 55 58 62 59 60 58 55 47 34
49 52 64 69 78 67 61 48 50 49 43 41 42 51 58 58 47 54 62 65 68 76 73 61 55 57 62 63 63 61 60 61 55 53 53 58 59 63 59 63 69 65 63 58 56 49 44 40 40
50 60 73 75 79 69 59 49 55 46 43 46 44 59 59 50 53 58 62 64 68 74 65 55 55 59 63 64 60 55 58 67 62 59 58 63 70 68 66 68 70 68 66 73 68 53 48 45 50
61 69 77 81 76 69 55 56 52 46 50 54 58 61 51 51 54 59 63 66 67 64 64 53 62 66 62 57 55 56 53 65 62 62 64 68 69 70 73 74 75 72 71 70 62 53 46 45 44
67 79 80 81 72 64 61 66 53 58 59 64 66 61 49 53 56 60 62 63 62 61 62 58 55 55 54 60 61 60 56 61 63 63 68 73 78 78 72 67 67 71 68 68 62 52 45 40 37
78 86 83 78 72 67 64 57 51 55 54 61 62 59 51 53 57 60 59 58 59 60 62 57 52 51 57 60 59 58 57 64 64 63 71 78 75 69 64 61 62 65 67 67 63 54 45 41 37
85 90 84 78 75 69 66 60 58 54 57 58 56 55 49 55 57 59 58 51 54 60 62 57 60 57 55 58 54 59 56 62 61 73 70 74 70 66 59 59 61 60 59 63 58 51 47 42 39
82 90 86 83 79 69 68 60 59 61 62 59 56 55 47 53 53 57 55 48 48 57 62 60 66 67 62 53 50 56 59 60 62 64 66 64 70 68 56 54 55 60 66 67 60 49 43 42 39
84 86 89 83 77 74 72 63 59 59 59 57 57 47 49 50 52 54 51 47 46 52 54 61 69 69 59 52 47 56 57 60 63 65 68 76 77 74 67 55 55 61 67 67 60 51 45 40 37
81 81 84 78 75 74 67 62 57 56 54 54 50 51 52 50 52 54 48 47 45 49 49 54 68 68 62 50 54 59 62 67 67 66 71 75 78 70 55 49 55 59 66 71 62 50 48 48 49
78 81 80 77 77 71 67 59 54 53 53 49 49 49 52 51 52 53 50 50 48 46 42 43 66 65 54 52 55 56 62 63 59 66 70 69 69 63 61 58 56 54 61 68 58 51 48 47 52
75 75 78 77 79 75 74 62 53 51 49 46 48 48 51 52 52 50 52 48 46 45 39 42 56 61 55 55 57 56 57 61 65 66 65 64 63 62 64 57 50 54 56 54 52 47 42 45 48
75 75 75 78 80 80 77 67 57 53 45 44 48 50 53 55 56 51 50 46 48 43 38 42 50 51 52 61 59 60 59 62 60 62 59 58 55 58 58 56 56 60 57 53 49 44 43 46 48
74 74 75 79 81 84 80 72 67 62 49 47 50 52 52 53 52 46 44 51 52 48 42 41 46 49 50 57 59 61 60 61 62 64 59 61 56 53 52 55 53 49 49 48 45 40 45 49 47
78 75 78 81 82 83 84 81 78 70 55 49 50 53 50 50 52 44 47 55 58 51 47 43 44 50 50 52 59 63 65 64 64 63 57 54 56 48 52 53 52 50 44 43 42 43 48 52 54
82 78 82 84 84 90 87 86 84 76 65 52 50 54 51 52 50 52 48 54 55 51 46 48 46 50 49 53 56 62 62 68 61 62 63 59 57 52 53 54 52 48 46 46 45 44 53 57 58
86 79 80 86 87 89 92 92 91 89 80 64 53 52 55 52 52 55 54 50 53 49 44 55 52 53 55 55 53 57 58 61 63 65 64 58 58 59 55 55 53 48 46 47 47 42 51 57 59
84 79 76 80 89 86 91 93 95 93 83 72 58 54 54 54 52 53 53 50 47 47 45 48 60 57 56 62 56 59 59 60 56 56 58 56 57 56 57 57 56 55 50 46 45 38 40 51 53
73 76 74 78 87 95 90 93 95 98 96 73 64 51 54 53 53 52 54 48 46 46 47 46 50 65 61 61 71 67 64 60 58 56 52 54 56 49 49 54 52 52 51 48 42 41 40 49 46
65 72 71 76 80 83 93 94 94 93 92 79 71 64 61 59 55 53 52 49 47 48 44 43 45 45 61 63 67 77 72 69 68 66 61 56 50 47 48 50 55 49 50 51 44 36 48 44 42
55 63 63 74 81 83 88 89 90 93 95 85 76 74 71 65 57 56 53 52 49 50 46 41 42 42 44 59 68 73 74 76 74 70 68 62 55 56 46 47 54 51 49 50 43 38 39 48 40
49 50 65 73 72 84 81 87 80 86 95 88 79 77 76 67 59 57 52 52 52 50 50 47 40 42 38 43 64 78 75 75 74 74 69 65 54 53 48 44 46 47 50 47 47 43 40 42 48
53 48 58 62 70 71 79 73 75 84 84 90 83 75 78 73 61 57 52 51 52 51 53 50 45 41 41 35 51 66 74 77 79 74 66 64 56 51 51 44 44 45 49 48 48 45 41 38 44
50 49 52 57 63 63 64 62 71 75 72 73 80 79 75 74 73 65 65 64 58 56 56 55 52 43 38 38 39 51 69 73 80 77 75 65 62 55 51 49 37 44 51 49 48 45 44 42 42
51 53 54 53 55 49 62 57 56 65 68 65 73 77 79 76 73 68 68 72 69 58 56 56 55 48 44 37 40 39 57 68 74 81 81 73 68 65 55 47 46 39 37 41 44 43 50 43 44
46 48 50 58 52 48 47 57 52 57 63 65 69 70 73 77 75 71 73 82 79 72 62 60 68 57 52 44 39 39 41 58 70 83 83 76 77 73 61 50 49 44 39 36 32 36 50 50 46
32 48 47 48 52 44 50 46 51 51 57 58 60 66 71 76 75 74 77 81 84 76 76 79 87 85 65 55 50 48 46 46 57 78 78 80 87 83 70 52 50 47 43 44 38 40 39 48 48
26 30 47 43 50 45 48 50 47 52 51 59 58 65 69 73 75 75 77 82 80 85 85 84 90 85 76 70 62 63 64 57 49 53 64 74 76 77 79 63 56 54 53 55 49 45 38 39 43
23 22 26 38 39 37 41 47 51 51 51 50 55 68 70 75 79 82 82 80 85 86 88 88 90 88 82 80 71 66 73 67 56 53 55 61 68 71 81 78 72 65 65 64 58 54 47 39 39
24 23 24 24 40 39 39 47 54 44 46 47 52 67 71 77 80 79 80 83 84 84 86 88 94 90 87 87 81 83 83 77 64 56 53 60 72 79 79 77 82 77 74 70 70 63 59 55 42

GFSSGP_prec_cthk_099.txt.gz
RH
44 58 66 81 86 69 55 52 49 44 43 41 40 47 56 59 64 59 66 72 69 71 68 62 55 56 66 60 48 48 51 48 48 47 52 58 59 63 55 57 60 56 59 61 63 60 39 34 39
51 60 70 74 85 62 52 47 47 42 38 37 45 58 53 50 54 56 64 68 71 71 67 60 54 67 63 62 59 54 51 46 48 51 56 60 63 64 65 61 61 56 56 53 46 43 42 42 43
57 64 80 75 85 69 47 47 47 40 37 41 59 70 50 52 57 59 61 67 72 65 65 55 60 66 66 65 57 60 65 59 57 58 59 64 68 68 66 66 64 70 70 63 57 54 49 51 44
69 73 70 85 85 62 43 49 43 40 42 51 58 46 49 54 62 59 65 73 62 65 64 59 65 65 62 53 53 52 66 62 60 63 67 70 66 69 74 72 70 70 65 64 57 50 48 44 44
73 76 77 88 73 56 54 46 43 43 50 63 57 46 52 56 60 62 61 65 69 65 60 62 58 56 61 59 57 56 60 62 63 67 71 72 71 72 73 69 73 71 68 60 53 46 40 39 40
83 74 75 76 68 57 59 48 51 57 62 61 54 47 54 58 65 60 60 66 74 65 65 56 50 54 59 61 60 55 64 62 66 72 74 75 69 63 60 67 65 64 66 60 50 43 38 35 36
85 88 82 74 70 59 61 52 55 52 52 61 51 48 52 60 62 59 58 62 63 62 61 60 60 56 54 56 56 57 62 64 70 72 73 67 61 58 58 61 59 62 64 57 48 41 39 37 36
86 92 85 84 65 68 59 54 48 49 52 55 54 50 50 56 58 58 54 56 65 61 71 74 71 65 58 57 55 56 59 63 64 66 65 66 61 55 57 56 59 64 61 53 45 41 38 36 36
81 93 87 81 69 64 57 57 61 59 59 57 57 47 49 51 57 55 50 51 57 58 69 77 68 59 54 54 54 59 62 62 62 69 78 77 73 63 64 57 61 65 64 55 49 42 38 39 37
81 84 84 82 68 68 62 53 57 62 59 55 49 48 48 51 54 52 49 50 55 59 66 70 69 66 57 56 63 63 65 71 72 77 84 79 73 58 54 53 60 65 67 58 50 48 45 54 53
76 84 82 78 75 68 59 59 53 60 54 52 50 48 47 50 55 52 51 51 54 54 52 71 61 56 55 58 63 66 71 70 69 75 74 69 62 62 59 53 59 69 71 64 51 60 53 53 59
73 76 79 76 73 68 61 55 55 53 56 53 52 50 48 50 54 53 52 52 48 46 45 63 59 57 55 55 62 69 65 67 75 71 70 66 66 66 61 62 55 64 54 51 63 49 52 50 56
72 76 77 78 75 71 64 54 54 60 50 50 51 54 53 55 53 54 51 49 49 40 43 55 57 54 58 61 63 64 64 68 65 67 65 64 68 60 58 64 60 52 56 60 53 49 52 55 56
77 77 76 81 81 76 71 59 54 49 45 49 50 54 56 57 53 54 50 49 48 41 43 50 55 54 61 59 59 61 65 62 66 65 63 61 58 61 52 54 58 55 54 52 51 59 58 60 47
75 78 78 81 77 77 78 66 68 54 48 48 52 52 56 60 55 48 51 54 53 47 45 48 54 55 58 56 60 63 61 65 69 60 56 55 54 56 52 54 53 49 41 44 50 53 52 54 48
78 79 86 87 76 80 81 85 73 60 54 50 55 58 56 55 55 46 52 59 58 50 48 47 56 53 56 62 62 70 65 63 63 63 60 56 51 51 57 53 58 46 50 49 57 62 63 61 57
83 86 82 85 79 85 84 90 84 74 58 54 55 58 56 56 54 49 53 58 59 49 51 52 56 55 57 51 66 58 64 64 62 63 61 59 56 53 60 53 52 53 49 49 57 62 64 57 56
74 92 80 83 86 83 91 95 88 82 73 58 55 55 57 52 55 57 56 58 59 49 52 54 55 59 64 52 55 60 69 59 64 66 62 56 60 56 60 57 52 47 54 47 45 54 59 56 57
81 82 93 85 87 86 89 87 93 88 81 73 61 56 57 55 54 57 59 58 53 53 46 58 59 57 64 60 56 61 61 61 60 63 53 54 51 52 51 61 50 47 52 48 40 48 57 55 51
64 80 91 92 84 78 86 88 92 97 86 83 67 59 58 57 59 55 56 56 52 51 50 47 67 65 63 66 70 63 66 63 64 64 58 60 53 49 50 55 54 64 49 47 38 45 55 53 54
53 67 76 95 90 86 86 94 96 97 93 91 80 66 54 56 58 54 59 54 54 48 45 47 48 62 62 73 76 73 73 76 74 70 61 58 56 54 53 49 70 45 52 47 39 40 50 58 46
51 62 69 95 75 86 89 93 91 93 94 93 87 70 63 60 63 58 57 61 57 53 52 45 44 47 51 61 73 71 81 82 78 80 76 67 58 54 52 52 51 49 51 58 40 42 40 51 54
55 57 72 88 77 69 76 74 84 83 88 95 78 82 83 59 56 72 57 58 60 56 56 49 43 43 44 47 73 79 80 81 75 80 76 70 56 53 52 48 51 46 46 46 63 42 43 46 50
55 49 49 61 63 74 62 58 73 70 79 88 81 90 76 79 70 65 57 60 60 58 59 56 47 43 42 39 46 65 78 76 77 82 82 67 61 54 52 54 45 52 53 49 47 47 43 46 42
52 48 51 53 86 57 58 56 58 63 69 80 81 75 81 79 65 80 65 57 55 57 55 59 54 48 42 40 43 50 68 74 81 83 80 81 76 86 60 49 51 43 43 55 53 46 51 43 45
40 42 49 54 50 52 60 56 61 53 53 61 69 74 83 76 82 70 64 63 64 69 56 59 58 53 48 44 42 42 48 66 73 78 88 77 64 64 67 50 51 51 44 45 46 46 44 49 44
35 44 47 49 47 62 55 59 60 48 54 60 62 63 69 73 74 71 75 67 74 80 72 63 59 65 60 49 43 47 48 47 67 72 79 79 78 92 85 55 48 51 51 46 47 37 45 65 48
28 35 45 43 52 56 57 55 52 53 54 57 61 67 66 68 78 76 71 72 74 84 88 79 75 83 88 73 56 53 55 49 48 55 72 69 79 96 94 68 56 52 52 53 51 50 44 38 45
22 26 39 39 36 40 50 54 54 56 47 55 63 68 67 72 77 79 75 83 78 84 85 84 82 83 85 87 68 70 62 62 62 54 49 57 62 65 66 75 71 64 61 60 59 53 58 50 40
27 25 29 34 43 33 37 61 67 55 62 53 55 60 71 77 78 82 82 82 84 84 82 86 86 85 89 89 89 84 77 72 75 72 55 54 57 62 65 81 79 80 73 68 67 68 67 61 55

GFSSGP_prec_cthk_102.txt.gz
RH
46 61 69 82 89 72 55 55 46 44 45 44 52 56 59 65 59 61 65 70 67 65 61 57 56 59 54 47 51 55 52 52 52 51 56 58 54 56 63 62 62 62 62 65 48 36 36 43 44
50 66 74 94 88 73 54 50 45 42 39 51 53 50 54 56 57 59 65 66 73 66 60 52 61 64 60 54 51 49 47 48 53 56 59 64 66 62 61 60 60 55 49 44 41 41 40 40 49
56 68 78 83 83 62 47 50 46 36 41 61 66 60 49 54 59 56 62 65 67 67 59 56 60 66 64 55 63 61 57 54 58 59 64 63 70 67 67 70 75 67 60 55 49 49 47 44 44
68 69 70 86 79 55 45 47 40 40 51 55 56 52 55 56 54 58 60 66 68 62 54 58 60 57 53 52 53 62 61 57 59 65 67 69 70 74 71 69 69 63 60 54 49 49 42 43 44
71 75 83 93 77 52 46 45 43 46 52 57 48 49 58 56 53 57 62 62 63 58 53 56 54 55 53 53 53 61 61 62 65 67 69 71 73 73 71 74 70 64 59 53 47 39 39 38 40
81 73 88 88 62 51 45 44 49 50 57 62 48 51 62 53 51 52 65 84 71 60 52 47 49 55 56 53 51 60 62 64 68 71 71 68 61 64 69 64 63 60 54 47 39 36 35 37 39
83 85 87 74 62 48 48 47 57 56 56 49 48 51 56 55 57 55 75 74 64 60 53 50 53 52 55 53 58 59 62 66 67 67 62 59 56 59 57 58 60 55 49 41 37 35 35 35 38
87 93 91 85 68 57 52 55 53 51 75 51 56 51 53 51 62 57 66 65 68 72 68 65 56 53 54 51 55 61 66 63 64 64 61 54 52 57 55 58 56 53 44 38 35 34 34 34 39
82 79 94 90 64 67 51 48 48 50 55 52 57 50 49 52 51 51 54 56 60 64 67 60 62 54 51 52 57 58 61 63 67 71 72 57 52 59 59 58 57 53 47 38 34 41 50 53 47
84 95 88 83 77 61 56 48 57 67 65 68 61 54 51 55 52 50 50 57 61 73 72 63 60 53 54 55 57 61 66 72 78 81 74 67 56 52 51 54 61 60 55 56 50 44 54 60 52
84 97 86 77 80 69 61 58 51 67 55 53 48 45 49 54 52 50 51 57 56 65 64 59 56 61 56 56 65 69 70 74 74 71 67 59 51 49 49 59 75 66 55 57 65 46 48 60 51
76 82 83 79 79 68 59 51 53 49 49 48 51 48 48 52 52 54 52 61 52 51 58 58 57 55 59 58 66 67 66 61 57 76 62 62 63 50 71 78 74 66 63 62 41 49 42 43 62
78 75 81 80 77 68 59 55 54 60 71 53 52 53 49 57 53 57 61 50 46 45 57 56 54 51 59 67 62 66 68 73 56 61 64 66 61 50 67 67 58 88 51 50 67 67 61 56 44
76 73 78 75 73 71 64 50 68 70 78 49 51 51 53 56 56 54 52 53 44 46 49 55 49 52 57 55 56 65 69 60 59 67 61 58 63 44 53 84 59 49 42 51 61 60 57 51 43
68 74 76 78 87 76 64 61 53 47 53 47 49 54 58 57 57 53 52 52 45 46 45 52 50 54 56 54 62 60 61 59 52 60 60 68 57 59 53 52 50 38 46 48 53 58 57 49 46
72 72 75 76 79 76 68 75 68 49 55 49 52 55 58 60 59 52 54 54 51 47 41 49 51 55 53 55 56 57 64 61 53 48 50 48 46 76 45 62 41 40 42 53 50 54 51 49 46
76 78 74 78 82 74 75 84 74 65 54 52 54 55 56 59 61 49 57 61 53 48 42 57 52 51 56 59 62 61 56 55 56 54 50 48 50 58 48 54 41 44 59 49 60 48 58 58 54
78 83 74 77 84 75 81 91 82 70 65 53 60 61 55 55 56 50 57 59 54 46 48 57 50 50 50 66 54 54 60 62 60 57 54 49 51 53 47 49 38 34 56 63 50 56 49 67 56
70 88 87 86 90 81 82 91 89 83 75 64 66 51 52 57 53 56 57 58 55 47 49 53 53 57 49 54 56 59 56 66 52 58 54 50 46 48 46 42 39 95 36 32 38 49 48 53 59
66 78 90 91 94 97 88 91 91 84 83 75 61 77 52 54 53 55 58 56 52 45 46 49 58 54 62 52 58 58 66 51 52 51 50 45 45 40 51 51 50 59 42 31 35 48 48 46 51
72 66 75 86 84 93 92 94 93 91 88 83 66 58 60 63 48 53 55 52 49 46 42 46 65 58 56 66 64 64 71 64 70 62 58 55 49 39 44 48 51 61 55 36 43 40 47 44 49
72 78 78 80 87 97 87 95 94 93 88 83 82 63 90 75 59 55 48 58 49 41 41 43 47 65 58 69 80 74 71 85 77 69 69 62 58 49 44 42 47 64 60 50 45 38 46 47 41
65 59 68 78 91 97 89 81 86 92 88 84 78 72 63 74 69 63 53 55 53 42 35 36 36 44 51 59 67 65 70 78 76 70 73 73 64 49 44 47 52 53 66 70 53 30 35 45 46
59 66 70 74 87 96 70 71 85 80 75 76 80 77 88 78 67 82 58 59 71 51 40 41 33 37 40 39 59 74 71 75 75 75 83 83 67 49 43 44 40 41 43 43 55 37 29 38 45
53 56 70 83 96 82 77 72 81 64 64 65 78 78 73 78 64 67 83 69 57 73 41 36 37 32 34 33 32 50 67 72 76 76 82 72 65 61 49 49 46 40 43 55 48 41 35 33 35
46 51 54 72 76 80 80 72 66 58 53 60 80 79 91 81 81 68 70 83 70 54 79 40 56 38 34 31 35 32 41 61 71 81 84 75 78 80 68 71 49 43 38 39 39 40 39 43 36
41 39 46 48 60 65 75 77 66 55 54 61 62 65 70 68 77 81 78 86 63 72 74 56 57 47 43 39 32 31 33 38 58 69 70 78 75 68 81 71 56 46 47 39 40 32 39 42 52
36 41 36 53 59 66 68 79 76 58 57 59 60 57 59 68 77 78 83 92 75 66 91 88 77 53 59 67 54 35 32 38 40 46 62 77 81 80 74 72 62 49 45 51 44 40 41 40 45
23 30 33 36 44 55 59 71 75 64 57 59 61 62 58 64 76 87 77 86 70 74 82 82 83 67 75 79 83 80 54 52 46 43 42 51 61 71 80 78 79 59 53 45 50 49 53 62 50
27 27 30 33 38 41 44 53 58 71 72 64 64 64 66 65 66 72 71 96 79 79 80 69 76 76 78 79 75 81 75 76 66 62 67 54 53 54 57 67 72 78 71 69 61 57 54 58 55

GFSSGP_prec_cthk_105.txt.gz
RH
60 71 76 84 83 77 55 53 46 53 56 60 64 58 62 60 58 72 74 68 62 59 60 57 58 52 48 53 56 56 53 49 51 58 51 50 56 56 58 59 57 58 52 39 35 40 42 43 51
63 74 84 86 84 70 56 48 46 48 51 50 53 53 56 61 57 59 64 72 63 58 53 55 61 61 48 45 47 44 46 48 52 55 56 57 59 54 55 54 46 43 42 39 36 37 40 44 46
67 77 81 85 85 66 56 47 42 46 47 51 48 49 54 56 59 58 65 68 62 55 54 59 64 58 55 56 53 50 51 54 57 58 61 61 61 61 65 64 59 52 48 45 46 42 40 44 52
69 68 70 83 75 62 51 45 44 45 48 55 54 55 53 57 57 63 64 60 57 56 56 60 57 57 53 61 61 58 57 59 63 63 66 68 66 65 66 60 59 54 50 49 42 41 41 43 50
74 80 80 87 70 55 48 45 52 48 50 48 46 58 54 53 57 61 63 59 57 55 53 52 53 52 52 59 63 60 60 63 68 65 66 69 66 68 68 61 58 56 49 43 39 36 39 46 48
80 80 91 85 66 52 49 45 52 49 51 50 50 51 56 56 54 67 75 66 61 51 47 47 54 53 51 53 61 62 66 66 65 66 64 60 66 65 62 62 60 53 47 42 36 36 37 44 47
81 85 90 76 56 53 49 55 52 52 61 51 47 50 51 49 51 75 81 68 63 47 46 50 52 51 47 52 58 59 60 63 65 63 58 57 60 62 63 61 57 48 43 39 37 36 37 42 49
87 87 88 80 60 50 53 59 55 55 52 44 46 46 50 49 61 64 67 62 69 62 60 49 47 49 49 54 58 58 60 64 63 59 59 63 62 65 68 59 49 43 39 36 34 36 41 45 48
86 89 91 87 63 48 59 81 57 57 53 48 52 47 45 53 61 59 59 64 62 62 57 54 47 47 49 54 56 59 63 63 63 61 57 62 58 61 66 61 54 46 41 46 45 43 41 43 46
85 99 90 85 78 66 54 64 52 53 59 59 58 48 44 51 50 47 59 60 63 65 58 51 43 46 50 51 54 59 70 77 77 74 56 58 60 62 66 67 66 64 53 56 51 50 60 50 42
86 95 94 81 74 77 61 52 53 76 66 63 55 42 46 50 50 45 56 54 63 64 56 50 46 48 50 52 55 59 69 68 73 62 60 62 69 63 65 74 69 60 60 56 61 54 65 57 44
79 86 82 86 86 87 64 50 63 58 61 50 49 43 53 48 42 49 65 59 58 59 55 55 56 52 54 58 57 57 62 66 64 61 64 62 67 72 77 65 68 49 50 51 54 52 59 53 45
78 79 90 87 81 89 69 51 50 66 52 52 48 49 46 48 44 49 60 57 50 57 55 54 55 58 57 57 58 59 67 55 61 64 65 60 71 80 70 64 62 59 51 54 58 47 47 47 45
76 77 83 93 88 92 70 71 57 66 65 57 46 40 54 54 58 52 55 48 45 45 53 49 49 57 62 56 59 59 55 53 69 69 53 64 67 75 79 61 50 55 68 52 52 48 46 41 40
83 81 75 91 90 86 68 64 58 66 61 56 45 45 60 55 50 51 46 43 38 40 49 43 52 56 60 57 59 59 56 56 55 59 67 67 59 58 59 44 45 65 54 61 61 55 52 47 42
67 70 83 85 92 82 87 70 68 64 74 66 45 47 58 51 59 49 43 43 39 40 45 43 48 54 55 63 57 53 56 52 47 46 54 60 65 58 60 47 52 65 60 76 56 54 54 49 47
75 78 78 87 84 94 79 78 77 65 51 47 46 48 59 50 56 50 46 43 45 42 40 48 46 47 53 54 56 68 56 54 51 50 47 50 51 47 53 42 47 55 58 56 56 56 52 52 54
73 79 78 89 98 92 85 78 78 75 73 53 47 48 58 46 58 52 45 48 47 45 41 49 47 48 48 55 61 64 68 52 53 51 51 52 54 56 57 49 47 62 59 57 58 55 56 53 55
65 78 83 88 97 95 93 84 81 82 74 64 52 50 64 52 51 56 46 49 51 46 44 49 49 49 50 52 53 58 57 59 58 55 53 54 49 53 53 48 45 65 59 51 55 56 67 55 52
70 79 88 89 81 85 94 92 86 86 81 79 75 66 69 52 48 52 48 50 52 44 43 58 51 51 52 53 52 55 52 50 52 52 48 46 46 48 51 49 47 48 39 41 59 55 56 54 52
72 77 81 83 88 86 90 98 91 86 86 81 78 69 59 51 55 52 48 54 52 45 37 44 53 57 58 54 57 54 58 50 59 55 52 47 45 41 50 60 71 48 32 32 50 52 54 53 51
71 76 80 82 79 87 95 99 96 92 85 84 81 75 66 61 54 47 45 48 48 42 36 40 50 58 58 58 64 65 73 65 75 62 58 52 49 42 43 54 47 58 40 38 44 49 49 52 53
77 73 84 77 79 78 91 99 95 92 87 80 78 74 73 58 55 56 53 49 45 41 36 31 44 60 54 63 72 73 70 78 69 68 74 63 53 47 47 46 46 52 61 33 39 44 47 49 49
67 81 85 85 85 87 86 93 91 86 69 68 73 79 76 63 68 62 59 53 50 46 41 35 30 41 53 53 66 70 68 74 76 70 86 65 62 48 44 44 47 44 45 54 61 38 39 47 51
55 71 89 91 88 84 78 89 88 73 69 63 67 76 72 68 73 72 65 62 58 53 44 42 32 31 38 43 48 73 72 75 82 73 72 73 60 59 50 49 44 42 48 45 46 39 33 41 47
54 54 70 79 88 84 81 89 83 70 61 64 72 76 80 65 65 68 76 64 73 57 55 44 39 28 31 37 33 38 55 67 71 78 84 83 68 74 71 65 56 50 41 44 49 50 42 36 34
39 48 45 66 71 78 90 88 81 63 60 64 74 76 76 80 79 73 73 76 70 66 65 53 48 47 32 32 31 32 33 42 60 69 74 85 80 73 74 84 60 51 50 45 35 41 41 41 41
37 40 44 56 71 78 85 93 90 68 65 65 67 72 74 73 71 69 76 77 71 96 80 78 69 55 43 46 43 38 33 37 42 48 59 68 71 79 77 78 68 52 49 44 43 41 37 37 37
35 33 43 47 46 62 80 81 65 70 68 72 65 64 65 71 73 74 76 77 85 95 87 73 74 71 59 69 75 85 64 39 43 45 43 42 62 75 72 77 86 72 56 49 51 50 49 46 46
27 30 34 39 38 50 50 77 68 62 62 57 67 69 63 63 68 73 82 83 81 83 79 77 75 81 84 84 91 92 82 78 68 57 52 53 46 45 52 71 73 79 79 68 61 57 57 55 59

GFSSGP_prec_cthk_108.txt.gz
RH
61 73 78 79 77 70 63 62 50 58 58 55 61 59 59 57 58 70 58 59 60 60 60 59 54 57 65 63 69 61 61 67 61 57 56 50 55 56 58 57 55 50 40 46 43 44 51 67 70
64 73 76 74 77 63 66 58 53 54 56 60 61 60 62 65 61 60 64 61 57 57 55 57 53 44 48 52 53 53 56 58 57 57 60 58 61 62 58 59 52 39 37 36 39 46 46 62 69
66 74 76 77 71 64 58 60 53 53 60 56 59 60 63 63 58 62 65 58 57 52 53 58 55 50 48 46 44 49 53 57 60 61 67 69 69 61 59 51 45 44 44 41 40 44 47 52 64
68 69 71 74 73 59 48 55 50 49 51 52 50 50 57 59 60 62 63 55 55 55 58 59 58 55 58 57 53 55 58 61 64 68 72 70 71 68 63 59 54 52 47 45 42 42 47 51 50
66 66 77 78 68 52 52 51 50 49 49 51 45 51 53 58 60 61 57 61 56 54 55 55 54 54 62 62 59 60 63 67 67 70 70 71 69 63 59 57 54 45 42 40 39 43 48 50 52
73 77 81 76 58 50 55 52 48 46 53 50 47 48 55 56 62 60 60 59 53 50 49 52 52 51 60 61 62 67 71 67 67 68 67 68 67 61 60 54 50 42 38 37 37 44 46 49 51
75 77 85 76 50 51 56 52 45 52 59 49 47 52 57 57 66 75 63 59 48 46 50 52 51 48 58 63 64 63 65 68 66 61 66 63 61 59 58 52 47 45 40 36 36 42 47 51 50
79 82 84 78 52 54 55 52 52 54 54 47 46 48 51 53 71 78 63 64 57 55 52 51 49 51 61 63 58 61 64 62 59 56 60 54 57 55 51 46 41 39 35 34 37 44 51 52 49
84 89 92 80 64 58 60 60 57 58 58 52 51 44 47 57 60 62 62 65 63 56 51 49 49 55 59 60 60 66 65 62 57 58 59 63 62 60 54 45 40 40 39 39 43 47 51 50 47
83 88 87 82 71 62 67 78 57 56 58 54 51 49 52 53 52 55 61 62 60 55 50 49 49 55 57 61 67 71 75 74 57 56 59 61 62 64 61 56 43 43 44 48 50 49 48 48 42
85 90 83 83 77 66 74 72 59 57 61 59 59 49 50 48 47 50 58 59 63 56 47 47 49 54 55 58 66 72 79 70 70 56 56 56 52 64 69 67 59 57 53 51 55 53 47 44 45
92 84 84 84 80 76 69 60 57 68 73 61 51 42 45 46 47 55 58 61 58 54 49 47 52 58 57 56 65 73 72 62 65 58 57 60 52 64 69 66 57 52 60 57 57 65 49 46 42
76 84 88 86 86 79 72 65 55 65 67 57 48 49 43 47 48 54 60 60 56 53 52 52 55 60 63 61 63 58 64 64 59 58 59 67 69 73 72 61 59 56 58 56 63 53 47 43 40
78 76 86 88 85 85 84 72 59 60 62 56 52 46 46 50 46 55 57 51 53 53 51 51 55 58 61 58 62 61 56 61 62 66 60 66 68 62 70 63 56 60 60 59 58 49 45 41 42
66 86 92 86 88 94 88 83 60 70 66 61 57 47 54 50 51 49 52 51 48 46 49 47 55 58 56 61 64 54 54 60 59 61 54 55 57 54 54 55 68 61 51 54 59 55 47 45 47
74 77 86 88 90 88 95 84 70 59 66 64 59 51 54 52 48 51 47 47 43 43 45 45 51 56 56 60 59 57 56 54 54 58 65 54 46 46 47 59 80 57 61 58 59 55 53 50 49
65 80 81 99 97 97 94 86 67 69 74 67 62 51 64 59 53 52 48 48 41 43 41 43 48 55 59 59 52 57 57 52 50 46 45 42 43 53 49 57 73 75 57 64 58 55 52 52 53
65 74 87 96 98 97 95 92 84 76 63 57 56 52 59 62 54 51 55 48 47 44 39 43 47 52 54 59 65 60 56 53 51 48 49 48 42 56 43 50 53 60 54 58 56 52 53 52 53
66 78 89 96 91 87 97 97 90 84 78 65 49 55 70 65 54 57 52 52 47 48 40 43 42 47 52 58 63 64 53 54 55 54 51 49 54 51 41 52 58 61 58 53 55 52 50 52 53
70 79 91 89 88 83 88 94 92 90 86 77 73 54 52 62 54 50 50 48 48 49 47 46 48 46 49 51 55 62 56 56 55 57 49 49 45 53 52 46 51 58 54 50 51 50 49 48 49
72 80 87 85 89 87 90 95 92 91 90 82 81 74 63 59 57 50 48 47 48 47 46 48 50 54 56 52 52 50 51 49 53 47 44 42 43 48 58 48 45 42 37 46 49 51 55 48 53
73 73 73 86 82 83 85 90 93 94 92 84 80 77 76 69 63 51 54 47 49 46 39 44 51 54 56 54 58 53 55 58 61 58 53 47 47 46 51 57 66 44 31 40 53 50 48 51 50
69 67 68 80 86 87 87 87 87 96 91 83 82 82 79 68 58 53 51 49 49 46 38 35 48 58 60 60 70 71 73 73 70 65 59 55 50 46 43 52 51 57 39 33 39 54 52 51 50
56 63 70 80 87 90 83 79 90 95 88 83 82 82 80 79 69 59 50 53 50 47 41 34 37 60 56 58 70 77 74 78 76 68 75 60 52 45 43 43 44 53 53 38 36 37 52 52 50
68 60 79 87 89 87 88 87 83 86 85 82 84 85 84 83 79 61 59 53 49 47 42 41 33 36 52 52 63 72 70 74 77 75 76 68 67 54 46 41 38 41 41 47 53 47 39 41 47
60 56 66 75 89 86 92 91 76 76 77 75 73 80 83 82 80 68 64 56 48 50 51 46 37 33 35 40 46 58 77 71 75 75 74 75 68 68 60 53 48 39 40 48 50 48 41 34 37
56 52 56 69 73 80 87 83 71 65 70 64 67 72 80 83 83 78 78 66 60 54 50 49 42 36 30 31 33 33 40 50 58 65 75 81 77 73 71 66 67 50 47 42 39 45 47 43 40
34 36 53 61 73 80 86 83 79 64 63 65 71 75 75 85 86 79 70 72 75 67 55 57 50 50 44 35 31 28 29 35 39 47 60 70 76 75 76 77 73 56 45 45 43 37 36 39 42
30 33 39 47 55 68 83 77 58 53 52 60 68 75 79 82 82 70 74 71 70 72 63 68 69 65 56 43 47 46 48 47 37 41 44 50 61 70 78 74 74 68 55 48 45 45 44 39 38
30 33 42 45 42 56 61 63 47 48 49 57 61 70 75 74 78 82 75 74 78 79 77 77 84 79 69 59 68 78 86 76 58 41 42 43 41 45 55 63 76 77 78 69 57 49 51 53 53

GFSSGP_prec_cthk_111.txt.gz
RH
64 75 79 78 77 69 54 53 52 53 54 54 57 62 61 61 65 65 58 62 65 67 67 76 81 84 80 79 79 75 74 61 70 62 49 54 47 50 55 56 51 47 46 42 47 60 64 61 61
63 78 79 76 75 73 63 56 57 57 56 55 58 65 68 69 64 61 58 60 62 66 66 61 62 64 65 66 64 63 65 58 64 62 63 65 70 67 61 46 39 40 41 45 50 67 73 73 70
67 76 77 76 75 65 63 56 55 56 56 57 64 67 67 67 58 60 56 56 56 59 63 61 50 56 54 56 51 57 61 59 64 63 65 64 56 52 47 42 39 37 37 45 47 56 68 76 76
69 74 76 75 70 60 56 56 54 52 57 58 60 64 64 64 62 63 55 50 52 55 60 61 57 55 52 50 58 63 64 63 64 65 70 71 68 61 54 51 48 46 42 42 47 54 59 60 57
62 68 77 78 67 53 56 56 55 52 52 56 56 63 62 62 59 53 51 53 52 56 62 62 60 64 62 61 64 65 68 70 71 70 69 69 61 59 55 52 51 44 44 42 46 51 53 54 48
69 68 77 75 61 53 57 58 59 55 51 52 51 54 58 61 60 55 54 56 54 55 57 57 59 65 67 63 66 68 69 71 71 71 70 67 60 57 56 53 45 41 39 41 49 52 55 63 47
73 72 80 74 55 56 57 60 57 55 53 46 46 53 56 62 67 61 55 53 52 53 55 54 54 63 69 66 69 68 67 70 64 68 64 61 61 59 55 49 41 39 37 42 48 52 55 51 43
70 75 79 76 58 58 58 58 54 53 54 42 45 49 53 68 73 68 60 54 58 56 54 51 54 66 63 61 62 66 65 60 60 62 58 57 56 57 49 45 43 39 37 40 47 53 56 48 39
74 80 85 79 64 63 61 57 56 60 55 46 48 43 46 65 68 65 62 59 57 54 52 50 56 61 58 58 64 63 59 59 61 61 71 63 56 51 43 39 38 36 38 44 51 53 53 44 38
79 83 85 78 76 76 68 59 59 58 55 49 46 48 52 55 61 64 63 59 54 50 50 51 58 58 58 66 71 70 61 54 58 61 64 65 62 52 45 42 44 43 45 47 53 55 50 41 39
80 87 82 81 79 75 69 77 60 56 59 53 52 47 51 55 58 67 63 63 48 46 49 50 54 54 60 63 65 65 64 56 56 61 57 59 65 67 61 54 51 49 55 56 51 52 46 42 39
80 83 88 86 81 73 70 77 63 59 64 56 55 46 49 50 52 60 63 58 51 44 46 49 51 53 55 62 71 69 65 63 62 59 55 53 64 71 68 57 53 54 51 58 54 50 48 41 44
73 82 90 86 84 75 76 81 67 65 70 58 52 48 44 46 58 65 64 57 55 49 46 51 52 53 54 61 68 67 61 61 61 65 70 69 69 67 62 56 52 54 56 60 55 46 44 42 46
65 70 83 82 83 81 76 70 76 69 70 68 52 49 44 45 53 59 64 56 56 53 50 51 57 56 57 65 58 63 59 64 63 64 68 69 70 70 64 58 59 56 57 59 45 45 42 45 45
60 71 84 95 87 92 83 78 76 57 78 64 54 53 47 47 52 52 54 54 51 50 52 53 53 58 58 61 60 58 64 63 63 59 60 71 63 65 59 54 63 59 55 51 47 41 43 46 47
56 67 89 94 95 96 93 89 77 71 73 61 60 57 50 50 49 52 52 52 47 48 50 52 57 53 55 58 55 52 59 61 64 58 55 50 47 54 56 63 52 52 54 52 49 46 47 51 51
58 71 83 94 98 96 97 91 85 69 69 77 64 56 52 54 51 55 54 52 43 43 46 47 54 54 53 55 54 54 54 55 52 56 49 50 49 57 63 66 61 55 55 54 47 46 49 52 54
62 75 90 97 92 97 97 94 86 79 74 71 68 60 52 58 50 53 54 55 46 45 44 44 53 53 51 53 51 50 50 50 49 51 42 46 49 50 55 63 63 54 57 52 50 46 47 53 53
61 70 85 93 91 93 92 94 93 86 85 80 67 66 51 53 57 53 61 55 48 48 43 44 47 49 58 59 58 53 51 50 50 53 50 54 51 50 52 51 59 57 53 46 47 46 49 50 50
60 77 84 91 92 92 93 94 98 96 90 82 71 56 53 57 59 56 56 56 53 50 45 43 43 48 54 59 58 61 52 57 61 56 50 60 57 52 47 52 52 53 49 45 44 46 48 49 48
67 74 78 78 88 87 87 92 96 97 93 85 79 73 63 55 57 57 53 54 52 53 48 46 43 42 48 51 58 59 56 55 56 54 50 45 47 53 50 48 47 50 48 43 49 48 47 47 49
68 72 73 76 82 87 85 87 94 97 95 86 85 82 78 67 61 59 53 53 52 55 49 48 51 47 51 50 51 49 49 55 54 57 47 45 46 50 58 56 44 44 43 44 49 54 54 49 48
59 67 73 73 78 84 87 90 83 91 96 86 87 85 82 76 58 58 56 53 53 55 44 46 52 53 52 53 51 54 51 67 61 60 55 48 46 44 49 56 59 49 34 36 50 49 47 49 45
50 65 71 72 75 83 83 85 78 83 77 83 89 88 85 77 76 69 62 57 54 53 47 38 48 55 56 56 65 68 72 70 70 70 68 61 52 45 41 46 53 59 49 33 34 44 52 51 49
54 67 74 68 79 84 84 86 75 70 74 80 86 88 87 81 84 72 62 57 56 51 45 40 35 48 57 53 60 66 72 75 78 75 77 68 62 50 45 41 44 46 50 50 36 34 37 48 51
65 60 63 65 81 83 86 88 78 73 80 85 87 89 88 85 84 76 63 58 55 52 46 42 38 33 49 53 52 67 68 71 74 80 74 74 71 63 58 51 47 44 46 46 48 51 44 34 36
66 63 57 69 77 78 77 75 72 70 79 87 86 86 90 87 85 80 74 63 55 52 46 45 44 34 31 37 41 46 67 75 73 77 78 79 83 77 72 68 63 57 51 43 46 49 45 40 36
51 52 58 66 76 83 76 77 75 71 71 73 73 76 80 89 86 84 78 70 64 54 53 48 46 44 39 34 35 35 35 43 52 62 69 79 80 82 79 76 73 75 61 52 48 42 39 41 41
39 49 47 52 59 73 76 66 56 55 56 64 66 70 72 74 80 85 86 79 74 65 61 57 47 46 51 47 37 37 35 34 35 40 50 62 69 73 75 79 82 77 67 55 52 48 45 41 38
36 42 44 45 41 57 61 54 51 52 53 57 62 70 75 78 80 83 86 81 78 76 73 69 58 57 60 54 45 45 45 50 54 43 42 45 49 55 64 75 77 77 77 71 64 55 47 47 46

GFSSGP_prec_cthk_114.txt.gz
RH
64 73 77 77 74 60 55 56 55 54 54 54 58 60 65 65 64 59 61 66 67 76 87 93 92 90 86 76 70 67 65 61 49 42 41 44 43 44 52 58 53 47 49 54 65 61 57 62 64
65 77 74 72 74 69 60 57 60 57 54 54 59 72 68 68 64 58 60 63 65 66 82 83 77 76 72 71 66 65 62 67 55 56 57 60 65 65 56 47 52 47 52 66 74 74 72 65 61
69 73 76 75 75 67 60 56 62 59 55 53 60 63 68 68 59 58 59 61 64 65 60 58 56 57 58 56 57 60 55 59 59 65 70 73 72 62 42 38 40 47 53 60 72 81 89 84 74
70 74 76 75 71 62 55 57 57 57 58 56 60 64 61 63 60 57 56 56 58 60 59 53 53 51 54 53 59 63 62 65 66 65 63 60 51 50 54 49 46 44 49 54 63 77 74 77 62
68 73 76 76 66 59 54 54 59 57 58 56 52 59 62 61 60 52 51 54 55 58 61 62 62 58 56 59 65 68 67 68 68 72 71 66 62 57 60 61 52 45 46 50 58 60 58 54 46
66 70 77 72 60 57 55 55 59 58 57 56 52 52 60 61 59 50 52 55 54 57 60 61 72 68 63 65 66 69 74 73 72 70 66 62 62 60 57 56 52 45 43 49 55 58 60 44 39
71 69 80 70 64 59 57 58 60 60 57 51 46 52 60 62 64 51 52 51 52 55 56 56 66 71 67 69 71 70 73 71 70 68 66 63 62 60 50 45 41 40 44 50 55 59 56 46 36
74 75 79 75 72 57 59 60 60 62 56 44 47 50 58 64 61 54 50 52 52 52 53 53 62 66 66 68 66 67 65 65 66 64 62 64 60 54 48 42 40 38 44 50 54 54 43 40 37
73 79 82 79 74 66 63 61 60 62 55 46 47 44 48 64 66 60 55 55 52 52 52 53 61 62 65 70 70 66 62 63 59 58 59 55 52 47 46 41 39 39 43 51 54 49 41 38 36
78 78 81 82 81 79 70 61 61 59 54 51 48 44 49 59 59 60 51 49 48 48 50 55 60 61 69 76 72 64 60 69 68 69 60 54 48 44 44 43 41 42 45 50 52 44 37 38 37
80 81 84 82 83 83 76 65 61 60 58 53 47 43 48 51 60 57 55 48 46 47 49 56 58 59 69 70 70 65 57 60 61 62 63 62 54 51 46 49 48 46 46 51 51 42 38 38 40
76 81 87 90 90 86 81 72 60 57 58 54 49 43 44 48 52 56 54 47 43 44 47 53 54 60 68 68 70 64 63 61 60 59 60 68 68 64 56 51 46 52 51 50 50 41 38 41 40
64 82 84 88 91 82 78 74 67 58 63 59 49 46 45 47 55 57 53 49 43 43 46 50 52 57 64 71 71 68 65 64 63 64 61 67 69 65 56 50 51 49 55 49 46 42 39 42 41
54 65 76 87 86 87 75 80 77 63 65 62 55 46 44 47 55 57 55 50 44 43 44 48 49 56 60 65 67 65 62 58 64 70 69 70 69 62 56 52 54 54 59 48 44 39 41 42 40
59 66 80 86 91 89 83 80 77 66 72 73 58 48 46 51 54 53 53 50 47 44 46 49 50 56 60 59 60 60 64 63 63 68 72 71 69 62 60 59 56 57 56 44 41 38 42 43 41
50 58 74 86 90 90 88 87 77 75 64 69 58 53 48 50 50 51 51 49 48 44 48 49 53 52 56 56 55 60 62 59 55 58 66 66 63 60 63 64 57 57 51 47 43 42 44 45 43
49 61 71 86 93 96 93 92 90 73 71 69 60 58 52 51 50 54 52 47 45 44 47 49 50 53 56 55 52 57 59 62 59 58 54 49 57 65 64 54 55 53 49 47 43 45 47 48 46
51 64 67 78 92 92 96 95 96 85 82 79 71 65 55 53 46 52 55 51 47 43 45 49 52 53 52 54 50 49 54 54 52 53 57 60 59 67 62 63 52 52 49 45 42 44 48 50 46
47 59 67 71 84 85 88 94 96 90 83 81 75 65 61 54 54 52 57 55 51 47 41 44 51 53 54 52 48 47 48 52 54 53 51 51 53 56 56 63 56 52 51 45 43 45 49 48 46
48 64 72 69 76 79 86 90 95 92 86 83 75 65 67 58 57 53 58 57 52 48 45 43 50 52 56 54 51 49 49 52 56 60 61 62 56 55 49 57 55 51 50 45 45 45 47 44 45
48 63 74 69 74 80 82 85 88 93 86 87 81 73 58 55 56 55 55 56 54 50 47 43 46 48 54 56 57 55 52 57 56 53 55 61 62 56 50 50 51 50 48 45 45 44 45 45 47
43 57 67 68 70 77 80 85 88 88 88 92 89 77 61 57 62 60 57 55 54 56 49 48 46 46 47 51 55 53 51 48 50 50 47 47 54 58 51 46 49 47 49 45 45 46 43 44 47
38 60 67 74 74 77 84 84 80 85 90 86 89 82 66 64 59 56 54 54 52 55 51 48 53 48 51 49 49 46 47 50 53 51 45 47 45 51 56 58 49 45 46 42 45 45 50 46 45
43 57 64 74 78 81 79 84 84 83 79 83 89 83 77 73 70 60 61 60 56 55 50 48 49 54 53 58 51 57 52 61 59 58 56 51 47 46 48 53 58 53 42 33 37 48 47 46 45
47 51 70 74 80 78 77 81 72 74 75 80 85 83 80 78 67 58 66 63 58 53 51 42 50 56 57 57 66 68 71 69 71 70 69 65 57 48 45 41 46 55 55 44 36 34 38 48 51
56 50 62 64 76 74 78 77 71 66 64 70 76 81 81 82 75 69 66 65 60 57 51 45 38 49 59 57 62 69 72 74 76 77 76 73 68 64 52 45 44 43 46 49 48 43 42 35 35
61 60 57 72 72 78 74 66 61 68 72 72 75 83 84 83 78 79 78 67 62 57 51 45 44 36 48 60 60 65 72 74 74 76 80 77 74 71 64 63 55 50 45 44 45 50 49 47 44
54 62 68 74 74 75 68 68 67 70 71 84 82 80 84 83 80 80 81 74 62 59 54 49 45 43 34 37 50 53 58 72 77 74 79 80 85 89 80 75 73 67 64 55 49 47 44 44 45
48 55 62 65 69 74 67 59 52 59 62 72 75 76 79 84 80 79 81 76 71 62 59 51 45 45 42 39 36 39 42 45 57 63 65 70 80 84 84 81 77 75 81 71 59 52 50 46 45
46 47 51 61 48 60 62 61 57 52 58 62 65 68 71 74 77 80 84 78 78 73 63 57 55 45 46 53 51 40 36 36 35 34 42 58 66 66 73 76 77 83 83 79 68 58 58 54 48

GFSSGP_prec_cthk_117.txt.gz
RH
67 75 77 73 66 48 54 51 54 50 54 56 60 62 61 61 57 57 60 66 77 85 90 84 83 81 75 74 72 70 61 47 41 44 51 55 55 59 61 46 45 49 59 63 60 60 65 68 73
69 74 75 72 65 47 54 57 54 52 53 57 63 66 64 64 59 57 59 61 72 81 89 82 83 84 79 71 73 66 61 52 48 44 46 50 57 63 57 52 46 55 70 72 64 63 63 61 60
68 73 75 72 64 54 52 54 54 54 53 58 65 66 64 61 58 57 58 62 61 69 70 67 65 69 72 66 68 66 66 59 67 68 74 74 62 40 38 45 46 60 75 81 85 82 74 65 58
67 76 75 72 65 58 54 51 54 55 55 56 61 59 58 58 57 54 56 60 63 60 56 55 52 54 57 57 61 60 62 63 66 65 64 61 52 48 45 46 46 53 65 78 82 83 78 64 58
66 75 74 69 64 57 54 53 55 56 56 55 54 55 59 59 52 51 52 55 59 57 57 56 53 53 55 58 64 65 68 70 70 71 65 60 59 55 54 48 44 48 59 69 71 66 58 45 34
65 71 69 69 60 56 55 57 57 55 57 53 51 56 60 60 52 48 52 53 57 59 64 67 61 59 58 64 69 69 70 71 75 69 63 66 62 65 60 55 44 46 51 60 61 57 47 38 32
65 70 73 65 59 57 56 58 56 55 56 51 49 51 56 57 51 49 52 54 55 59 60 66 68 63 65 66 70 73 71 73 73 66 62 66 63 58 59 49 42 44 50 56 58 56 40 32 28
69 70 74 73 63 59 59 59 57 54 50 43 47 49 54 52 51 50 52 51 54 57 56 61 67 66 69 72 69 70 68 70 68 65 67 67 62 47 46 44 41 43 49 55 55 48 36 31 27
70 76 76 76 73 70 66 62 61 58 51 47 47 44 52 56 53 49 50 50 52 56 55 56 65 65 67 68 74 68 73 64 61 66 65 56 50 46 42 41 38 43 49 52 47 37 35 29 31
74 70 78 84 83 84 75 67 64 58 52 52 48 44 50 58 56 52 54 52 50 55 54 59 65 71 70 71 69 67 69 62 63 56 54 50 45 44 42 39 38 43 48 50 41 34 33 33 36
88 80 76 85 87 87 81 72 66 59 56 52 41 44 49 57 56 53 48 47 46 49 54 55 60 66 70 67 66 67 67 67 65 59 53 49 49 48 47 44 44 44 50 47 38 35 34 38 36
78 79 76 82 80 88 83 75 66 65 58 52 43 46 47 51 55 51 45 44 43 46 53 54 59 64 65 65 64 60 58 60 61 61 60 57 54 49 49 50 48 46 49 46 36 34 38 37 38
61 76 80 81 87 85 81 77 71 63 61 57 48 47 48 50 53 50 44 41 41 44 49 53 56 63 65 65 63 63 61 60 57 58 64 64 63 56 51 48 50 50 50 46 38 36 39 40 40
55 62 68 80 83 84 83 76 83 65 63 57 52 45 46 47 50 50 45 40 40 41 46 49 53 57 66 69 65 61 61 62 62 61 64 66 60 57 49 49 49 53 48 43 38 38 42 42 40
54 61 67 79 83 88 84 79 81 71 71 65 57 47 44 48 53 54 50 43 40 40 44 50 53 57 61 66 62 59 57 63 69 69 70 66 57 55 49 51 52 56 46 42 39 41 43 42 41
50 56 66 79 81 88 84 86 84 81 74 76 61 49 46 48 50 51 51 49 42 41 42 47 50 57 60 61 60 61 58 66 63 71 71 63 60 56 56 54 54 55 44 43 40 43 43 42 41
46 47 58 68 76 84 84 88 87 84 77 71 61 54 48 48 46 47 50 47 45 47 44 47 49 51 56 57 58 58 61 58 55 60 62 63 61 60 58 56 59 54 49 46 46 46 46 44 42
44 49 57 67 72 79 86 88 87 88 80 72 72 60 53 51 44 46 48 46 47 45 48 48 48 52 55 55 54 56 57 59 60 56 54 57 63 63 54 53 55 52 50 46 47 47 48 47 44
35 44 51 68 71 71 80 84 87 91 87 80 72 73 58 50 48 47 49 48 47 45 47 50 50 50 53 51 49 50 56 52 51 50 57 59 61 60 61 52 52 52 49 45 44 47 50 49 46
37 41 54 66 70 65 75 76 81 88 91 82 81 85 67 58 54 48 50 52 48 46 44 48 53 52 51 53 50 47 50 54 53 50 50 51 55 56 54 57 51 51 50 43 45 46 48 47 47
37 35 53 60 67 68 68 69 78 90 92 88 80 84 66 59 55 51 51 53 49 46 44 44 51 57 55 54 52 51 54 59 56 59 61 55 53 56 52 53 53 48 49 45 45 44 46 47 48
30 34 54 68 66 64 68 67 73 77 84 85 80 75 65 58 56 55 53 53 48 48 46 43 48 55 58 58 60 62 56 56 57 59 58 57 55 49 48 50 50 50 49 46 44 43 43 45 49
25 38 56 64 67 68 67 75 62 69 82 83 74 73 70 57 52 55 53 51 51 51 48 45 45 51 51 57 58 61 58 54 52 51 51 49 53 52 50 46 49 46 46 49 44 45 45 43 45
35 43 58 66 67 67 62 69 58 66 64 71 74 74 70 63 53 57 57 56 53 52 51 48 49 50 51 52 55 52 58 56 55 54 50 49 53 51 53 54 48 46 48 46 42 42 45 49 47
39 41 52 60 64 57 70 76 57 56 56 60 65 71 69 59 51 56 56 54 51 48 51 47 49 53 54 53 51 54 58 64 62 64 62 59 53 51 53 56 52 53 47 44 39 38 44 49 47
42 41 38 45 49 59 69 70 55 54 54 58 72 76 76 65 59 57 58 54 54 50 48 46 46 52 56 56 61 66 67 69 69 73 70 73 61 55 48 46 48 53 55 53 46 42 35 33 33
52 49 42 50 59 61 63 61 54 60 62 65 70 80 77 74 69 67 57 55 57 53 50 46 39 48 58 57 59 68 70 73 74 76 75 74 71 69 63 53 46 46 45 44 48 47 47 47 46
51 52 60 58 58 54 54 65 61 61 65 72 70 75 76 75 73 71 64 67 64 55 52 49 44 36 42 61 60 63 71 72 74 76 76 77 75 72 69 65 67 60 56 49 45 46 43 45 44
53 51 54 61 61 57 56 52 58 57 62 68 76 74 76 76 77 77 75 76 75 63 56 51 47 43 38 39 53 57 60 62 70 77 75 77 77 81 85 81 78 76 69 66 68 60 53 48 44
49 50 48 55 62 58 59 50 58 54 58 68 72 77 76 76 81 82 83 81 83 77 59 55 49 45 44 41 37 37 42 44 48 54 68 67 66 73 79 80 79 77 75 80 78 69 59 56 57

GFSSGP_prec_cthk_120.txt.gz
RH
69 78 75 68 60 52 50 49 49 51 54 57 61 61 56 57 57 60 69 79 82 82 83 81 80 81 83 85 80 67 56 56 57 56 54 54 58 49 44 51 55 60 61 63 66 71 70 78 81
70 75 74 70 57 51 53 48 51 52 55 61 63 61 61 55 53 57 65 76 80 80 82 80 76 75 75 77 69 62 47 43 45 48 52 55 60 53 46 52 63 69 63 55 61 63 64 66 65
69 75 75 68 56 51 50 49 49 54 55 62 65 64 60 57 54 58 61 70 79 75 77 78 75 74 70 66 64 63 53 53 48 55 59 55 51 48 45 53 70 73 70 69 66 61 58 55 55
69 77 71 73 59 52 48 48 52 51 53 57 61 59 59 57 56 56 60 63 66 67 67 57 58 62 60 66 64 63 66 70 73 73 71 52 44 42 46 50 66 72 81 78 75 69 64 56 37
69 76 69 69 61 53 50 51 53 54 55 55 55 57 61 59 57 56 59 66 68 63 61 54 51 54 55 62 65 68 69 68 69 66 62 55 48 46 48 45 55 66 72 72 68 54 43 32 33
69 70 68 73 63 55 53 53 55 54 53 51 54 56 62 57 55 57 57 63 65 67 67 60 51 54 58 69 70 71 75 75 75 66 65 60 56 55 48 44 47 59 66 64 56 45 34 31 28
68 70 66 59 58 54 56 56 55 55 50 48 54 59 59 57 54 56 57 61 65 71 73 71 66 57 64 71 72 75 74 77 70 64 64 61 63 58 50 41 43 53 57 55 51 38 32 28 25
70 72 71 69 58 59 55 56 52 55 49 45 49 55 57 57 52 56 57 59 65 67 71 73 72 73 75 76 78 74 78 75 66 62 65 65 52 54 43 39 43 48 53 55 48 36 32 28 28
66 75 73 69 61 69 59 59 59 52 45 46 47 55 56 57 52 56 54 58 61 63 67 73 74 74 73 75 73 75 70 69 68 72 70 66 57 55 52 40 41 47 52 50 40 35 30 29 31
72 70 75 77 80 81 70 60 61 55 53 48 46 50 56 59 52 55 55 58 63 62 65 76 74 72 73 77 74 75 67 73 74 71 60 61 57 52 46 38 43 49 50 41 35 34 33 40 47
79 83 72 78 80 79 79 64 60 59 56 52 44 44 56 55 56 54 54 56 60 60 65 74 75 73 74 72 74 75 72 72 59 59 60 58 54 51 47 41 46 51 47 45 39 38 46 42 46
76 75 72 77 84 84 79 70 63 56 58 53 43 47 53 56 55 50 51 52 55 57 63 68 68 72 71 69 72 71 73 70 66 60 58 57 56 51 48 47 45 52 50 39 41 45 41 40 41
57 69 72 74 79 86 76 68 67 59 58 53 45 48 53 55 53 49 50 50 51 55 61 62 67 67 67 68 68 65 63 66 65 65 61 62 61 53 51 48 52 55 51 43 42 44 47 46 44
53 56 63 67 80 82 72 73 69 62 63 55 48 46 51 54 53 47 46 48 49 53 57 60 65 66 68 67 66 64 66 63 64 65 67 63 64 57 51 50 57 57 51 43 43 45 50 49 45
48 53 59 69 74 80 84 82 76 66 62 59 56 48 47 55 56 50 45 44 45 51 54 53 60 62 66 67 65 67 66 66 68 68 61 59 57 53 49 52 55 53 44 40 39 45 46 48 44
49 49 60 64 76 77 85 83 87 74 67 68 62 50 48 56 58 54 49 46 42 48 48 53 59 60 60 63 62 64 65 68 73 74 67 53 52 51 50 55 58 48 44 40 45 50 49 48 43
40 49 52 63 67 71 78 84 84 86 78 75 79 52 49 55 56 55 52 48 43 45 45 49 53 57 60 58 61 63 62 68 70 72 69 58 55 52 55 53 57 48 47 45 54 50 50 45 43
42 40 43 53 68 65 70 81 84 84 79 74 69 58 50 53 51 52 52 49 46 44 43 45 49 53 57 55 59 61 62 59 59 61 66 60 54 56 56 57 54 50 52 50 53 53 49 49 46
33 36 39 48 64 63 60 73 83 85 82 77 67 64 56 56 54 51 51 52 46 47 45 45 48 53 58 53 58 59 60 63 62 60 53 59 59 51 47 53 50 51 52 45 49 52 51 53 45
32 34 39 47 58 58 56 58 68 77 82 84 73 66 58 55 54 52 51 51 51 45 47 47 49 50 53 55 54 60 58 60 62 59 59 55 58 54 52 47 46 47 50 43 46 50 58 53 48
30 31 40 44 57 60 54 50 54 67 73 84 79 72 65 56 54 50 51 52 50 47 44 47 50 53 48 54 54 53 61 58 57 59 59 55 54 52 47 47 47 44 45 46 42 47 50 58 50
26 30 31 45 57 58 55 48 51 55 69 79 85 76 74 71 55 55 50 52 51 50 48 45 50 55 58 49 55 57 63 64 63 64 64 61 58 56 50 47 48 43 45 43 43 45 48 50 54
26 29 35 45 51 59 59 56 42 52 62 70 79 79 75 73 54 54 51 52 54 52 49 43 46 51 55 47 56 63 59 61 64 66 62 58 57 52 48 46 44 45 45 43 43 42 42 48 50
26 31 40 47 51 52 50 56 45 51 49 58 67 75 73 75 55 51 52 54 56 54 52 47 42 46 50 50 62 60 59 61 58 57 57 59 58 50 48 46 42 44 42 43 46 42 41 44 44
30 35 43 45 49 44 56 52 51 55 53 52 63 76 74 66 65 54 52 54 53 53 54 49 43 42 45 47 56 58 56 57 57 58 55 58 57 56 56 50 47 46 44 44 43 38 39 43 49
33 36 38 44 36 41 57 48 56 54 54 54 60 73 73 74 75 60 53 52 54 52 54 52 45 47 46 47 51 56 59 61 63 62 68 68 61 56 56 57 55 49 51 48 44 42 38 41 43
45 40 37 42 40 47 44 45 54 59 61 63 57 63 69 72 73 64 54 54 54 53 50 52 47 48 52 50 50 50 58 66 71 72 74 74 74 66 61 54 53 52 51 51 53 49 48 46 40
44 61 46 39 50 47 40 49 58 60 63 68 67 67 72 73 74 65 57 56 53 56 53 52 51 46 51 54 56 59 63 65 70 71 74 72 71 70 63 58 55 51 51 50 48 46 47 46 52
47 43 46 51 53 50 55 49 52 49 57 67 71 72 76 82 79 75 68 69 63 61 60 54 51 46 45 56 59 56 63 69 69 73 74 74 76 72 70 69 66 69 68 67 60 54 56 56 51
38 52 50 50 46 50 45 68 54 49 58 67 73 78 80 84 84 82 79 74 62 64 64 58 54 52 41 39 47 60 60 59 64 65 72 75 76 77 78 81 82 79 79 77 69 72 75 66 59

GFSSGP_prec_cthk_123.txt.gz
RH
68 75 64 61 78 62 58 53 50 54 59 59 58 57 53 56 68 63 76 81 79 78 80 78 79 79 81 83 78 74 69 67 72 72 68 66 55 60 60 60 59 57 60 72 73 73 75 79 78
70 76 72 64 77 61 58 51 52 54 56 61 65 64 55 51 51 61 70 75 78 76 78 77 80 81 82 84 73 59 68 66 65 61 67 65 53 52 56 65 61 58 63 64 66 71 73 71 66
73 73 71 62 69 61 57 52 49 50 58 70 60 58 57 53 57 63 65 70 78 77 79 76 77 73 80 80 71 53 52 53 55 59 61 56 49 48 60 72 71 63 64 63 59 59 59 56 51
72 75 65 66 67 47 50 53 48 49 56 60 61 56 54 57 60 61 64 67 67 84 79 69 67 63 67 72 61 70 60 65 68 63 52 50 46 48 61 73 72 72 71 72 66 68 54 39 36
71 71 66 59 57 52 53 51 51 51 57 60 60 61 56 61 61 60 64 65 67 75 62 58 57 58 67 64 65 69 70 70 64 61 51 44 47 44 54 65 72 76 71 68 54 45 31 32 33
73 71 70 62 61 53 55 54 53 58 55 57 59 61 58 58 60 63 66 67 68 70 64 55 50 55 61 68 70 74 73 77 67 62 54 48 47 47 47 59 68 71 67 56 44 32 29 27 25
72 70 89 60 61 56 56 53 62 54 51 57 58 61 56 57 63 64 66 67 70 72 70 64 59 59 65 68 69 72 73 69 61 62 59 55 51 48 45 49 62 63 58 49 38 30 26 23 22
75 72 67 73 55 63 53 54 52 56 52 50 63 60 57 54 59 63 66 68 71 78 72 80 67 70 74 75 74 72 73 70 62 61 60 58 50 42 42 48 56 56 56 47 34 30 26 25 27
67 78 81 71 62 67 59 56 53 46 46 50 55 59 58 47 55 61 64 68 68 69 71 74 84 80 80 79 76 75 71 65 65 67 61 60 64 51 45 47 51 52 51 39 32 27 27 33 31
70 84 78 78 76 72 64 62 60 52 50 48 55 61 55 49 54 59 62 68 68 71 75 89 76 75 79 75 76 72 75 74 77 70 65 63 65 56 43 44 53 51 41 36 31 30 38 44 45
64 77 72 70 73 78 73 67 59 53 62 50 47 55 57 55 58 56 60 66 68 68 80 77 73 78 77 75 79 70 71 72 69 62 66 53 52 54 48 48 53 47 41 40 34 45 47 44 53
70 76 69 71 72 77 75 77 59 56 77 54 44 51 56 59 57 55 59 63 64 65 73 77 72 75 80 78 80 79 79 69 68 62 58 54 55 53 52 55 53 53 47 40 55 44 43 42 46
62 63 65 70 72 75 77 70 62 57 50 50 47 51 57 63 57 56 58 60 60 63 68 70 72 73 72 73 72 74 72 72 67 65 64 66 58 50 53 50 59 60 50 48 48 49 49 45 46
72 51 57 60 67 74 62 64 73 56 53 50 48 52 58 62 58 55 56 57 58 61 64 68 71 71 69 77 72 64 71 68 70 75 66 65 65 54 49 55 60 56 55 50 49 52 54 50 42
49 50 54 61 67 74 73 74 73 63 61 55 51 54 56 59 56 53 52 53 56 59 62 63 70 69 70 65 67 71 68 68 69 76 63 64 63 52 51 55 65 55 44 42 42 48 50 50 40
43 57 60 69 64 74 78 84 77 75 58 56 60 54 55 56 57 54 49 50 55 58 57 57 63 67 69 70 66 71 72 70 67 81 65 56 55 49 53 56 58 48 43 50 52 53 58 50 43
43 57 67 55 61 67 70 94 82 86 69 72 69 54 54 57 62 56 50 48 48 54 56 57 60 62 65 66 69 69 65 73 80 71 67 54 54 51 56 62 53 45 51 52 54 53 52 48 46
43 42 44 53 62 61 61 72 78 79 78 86 69 71 52 56 60 56 55 50 47 51 50 54 58 62 64 61 66 69 66 72 73 77 71 54 57 54 53 58 51 53 56 55 75 55 55 52 50
37 47 41 56 45 55 59 58 70 74 76 78 75 63 51 56 55 59 56 54 51 48 46 48 53 51 57 59 61 68 65 68 64 68 64 58 56 57 54 63 49 61 63 80 45 49 50 52 44
31 34 39 53 41 46 50 49 50 63 70 73 89 69 59 54 55 59 55 53 51 49 47 45 50 51 56 57 60 69 64 64 74 60 53 64 61 58 57 62 53 72 47 51 48 57 53 58 51
28 32 44 49 54 47 44 43 48 45 58 68 74 80 64 54 58 57 56 55 54 51 49 49 47 49 54 57 57 60 63 71 60 61 60 58 60 59 56 54 53 44 53 55 46 49 46 71 46
26 30 32 38 45 56 75 53 70 49 50 54 63 69 76 62 54 57 56 57 52 51 49 50 48 49 47 54 58 52 58 63 61 67 62 61 58 58 54 51 48 45 50 45 45 47 46 46 66
24 29 30 34 43 49 54 56 40 52 46 53 55 65 85 70 68 60 55 57 60 53 50 49 49 49 53 45 66 55 56 71 68 61 65 61 58 60 57 51 49 47 43 44 42 43 42 48 50
21 24 28 39 48 52 42 49 47 55 61 49 52 65 72 74 73 73 63 59 58 55 51 51 48 51 56 51 60 58 53 72 61 64 64 59 59 55 52 53 51 48 49 47 45 43 41 39 43
18 26 38 44 42 39 42 50 43 51 67 50 50 55 68 79 75 72 68 59 54 57 52 53 47 48 56 55 55 61 61 54 61 59 58 62 60 53 52 46 48 48 44 46 46 48 45 45 44
26 27 35 41 34 56 56 46 45 47 48 49 49 57 66 75 74 75 64 58 59 55 55 56 48 45 49 53 57 63 59 55 53 57 53 55 58 55 62 55 49 47 47 48 49 42 40 41 43
40 35 33 35 31 29 39 45 40 42 56 55 57 60 63 75 76 84 61 60 65 53 57 58 56 46 46 51 49 56 58 55 55 63 57 61 62 59 55 57 59 57 56 56 56 51 50 44 45
34 53 44 36 39 40 34 40 48 45 48 55 64 67 65 77 77 78 68 68 62 57 61 58 61 51 48 53 55 55 54 57 65 70 70 70 72 74 68 66 58 55 54 51 50 51 52 47 49
42 37 49 54 52 48 40 51 67 59 48 56 69 64 73 66 74 78 85 76 68 58 60 56 59 58 50 52 58 59 59 63 64 70 68 74 75 70 70 71 70 65 59 59 64 66 61 55 53
42 50 47 39 46 52 52 61 53 54 49 65 72 64 72 77 70 74 76 86 63 61 63 60 58 57 52 50 57 58 61 65 69 71 71 75 77 78 80 75 74 74 76 79 75 76 70 74 72